[[{"header":{"parameterUnit":"m.s-1","parameterCategory":1,"la1":31.0,"la2":29.5877,"lo1":-88.7671,"lo2":-86.6584,"dy":0.0162,"dx":0.0185,"nx":115,"ny":88,"refTime":"2025-07-08T12:00:00:Z","depth":0,"parameterNumber":2,"parameterNumberName":"U-component_of_WINDS"},"data":[0.0,0.0,0.0,0.0,0.0,0.0,0.0,0.0,0.0,0.0,0.0,0.0,0.0,0.0,0.0,0.0,0.0,0.0,0.0,0.0,0.0,0.0,0.0,0.0,0.0,0.0,0.0,0.0,0.0,0.0,0.0,0.0,0.0,0.0,0.0,0.0,0.0,0.0,0.0,0.0,0.0,0.0,0.0,0.0,0.0,0.0,0.0,0.0,0.0,0.0,0.0,0.0,0.0,0.0,0.0,0.0,0.0,0.0,0.0,0.0,0.0,0.0,0.0,0.0,0.0,0.0,0.0,0.0,0.0,0.0,0.0,0.0,0.0,0.0,0.0,0.0,0.0,0.0,0.0,0.0,0.0,0.0,0.0,0.0,0.0,0.0,0.0,0.0,0.0,0.0,0.0,0.0,0.0,0.0,0.0,0.0,0.0,0.0,0.0,0.0,0.0,0.0,0.0,0.0,0.0,0.0,0.0,0.0,0.0,0.0,0.0,0.0,0.0,0.0,0.0,0.0,0.0,0.0,0.0,0.0,0.0,0.0,0.0,0.0,0.0,0.0,0.0,0.0,0.0,0.0,0.0,0.0,0.0,0.0,0.0,0.0,0.0,0.0,0.0,0.0,0.0,0.0,0.0,0.0,0.0,0.0,0.0,0.0,0.0,0.0,0.0,0.0,0.0,0.0,0.0,0.0,0.0,0.0,0.0,0.0,0.0,0.0,0.0,0.0,0.0,0.0,0.0,0.0,0.0,0.0,0.0,0.0,0.0,0.0,0.0,0.0,0.0,0.0,0.0,0.0,0.0,0.0,0.0,0.0,0.0,0.0,0.0,0.0,0.0,0.0,0.0,0.0,0.0,0.0,0.0,0.0,0.0,0.0,0.0,0.0,0.0,0.0,0.0,0.0,0.0,0.0,0.0,0.0,0.0,0.0,0.0,0.0,0.0,0.0,0.0,0.0,0.0,0.0,0.0,0.0,0.0,0.0,0.0,0.0,0.0,0.0,0.0,0.0,0.0,0.0,0.0,0.0,0.0,0.0,0.0,0.0,0.0,0.0,0.0,0.0,0.0,0.0,0.0,0.0,0.0,0.0,0.0,0.0,0.0,0.0,0.0,0.0,0.0,0.0,0.0,0.0,0.0,0.0,0.0,0.0,0.0,0.0,0.0,0.0,0.0,0.0,0.0,0.0,0.0,0.0,0.0,0.0,0.0,0.0,0.0,0.0,0.0,0.0,0.0,0.0,0.0,0.0,0.0,0.0,0.0,0.0,0.0,0.0,0.0,0.0,0.0,0.0,0.0,0.0,0.0,0.0,0.0,0.0,0.0,0.0,0.0,0.0,0.0,0.0,0.0,0.0,0.0,0.0,0.0,0.0,0.0,0.0,0.0,0.0,0.0,0.0,0.0,0.0,0.0,0.0,0.0,0.0,0.0,0.0,0.0,0.0,0.0,0.0,0.0,0.0,0.0,0.0,0.0,0.0,0.0,0.0,0.0,0.0,0.0,0.0,0.0,0.0,0.0,0.0,0.0,0.0,0.0,0.0,0.0,0.0,0.0,0.0,0.0,0.0,0.0,0.0,0.0,0.0,0.0,0.0,0.0,0.0,0.0,0.0,0.0,0.0,0.0,0.0,0.0,0.0,0.0,0.0,0.0,0.0,0.0,0.0,0.0,0.0,0.0,0.0,0.0,0.0,0.0,0.0,0.0,0.0,0.0,0.0,0.0,0.0,0.0,0.0,0.0,0.0,0.0,0.0,0.0,0.0,0.0,0.0,0.0,0.0,0.0,0.0,0.0,0.0,0.0,0.0,0.0,0.0,0.0,0.0,0.0,0.0,0.0,0.0,0.0,0.0,0.0,0.0,0.0,0.0,0.0,0.0,0.0,0.0,0.0,0.0,0.0,0.0,0.0,0.0,0.0,0.0,0.0,0.0,0.0,0.0,0.0,0.0,0.0,0.0,0.0,0.0,0.0,0.0,0.0,0.0,0.0,0.0,0.0,0.0,0.0,0.0,0.0,0.0,0.0,0.0,0.0,0.0,0.0,0.0,0.0,0.0,0.0,0.0,0.0,0.0,0.0,0.0,0.0,0.0,0.0,0.0,0.0,0.0,0.0,0.0,0.0,0.0,0.0,0.0,0.0,0.0,0.0,0.0,0.0,0.0,0.0,0.0,0.0,0.0,0.0,0.0,0.0,0.0,0.0,0.0,0.0,0.0,0.0,0.0,0.0,0.0,0.0,0.0,0.0,0.0,0.0,0.0,0.0,0.0,0.0,0.0,0.0,0.0,0.0,0.0,0.0,0.0,0.0,0.0,0.0,0.0,0.0,0.0,0.0,0.0,0.0,0.0,0.0,0.0,0.0,0.0,0.0,0.0,0.0,0.0,0.0,0.0,0.0,0.0,0.0,0.0,0.0,0.0,0.0,0.0,0.0,0.0,0.0,0.0,0.0,0.0,0.0,0.0,0.0,0.0,0.0,0.0,0.0,0.0,0.0,0.0,0.0,0.0,0.0,0.0,0.0,0.0,0.0,0.0,0.0,0.0,0.0,0.0,0.0,0.0,0.0,0.0,0.0,0.0,0.0,0.0,0.0,0.0,0.0,0.0,0.0,0.0,0.0,0.0,0.0,0.0,0.0,0.0,0.0,0.0,0.0,0.0,0.0,0.0,0.0,0.0,0.0,0.0,0.0,0.0,0.0,0.0,0.0,0.0,0.0,0.0,0.0,0.0,0.0,0.0,0.0,0.0,0.0,0.0,0.0,0.0,0.0,0.0,0.0,0.0,0.0,0.0,0.0,0.0,0.0,0.0,0.0,0.0,0.0,0.0,0.0,0.0,0.0,0.0,0.0,0.0,0.0,0.0,0.0,0.0,0.0,0.0,0.0,0.0,0.0,0.0,0.0,0.0,0.0,0.0,0.0,0.0,0.0,0.0,0.0,0.0,0.0,0.0,0.0,0.0,0.0,0.0,0.0,0.0,0.0,0.0,0.0,0.0,0.0,0.0,0.0,0.0,0.0,0.0,0.0,0.0,0.0,0.0,0.0,0.0,0.0,0.0,0.0,0.0,0.0,0.0,0.0,0.0,0.0,0.0,0.0,0.0,0.0,0.0,0.0,0.0,0.0,0.0,0.0,0.0,0.0,0.0,0.0,0.0,0.0,0.0,0.0,0.0,0.0,0.0,0.0,0.0,0.0,0.0,0.0,0.0,0.0,0.0,0.0,0.0,0.0,0.0,0.0,0.0,0.0,0.0,0.0,0.0,0.0,0.0,0.0,0.0,0.0,0.0,0.0,0.0,0.0,0.0,0.0,0.0,0.0,0.0,0.0,0.0,0.0,0.0,0.0,0.0,0.0,0.0,0.0,0.0,0.0,0.0,0.0,0.0,0.0,0.0,0.0,0.0,0.0,0.0,0.0,0.0,0.0,0.0,0.0,0.0,0.0,0.0,0.0,0.0,0.0,0.0,0.0,0.0,0.0,0.0,0.0,0.0,0.0,0.0,0.0,0.0,0.0,0.0,0.0,0.0,0.0,0.0,0.0,0.0,0.0,0.0,0.0,0.0,0.0,0.0,0.0,0.0,0.0,0.0,0.0,0.0,0.0,0.0,0.0,0.0,0.0,0.0,0.0,0.0,0.0,0.0,0.0,0.0,0.0,0.0,0.0,0.0,0.0,0.0,0.0,0.0,0.0,0.0,0.0,0.0,0.0,0.0,0.0,0.0,0.0,0.0,0.0,0.0,0.0,0.0,0.0,0.0,0.0,0.0,0.0,0.0,0.0,0.0,0.0,0.0,0.0,0.0,0.0,0.0,0.0,0.0,0.0,0.0,0.0,0.0,0.0,0.0,0.0,0.0,0.0,0.0,0.0,0.0,0.0,0.0,0.0,0.0,0.0,0.0,0.0,0.0,0.0,0.0,0.0,0.0,0.0,0.0,0.0,0.0,0.0,0.0,0.0,0.0,0.0,0.0,0.0,0.0,0.0,0.0,0.0,0.0,0.0,0.0,0.0,0.0,0.0,0.0,0.0,0.0,0.0,0.0,0.0,0.0,0.0,0.0,0.0,0.0,0.0,0.0,0.0,0.0,0.0,0.0,0.0,0.0,0.0,0.0,0.0,0.0,0.0,0.0,0.0,0.0,0.0,0.0,0.0,0.0,0.0,0.0,0.0,0.0,0.0,0.0,0.0,0.0,0.0,0.0,0.0,0.0,0.0,0.0,0.0,0.0,0.0,0.0,0.0,0.0,0.0,0.0,0.0,0.0,0.0,0.0,0.0,0.0,-0.5539,0.0,0.0,0.0,0.0,0.0,0.0,0.0,0.0,0.0,0.0,0.0,0.0,0.0,0.0,0.0,0.0,0.0,0.0,0.0,0.0,0.0,0.0,0.0,0.0,0.0,0.0,0.0,0.0,0.0,0.0,0.0,0.0,0.0,0.0,0.0,0.0,0.0,0.0,0.0,0.0,0.0,0.0,0.0,0.0,0.0,0.0,0.0,0.0,0.0,0.0,0.0,0.0,0.0,0.0,0.0,0.0,0.0,0.0,0.0,0.0,0.0,0.0,0.0,0.0,0.0,0.0,0.0,0.0,0.0,0.0,0.0,0.0,0.0,0.0,0.0,0.0,0.0,0.0,0.0,0.0,0.0,0.0,0.0,0.0,0.0,0.0,0.0,0.0,0.0,0.0,0.0,0.0,0.0,0.0,0.0,0.0,0.0,0.0,0.0,0.0,0.0,0.0,0.0,0.0,0.0,0.0,0.0,0.0,0.0,0.0,-0.503,-0.5272,-0.5291,-0.5291,-0.5291,0.0,0.0,0.0,0.0,0.0,0.0,0.0,0.0,0.0,0.0,0.0,0.0,0.0,0.0,0.0,0.0,0.0,0.0,0.0,0.0,0.0,0.0,0.0,0.0,0.0,0.0,0.0,0.0,0.0,0.0,0.0,0.0,0.0,0.0,0.0,0.0,0.0,0.0,0.0,0.0,0.0,0.0,0.0,0.0,0.0,0.0,0.0,0.0,0.0,0.0,0.0,0.0,0.0,0.0,0.0,0.0,0.0,0.0,0.0,0.0,0.0,0.0,0.0,0.0,0.0,0.0,0.0,0.0,0.0,0.0,0.0,0.0,0.0,0.0,0.0,0.0,0.0,0.0,0.0,0.0,0.0,0.0,0.0,0.0,0.0,0.0,0.0,0.0,0.0,0.0,0.0,0.0,0.0,0.0,0.0,0.0,0.0,0.0,0.0,0.0,0.0,0.0,0.0,0.0,0.0,0.0,0.0,0.0,0.0,0.0,0.0,0.0,-0.5555,-0.5555,-0.5555,0.0,0.0,0.0,0.0,0.0,0.0,0.0,0.0,0.0,0.0,0.0,0.0,0.0,0.0,0.0,0.0,0.0,0.0,0.0,0.0,0.0,0.0,0.0,0.0,0.0,0.0,0.0,0.0,0.0,0.0,0.0,0.0,0.0,0.0,0.0,0.0,0.0,0.0,0.0,0.0,0.0,0.0,0.0,0.0,0.0,0.0,0.0,0.0,0.0,0.0,0.0,0.0,0.0,0.0,0.0,0.0,0.0,0.0,0.0,0.0,0.0,0.0,0.0,0.0,0.0,0.0,0.0,0.0,0.0,0.0,0.0,0.0,0.0,0.0,0.0,0.0,0.0,0.0,0.0,0.0,0.0,0.0,0.0,0.0,0.0,0.0,0.0,0.0,0.0,0.0,0.0,0.0,0.0,0.0,0.0,0.0,0.0,0.0,0.0,0.0,0.0,0.0,0.0,0.0,0.0,0.0,0.0,0.0,0.0,0.0,-0.5433,-0.6875,-0.6914,0.0,-0.6924,0.0,0.0,0.0,0.0,0.0,0.0,0.0,0.0,0.0,0.0,0.0,0.0,0.0,0.0,0.0,0.0,0.0,0.0,0.0,0.0,0.0,0.0,0.0,0.0,0.0,0.0,0.0,0.0,0.0,0.0,0.0,0.0,0.0,0.0,0.0,0.0,0.0,0.0,0.0,0.0,0.0,0.0,0.0,0.0,0.0,0.0,0.0,0.0,0.0,0.0,0.0,0.0,0.0,0.0,0.0,0.0,0.0,0.0,0.0,0.0,0.0,0.0,0.0,0.0,0.0,0.0,0.0,0.0,0.0,0.0,0.0,0.0,0.0,0.0,0.0,0.0,0.0,0.0,0.0,0.0,0.0,0.0,0.0,0.0,0.0,0.0,0.0,0.0,0.0,0.0,0.0,0.0,0.0,0.0,0.0,0.0,0.0,0.0,0.0,0.0,0.0,0.0,0.0,0.0,0.0,0.0,0.0,0.0,0.0,0.0,0.0,-0.709,-0.71,-0.71,0.0,0.0,0.0,0.0,0.0,0.0,0.0,0.0,0.0,0.0,0.0,0.0,0.0,0.0,0.0,0.0,0.0,0.0,0.0,0.0,0.0,0.0,0.0,0.0,0.0,0.0,0.0,0.0,0.0,0.0,0.0,0.0,0.0,0.0,0.0,0.0,0.0,0.0,0.0,0.0,0.0,0.0,0.0,0.0,0.0,0.0,0.0,0.0,0.0,0.0,0.0,0.0,0.0,0.0,0.0,0.0,0.0,0.0,0.0,0.0,0.0,0.0,0.0,0.0,0.0,0.0,0.0,0.0,0.0,0.0,0.0,0.0,0.0,0.0,0.0,0.0,0.0,0.0,0.0,0.0,0.0,0.0,0.0,0.0,0.0,0.0,0.0,0.0,0.0,0.0,0.0,0.0,0.0,0.0,0.0,0.0,0.0,0.0,0.0,0.0,0.0,0.0,0.0,0.0,0.0,0.0,0.0,0.0,0.0,0.0,-0.6633,0.0,-0.7607,-0.7617,-0.7461,-0.7119,0.0,0.0,0.0,0.0,0.0,0.0,0.0,0.0,0.0,0.0,0.0,0.0,0.0,0.0,0.0,0.0,0.0,0.0,0.0,0.0,0.0,0.0,0.0,0.0,0.0,0.0,0.0,0.0,0.0,0.0,0.0,0.0,0.0,0.0,0.0,0.0,0.0,0.0,0.0,0.0,0.0,0.0,0.0,0.0,0.0,0.0,0.0,0.0,0.0,0.0,0.0,0.0,0.0,0.0,0.0,0.0,0.0,0.0,0.0,0.0,0.0,0.0,0.0,0.0,0.0,0.0,0.0,0.0,0.0,0.0,0.0,0.0,0.0,0.0,0.0,0.0,0.0,0.0,0.0,0.0,0.0,0.0,0.0,0.0,0.0,0.0,0.0,0.0,0.0,0.0,0.0,0.0,0.0,0.0,0.0,0.0,0.0,0.0,0.0,0.0,0.0,0.0,0.0,0.0,0.0,0.0,0.0,0.0,0.0,-0.753,-0.7686,-0.8877,-0.8916,-0.835,0.0,0.0,0.0,0.0,0.0,0.0,0.0,0.0,0.0,0.0,0.0,0.0,0.0,0.0,0.0,0.0,0.0,0.0,0.0,0.0,0.0,0.0,0.0,0.0,0.0,0.0,0.0,0.0,0.0,0.0,0.0,0.0,0.0,0.0,0.0,0.0,0.0,0.0,0.0,0.0,0.0,0.0,0.0,0.0,0.0,0.0,0.0,0.0,0.0,0.0,0.0,0.0,0.0,0.0,0.0,0.0,0.0,0.0,0.0,0.0,0.0,0.0,0.0,0.0,0.0,0.0,0.0,0.0,0.0,0.0,0.0,0.0,0.0,0.0,0.0,0.0,0.0,0.0,0.0,0.0,0.0,0.0,0.0,0.0,0.0,0.0,0.0,0.0,0.0,0.0,0.0,0.0,0.0,0.0,0.0,0.0,0.0,0.0,0.0,0.0,0.0,0.0,0.0,0.0,0.0,0.0,0.0,0.0,0.0,-0.5828,-0.6499,-0.7923,-1.0068,-0.8652,-0.7959,0.0,0.0,0.0,0.0,0.0,0.0,0.0,0.0,0.0,0.0,0.0,0.0,0.0,0.0,0.0,0.0,0.0,0.0,0.0,0.0,0.0,0.0,0.0,0.0,0.0,0.0,0.0,0.0,0.0,0.0,0.0,0.0,0.0,0.0,0.0,0.0,0.0,0.0,0.0,0.0,0.0,0.0,0.0,0.0,0.0,0.0,0.0,0.0,0.0,0.0,0.0,0.0,0.0,0.0,0.0,0.0,0.0,0.0,0.0,0.0,0.0,0.0,0.0,0.0,0.0,0.0,0.0,0.0,0.0,0.0,0.0,0.0,0.0,0.0,0.0,0.0,0.0,0.0,0.0,0.0,0.0,0.0,0.0,0.0,0.0,0.0,0.0,0.0,0.0,0.0,0.0,0.0,0.0,0.0,0.0,0.0,0.0,0.0,0.0,0.0,0.0,0.0,0.0,0.0,0.0,0.0,0.0,0.0,0.0,-0.5365,0.0,-0.8252,0.0,-0.8286,-0.749,0.0,0.0,0.0,0.0,0.0,0.0,0.0,0.0,0.0,0.0,0.0,0.0,0.0,0.0,0.0,0.0,0.0,0.0,0.0,0.0,0.0,0.0,0.0,0.0,0.0,0.0,0.0,0.0,0.0,0.0,0.0,0.0,0.0,0.0,0.0,0.0,0.0,0.0,0.0,0.0,0.0,0.0,0.0,0.0,0.0,0.0,0.0,0.0,0.0,0.0,0.0,0.0,0.0,0.0,0.0,0.0,0.0,0.0,0.0,0.0,0.0,0.0,0.0,0.0,0.0,0.0,0.0,0.0,0.0,0.0,0.0,0.0,0.0,0.0,0.0,0.0,0.0,0.0,0.0,0.0,0.0,0.0,0.0,0.0,0.0,0.0,0.0,0.0,0.0,0.0,0.0,0.0,0.0,0.0,0.0,0.0,0.0,0.0,0.0,0.0,0.0,0.0,0.0,0.0,0.0,0.0,0.0,0.0,0.0,-0.7427,-0.8335,-0.8552,-0.8061,-0.7983,-0.7079,0.0,0.0,0.0,0.0,0.0,0.0,0.0,0.0,0.0,0.0,0.0,0.0,0.0,0.0,0.0,0.0,0.0,0.0,0.0,0.0,0.0,0.0,0.0,0.0,0.0,0.0,0.0,0.0,0.0,0.0,0.0,0.0,0.0,0.0,0.0,0.0,0.0,0.0,0.0,0.0,0.0,0.0,0.0,0.0,0.0,0.0,0.0,0.0,0.0,0.0,0.0,0.0,0.0,0.0,0.0,0.0,0.0,0.0,0.0,0.0,0.0,0.0,0.0,0.0,0.0,0.0,0.0,0.0,0.0,0.0,0.0,0.0,0.0,0.0,0.0,0.0,0.0,0.0,0.0,0.0,0.0,0.0,0.0,0.0,0.0,0.0,0.0,0.0,0.0,0.0,0.0,0.0,0.0,0.0,0.0,0.0,0.0,0.0,0.0,0.0,0.0,0.0,0.0,0.0,0.0,0.0,0.0,0.0,0.0,-0.596,-0.6852,-0.7976,-0.9204,-0.7618,-0.6966,0.0,0.0,0.0,0.0,0.0,0.0,0.0,0.0,0.0,0.0,0.0,0.0,0.0,0.0,0.0,0.0,0.0,0.0,0.0,0.0,0.0,0.0,0.0,0.0,0.0,0.0,0.0,0.0,0.0,0.0,0.0,0.0,0.0,0.0,0.0,0.0,0.0,0.0,0.0,0.0,0.0,0.0,0.0,0.0,0.0,0.0,0.0,0.0,0.0,0.0,0.0,0.0,0.0,0.0,0.0,0.0,0.0,0.0,0.0,0.0,0.0,0.0,0.0,0.0,0.0,0.0,0.0,0.0,0.0,0.0,0.0,0.0,0.0,0.0,0.0,0.0,0.0,0.0,0.0,0.0,0.0,0.0,0.0,0.0,0.0,0.0,0.0,0.0,0.0,0.0,0.0,0.0,0.0,0.0,0.0,0.0,0.0,0.0,0.0,0.0,0.0,0.0,0.0,0.0,0.0,0.0,0.0,0.0,0.0,-0.6097,-0.7183,-0.8327,-0.9504,-0.7761,-0.7181,-0.7955,0.0,0.0,0.0,0.0,0.0,0.0,0.0,0.0,0.0,0.0,0.0,0.0,0.0,0.0,0.0,0.0,0.0,0.0,0.0,0.0,0.0,0.0,0.0,0.0,0.0,0.0,0.0,0.0,0.0,0.0,0.0,0.0,0.0,0.0,0.0,0.0,0.0,0.0,0.0,0.0,0.0,0.0,0.0,0.0,0.0,0.0,0.0,0.0,0.0,0.0,0.0,0.0,0.0,0.0,0.0,0.0,0.0,0.0,0.0,0.0,0.0,0.0,0.0,0.0,0.0,0.0,0.0,0.0,0.0,0.0,0.0,0.0,0.0,0.0,0.0,0.0,0.0,0.0,0.0,0.0,0.0,0.0,0.0,0.0,0.0,0.0,0.0,0.0,0.0,0.0,0.0,0.0,0.0,0.0,0.0,0.0,0.0,0.0,0.0,0.0,0.0,0.0,0.0,0.0,0.0,0.0,0.0,0.0,-0.7527,-0.904,-0.9536,-0.9032,-0.831,-0.7712,0.0,0.0,0.0,0.0,0.0,0.0,0.0,0.0,0.0,0.0,0.0,0.0,0.0,0.0,0.0,0.0,0.0,0.0,0.0,0.0,0.0,0.0,0.0,0.0,0.0,0.0,0.0,0.0,0.0,0.0,0.0,0.0,0.0,0.0,0.0,0.0,0.0,0.0,0.0,0.0,0.0,0.0,0.0,0.0,0.0,0.0,0.0,0.0,0.0,0.0,0.0,0.0,0.0,0.0,0.0,0.0,0.0,0.0,0.0,0.0,0.0,0.0,0.0,0.0,0.0,0.0,0.0,0.0,0.0,0.0,0.0,0.0,0.0,0.0,0.0,0.0,0.0,0.0,0.0,0.0,0.0,0.0,0.0,0.0,0.0,0.0,0.0,0.0,0.0,0.0,0.0,0.0,0.0,0.0,0.0,0.0,0.0,0.0,0.0,0.0,0.0,0.0,0.0,0.0,0.0,0.0,0.0,0.0,0.0,-0.7796,-0.9321,-1.0113,-0.9938,-0.8601,-0.7784,0.0,0.0,0.0,0.0,0.0,0.0,0.0,0.0,0.0,0.0,0.0,0.0,0.0,0.0,0.0,0.0,0.0,0.0,0.0,0.0,0.0,0.0,0.0,0.0,0.0,0.0,0.0,0.0,0.0,0.0,0.0,0.0,0.0,0.0,0.0,0.0,0.0,0.0,0.0,0.0,0.0,0.0,0.0,0.0,0.0,0.0,0.0,0.0,0.0,0.0,0.0,0.0,0.0,0.0,0.0,0.0,0.0,0.0,0.0,0.0,0.0,0.0,0.0,0.0,0.0,0.0,0.0,0.0,0.0,0.0,0.0,0.0,0.0,0.0,0.0,0.0,0.0,0.0,0.0,0.0,0.0,0.0,0.0,0.0,0.0,0.0,0.0,0.0,0.0,0.0,0.0,0.0,0.0,0.0,0.0,0.0,0.0,0.0,0.0,0.0,0.0,0.0,0.0,0.0,0.0,0.0,0.0,0.0,-0.7455,-0.8413,-0.959,-1.0222,-1.0222,-0.9249,-0.8401,0.0,0.0,0.0,0.0,0.0,0.0,0.0,0.0,0.0,0.0,0.0,0.0,0.0,0.0,0.0,0.0,0.0,0.0,0.0,0.0,0.0,0.0,0.0,0.0,0.0,0.0,0.0,0.0,0.0,0.0,0.0,0.0,0.0,0.0,0.0,0.0,0.0,0.0,0.0,0.0,0.0,0.0,0.0,0.0,0.0,0.0,0.0,0.0,0.0,0.0,0.0,0.0,0.0,0.0,0.0,0.0,0.0,0.0,0.0,0.0,0.0,0.0,0.0,0.0,0.0,0.0,0.0,0.0,0.0,0.0,0.0,0.0,0.0,0.0,0.0,0.0,0.0,0.0,0.0,0.0,0.0,0.0,0.0,0.0,0.0,0.0,0.0,0.0,0.0,0.0,0.0,0.0,0.0,0.0,0.0,0.0,0.0,0.0,0.0,0.0,0.0,0.0,0.0,0.0,0.0,0.0,0.0,0.0,-0.811,-0.9157,-0.9754,-1.0114,-1.0094,-0.9881,-0.9227,0.0,0.0,0.0,0.0,0.0,0.0,0.0,0.0,0.0,0.0,0.0,0.0,0.0,0.0,0.0,0.0,0.0,0.0,0.0,0.0,0.0,0.0,0.0,0.0,0.0,0.0,0.0,0.0,0.0,0.0,0.0,0.0,0.0,0.0,0.0,0.0,0.0,0.0,0.0,0.0,0.0,0.0,0.0,0.0,0.0,0.0,0.0,0.0,0.0,0.0,0.0,0.0,0.0,0.0,0.0,0.0,0.0,0.0,0.0,0.0,0.0,0.0,0.0,0.0,0.0,0.0,0.0,0.0,0.0,0.0,0.0,0.0,0.0,0.0,0.0,0.0,0.0,0.0,0.0,0.0,0.0,0.0,0.0,0.0,0.0,0.0,0.0,0.0,0.0,0.0,0.0,0.0,0.0,0.0,0.0,0.0,0.0,0.0,0.0,0.0,0.0,0.0,0.0,0.0,0.0,0.0,0.0,0.0,-0.8524,-0.917,-0.9813,-1.012,-1.012,-0.9593,-0.8906,0.0,0.0,0.0,0.0,0.0,0.0,0.0,0.0,0.0,0.0,0.0,0.0,0.0,0.0,0.0,0.0,0.0,0.0,0.0,0.0,0.0,0.0,0.0,0.0,0.0,0.0,0.0,0.0,0.0,0.0,0.0,0.0,0.0,0.0,0.0,0.0,0.0,0.0,0.0,0.0,0.0,0.0,0.0,0.0,0.0,0.0,0.0,0.0,-0.4692,0.0,0.0,0.0,0.0,0.0,0.0,0.0,0.0,0.0,0.0,0.0,0.0,0.0,0.0,0.0,0.0,0.0,0.0,0.0,0.0,0.0,0.0,0.0,0.0,0.0,0.0,0.0,0.0,0.0,0.0,0.0,0.0,0.0,0.0,0.0,0.0,0.0,0.0,0.0,0.0,0.0,0.0,0.0,0.0,0.0,0.0,0.0,0.0,0.0,0.0,0.0,0.0,0.0,0.0,0.0,0.0,0.0,0.0,0.0,-0.9065,-0.9582,-1.0087,-1.0327,-1.0307,-0.976,-0.8971,0.0,0.0,0.0,0.0,0.0,0.0,0.0,0.0,0.0,0.0,0.0,0.0,0.0,0.0,0.0,0.0,0.0,0.0,0.0,0.0,0.0,0.0,0.0,0.0,0.0,0.0,0.0,0.0,0.0,0.0,0.0,0.0,0.0,0.0,0.0,0.0,0.0,0.0,0.0,0.0,0.0,0.0,0.0,0.0,0.0,0.0,0.0,0.0,0.0,0.0,0.0,0.0,0.0,0.0,0.0,0.0,0.0,0.0,0.0,0.0,0.0,0.0,0.0,0.0,0.0,0.0,0.0,0.0,0.0,0.0,0.0,0.0,0.0,0.0,0.0,0.0,0.0,0.0,0.0,0.0,0.0,0.0,0.0,0.0,0.0,0.0,0.0,0.0,0.0,0.0,0.0,0.0,0.0,0.0,0.0,0.0,0.0,0.0,0.0,0.0,0.0,0.0,0.0,0.0,0.0,0.0,0.0,-0.8197,-0.9479,-1.0094,-1.0408,-1.0618,-1.0618,-0.9993,-0.9178,-0.8054,0.0,0.0,0.0,0.0,0.0,0.0,0.0,0.0,0.0,0.0,0.0,0.0,0.0,0.0,0.0,0.0,0.0,0.0,0.0,0.0,0.0,0.0,0.0,0.0,0.0,0.0,0.0,0.0,0.0,0.0,0.0,0.0,0.0,0.0,0.0,0.0,0.0,0.0,-0.5478,-0.6387,0.0,0.0,0.0,0.0,0.0,0.0,0.0,0.0,-0.5451,0.0,0.0,0.0,0.0,0.0,0.0,0.0,0.0,0.0,0.0,0.0,0.0,0.0,0.0,0.0,0.0,0.0,0.0,0.0,0.0,0.0,0.0,0.0,0.0,0.0,0.0,0.0,0.0,0.0,0.0,0.0,0.0,0.0,0.0,0.0,0.0,0.0,0.0,0.0,0.0,0.0,0.0,0.0,0.0,0.0,0.0,0.0,0.0,0.0,0.0,0.0,0.0,0.0,0.0,0.0,0.0,-0.6558,-0.8092,-0.9285,-1.0094,-1.0408,-1.0618,-1.0604,-0.9987,-0.9359,-0.8651,0.0,0.0,0.0,0.0,0.0,0.0,0.0,0.0,0.0,0.0,0.0,0.0,0.0,0.0,0.0,0.0,0.0,0.0,0.0,0.0,0.0,0.0,0.0,0.0,0.0,0.0,0.0,0.0,0.0,0.0,0.0,0.0,0.0,0.0,0.0,0.0,0.0,0.0,0.0,-0.6851,-0.7306,0.0,0.0,0.0,0.0,0.0,0.0,0.0,0.0,-0.5765,0.0,0.0,0.0,0.0,0.0,0.0,0.0,0.0,0.0,0.0,0.0,0.0,0.0,0.0,0.0,0.0,0.0,0.0,0.0,0.0,0.0,0.0,0.0,0.0,0.0,0.0,0.0,0.0,0.0,0.0,0.0,0.0,0.0,0.0,0.0,0.0,0.0,0.0,0.0,0.0,0.0,0.0,0.0,0.0,0.0,0.0,0.0,0.0,0.0,0.0,0.0,0.0,0.0,0.0,0.0,-0.6624,-0.8378,-0.9613,-1.0321,-1.0551,-1.0618,-1.0604,-0.984,-0.9252,0.0,0.0,0.0,0.0,0.0,0.0,0.0,0.0,0.0,0.0,0.0,0.0,0.0,0.0,0.0,0.0,0.0,0.0,0.0,0.0,0.0,0.0,0.0,0.0,0.0,0.0,0.0,0.0,0.0,0.0,0.0,0.0,0.0,0.0,0.0,0.0,0.0,0.0,0.0,0.0,-0.6874,-0.7295,-0.7468,0.0,0.0,0.0,0.0,0.0,0.0,-0.664,-0.6212,0.0,0.0,0.0,0.0,0.0,0.0,0.0,0.0,0.0,0.0,0.0,0.0,0.0,0.0,0.0,0.0,0.0,0.0,0.0,0.0,0.0,0.0,0.0,0.0,0.0,0.0,0.0,0.0,0.0,0.0,0.0,0.0,0.0,0.0,0.0,0.0,0.0,0.0,0.0,0.0,0.0,0.0,0.0,0.0,0.0,0.0,0.0,0.0,0.0,0.0,0.0,0.0,0.0,0.0,0.0,-0.6781,-0.8575,-0.988,-1.0608,-1.0651,-1.0658,-1.0692,-0.9793,-0.911,0.0,0.0,0.0,0.0,0.0,0.0,0.0,0.0,0.0,0.0,0.0,0.0,0.0,0.0,0.0,0.0,0.0,0.0,0.0,0.0,0.0,0.0,0.0,0.0,0.0,0.0,0.0,0.0,0.0,0.0,0.0,0.0,0.0,0.0,0.0,0.0,0.0,0.0,0.0,0.0,0.0,-0.7328,-0.7822,-0.7373,0.0,0.0,0.0,0.0,-0.7575,-0.7345,0.0,0.0,0.0,0.0,0.0,0.0,0.0,0.0,0.0,0.0,0.0,0.0,0.0,0.0,0.0,0.0,0.0,0.0,0.0,0.0,0.0,0.0,0.0,0.0,0.0,0.0,0.0,0.0,0.0,0.0,0.0,0.0,0.0,0.0,0.0,0.0,0.0,0.0,0.0,0.0,0.0,0.0,0.0,0.0,0.0,0.0,0.0,0.0,0.0,0.0,0.0,0.0,0.0,0.0,0.0,0.0,-0.7181,-0.8307,-0.9566,-1.0855,-1.0695,-1.0745,-1.0922,-1.0087,-0.9372,0.0,0.0,0.0,0.0,0.0,0.0,0.0,0.0,0.0,0.0,0.0,0.0,0.0,0.0,0.0,0.0,0.0,0.0,0.0,0.0,0.0,0.0,0.0,0.0,0.0,0.0,0.0,0.0,0.0,0.0,0.0,0.0,0.0,0.0,0.0,0.0,0.0,0.0,0.0,0.0,0.0,-0.7713,-0.7894,-0.7276,-0.7043,0.0,0.0,0.0,-0.8164,-0.8424,0.0,0.0,0.0,0.0,0.0,0.0,0.0,0.0,0.0,0.0,0.0,0.0,0.0,0.0,0.0,0.0,0.0,0.0,0.0,0.0,0.0,0.0,0.0,0.0,0.0,0.0,0.0,0.0,0.0,0.0,0.0,0.0,0.0,0.0,0.0,0.0,0.0,0.0,0.0,0.0,0.0,0.0,0.0,0.0,0.0,0.0,0.0,0.0,0.0,0.0,0.0,0.0,0.0,0.0,0.0,-0.5836,-0.6919,-0.8661,-1.002,-1.0955,-1.1035,-1.1035,-1.0995,-1.014,-0.9406,0.0,0.0,0.0,0.0,0.0,0.0,0.0,0.0,0.0,0.0,0.0,0.0,0.0,0.0,0.0,0.0,0.0,0.0,0.0,0.0,0.0,0.0,0.0,0.0,0.0,0.0,0.0,0.0,0.0,0.0,0.0,0.0,0.0,0.0,0.0,0.0,0.0,0.0,0.0,0.0,0.0,0.0,-0.8553,-0.7895,0.0,0.0,0.0,-0.7175,-0.8221,0.0,0.0,0.0,0.0,0.0,0.0,0.0,0.0,0.0,0.0,0.0,0.0,0.0,0.0,0.0,0.0,0.0,0.0,0.0,0.0,0.0,0.0,0.0,0.0,0.0,0.0,0.0,0.0,0.0,0.0,0.0,0.0,0.0,0.0,0.0,0.0,0.0,0.0,0.0,0.0,0.0,0.0,0.0,0.0,0.0,0.0,0.0,0.0,0.0,0.0,0.0,0.0,0.0,0.0,0.0,0.0,0.0,-0.6835,-0.8997,-1.0434,-1.1076,-1.1316,-1.1323,-1.1089,-1.0247,0.0,0.0,0.0,0.0,0.0,0.0,0.0,0.0,0.0,0.0,0.0,0.0,0.0,0.0,0.0,0.0,0.0,0.0,0.0,0.0,0.0,0.0,0.0,0.0,0.0,0.0,0.0,0.0,0.0,0.0,0.0,0.0,0.0,0.0,0.0,0.0,0.0,0.0,0.0,0.0,0.0,0.0,-0.7805,-0.8969,-0.8458,-0.8046,0.0,0.0,-0.7028,-0.796,-0.7339,-0.6774,0.0,0.0,0.0,0.0,0.0,0.0,0.0,0.0,0.0,0.0,0.0,0.0,0.0,0.0,0.0,0.0,0.0,0.0,0.0,0.0,0.0,0.0,0.0,0.0,0.0,0.0,0.0,0.0,0.0,0.0,0.0,0.0,0.0,0.0,0.0,0.0,0.0,0.0,0.0,0.0,0.0,0.0,0.0,0.0,0.0,0.0,0.0,0.0,0.0,0.0,0.0,0.0,0.0,0.0,0.0,-0.744,-0.9214,-1.0541,-1.1356,-1.1416,-1.1416,-1.1376,-1.0548,-0.9686,0.0,0.0,0.0,0.0,0.0,0.0,0.0,0.0,0.0,0.0,0.0,0.0,0.0,0.0,0.0,0.0,0.0,0.0,0.0,0.0,0.0,0.0,0.0,0.0,0.0,0.0,0.0,0.0,0.0,0.0,0.0,0.0,0.0,0.0,0.0,0.0,0.0,0.0,0.0,0.0,0.0,-0.7539,-0.8652,-0.8658,-0.8504,0.0,0.0,-0.7492,-0.721,-0.7556,-0.7387,-0.5839,0.0,0.0,0.0,0.0,0.0,0.0,0.0,0.0,0.0,0.0,0.0,0.0,0.0,0.0,0.0,0.0,0.0,0.0,0.0,0.0,0.0,0.0,0.0,0.0,0.0,0.0,0.0,0.0,0.0,0.0,0.0,0.0,0.0,0.0,0.0,0.0,0.0,0.0,0.0,0.0,0.0,0.0,0.0,0.0,0.0,0.0,0.0,0.0,0.0,0.0,0.0,0.0,0.0,-0.6613,-0.7866,-0.9714,-1.0995,-1.167,-1.1877,-1.1877,-1.1703,-1.1022,-1.0247,0.0,0.0,0.0,0.0,0.0,0.0,0.0,0.0,0.0,0.0,0.0,0.0,0.0,0.0,0.0,0.0,0.0,0.0,0.0,0.0,0.0,0.0,0.0,0.0,0.0,0.0,0.0,0.0,-0.493,-0.521,-0.521,0.0,0.0,0.0,0.0,0.0,0.0,0.0,0.0,0.0,0.0,-0.8066,-0.9663,-0.9098,0.0,0.0,-0.7281,-0.6506,-0.6889,-0.6544,-0.6125,-0.5853,-0.5201,0.0,0.0,0.0,0.0,0.0,0.0,0.0,0.0,0.0,0.0,0.0,0.0,0.0,0.0,0.0,0.0,0.0,0.0,0.0,0.0,0.0,0.0,0.0,0.0,0.0,0.0,0.0,0.0,0.0,0.0,0.0,0.0,0.0,0.0,0.0,0.0,0.0,0.0,0.0,0.0,0.0,0.0,0.0,0.0,0.0,0.0,0.0,0.0,0.0,0.0,0.0,0.0,-0.707,-0.8306,-1.0079,-1.1276,-1.1928,-1.2158,-1.2164,-1.1942,-1.1383,-1.0708,0.0,0.0,0.0,0.0,0.0,0.0,0.0,0.0,0.0,0.0,0.0,0.0,0.0,0.0,0.0,0.0,0.0,0.0,0.0,0.0,0.0,0.0,0.0,0.0,0.0,0.0,0.0,0.0,-0.5333,-0.5473,-0.539,0.0,0.0,0.0,0.0,0.0,0.0,0.0,0.0,0.0,0.0,-0.8267,-1.0366,-0.9386,-0.8447,-0.8604,-0.7115,-0.6186,-0.6478,-0.5876,-0.5473,-0.5779,0.0,0.0,0.0,0.0,0.0,0.0,0.0,0.0,0.0,0.0,0.0,0.0,0.0,0.0,0.0,0.0,0.0,0.0,0.0,0.0,0.0,0.0,0.0,0.0,0.0,0.0,0.0,0.0,0.0,0.0,-0.5691,0.0,0.0,0.0,0.0,0.0,0.0,0.0,0.0,0.0,0.0,0.0,0.0,0.0,0.0,0.0,0.0,0.0,0.0,0.0,0.0,0.0,0.0,0.0,-0.8795,-1.0288,-1.1289,-1.1864,-1.2158,-1.2164,-1.1891,-1.1577,-1.1009,-1.0127,0.0,0.0,0.0,0.0,0.0,0.0,0.0,0.0,0.0,0.0,0.0,0.0,0.0,0.0,0.0,0.0,0.0,0.0,0.0,0.0,0.0,0.0,0.0,0.0,0.0,0.0,-0.5603,-0.5327,-0.5002,0.0,0.0,0.0,0.0,0.0,0.0,0.0,0.0,0.0,0.0,-0.7089,-0.7865,-1.0586,-0.9514,-0.8428,-0.8584,-0.7726,-0.6746,-0.5842,-0.5823,-0.5864,0.0,0.0,0.0,0.0,0.0,0.0,0.0,0.0,0.0,0.0,0.0,0.0,0.0,0.0,0.0,0.0,0.0,0.0,0.0,0.0,0.0,0.0,0.0,0.0,0.0,0.0,0.0,-0.8243,-0.8036,0.0,0.0,0.0,0.0,0.0,0.0,0.0,0.0,0.0,0.0,0.0,-1.0842,-1.0935,0.0,0.0,0.0,0.0,0.0,0.0,0.0,0.0,0.0,0.0,0.0,0.0,-0.8274,-0.9635,-1.0963,-1.1764,-1.2138,-1.2251,-1.2251,-1.2158,-1.187,-1.1216,-1.0147,0.0,0.0,0.0,0.0,0.0,0.0,0.0,0.0,0.0,0.0,0.0,0.0,0.0,0.0,0.0,0.0,0.0,0.0,0.0,0.0,0.0,0.0,0.0,0.0,0.0,-0.5069,0.0,0.0,0.0,0.0,0.0,0.0,0.0,0.0,0.0,0.0,0.0,-0.5967,-0.8663,-0.7956,-0.8051,-1.0432,-0.9283,-0.8192,0.0,0.0,0.0,0.0,0.0,0.0,0.0,0.0,0.0,0.0,0.0,0.0,0.0,0.0,-0.5993,-0.4955,-0.4687,-0.4646,-0.4741,0.0,0.0,0.0,0.0,0.0,0.0,0.0,0.0,0.0,0.0,0.0,0.0,0.0,0.0,0.0,0.0,-0.9408,0.0,0.0,0.0,0.0,0.0,0.0,0.0,0.0,-1.1289,-1.2037,-1.2485,-1.2592,-1.2585,0.0,-1.2111,-1.0868,0.0,0.0,0.0,0.0,0.0,0.0,0.0,0.0,-0.9062,-1.0548,-1.1523,-1.2211,-1.2599,-1.2612,-1.2565,-1.2452,-1.2071,-1.1463,-1.0601,-1.0107,-0.9486,0.0,0.0,0.0,0.0,0.0,0.0,0.0,0.0,0.0,0.0,0.0,0.0,0.0,0.0,0.0,0.0,0.0,0.0,0.0,0.0,0.0,0.0,0.0,-0.5878,0.0,0.0,0.0,0.0,0.0,0.0,0.0,0.0,0.0,-0.6721,-0.6524,-0.746,-1.0213,-0.928,-0.899,-1.0827,0.0,0.0,0.0,0.0,0.0,0.0,0.0,-0.6346,-0.6342,-0.6186,-0.6105,-0.624,-0.6634,-0.6885,-0.6725,0.0,0.0,-0.5803,-0.5576,-0.5549,-0.5589,-0.5722,-0.5857,-0.5956,-0.6132,-0.6295,0.0,0.0,0.0,0.0,0.0,0.0,0.0,0.0,-1.1657,-1.1677,0.0,-1.1042,0.0,0.0,0.0,0.0,0.0,0.0,0.0,0.0,-1.336,-1.3941,-1.3721,-1.3968,-1.3961,-1.3741,-1.4208,-1.3714,-1.2258,-1.0074,0.0,0.0,0.0,0.0,0.0,0.0,-0.9953,-1.1416,-1.2031,-1.2619,-1.3173,-1.32,-1.3053,-1.2815,-1.2271,-1.1757,-1.1443,-1.1149,-1.0481,-0.9289,-0.8744,0.0,0.0,0.0,0.0,0.0,0.0,0.0,0.0,0.0,0.0,0.0,0.0,0.0,0.0,0.0,0.0,0.0,0.0,0.0,0.0,-0.6864,0.0,0.0,0.0,0.0,0.0,0.0,0.0,0.0,0.0,0.0,-0.835,-0.8801,-0.9969,-1.1623,0.0,0.0,0.0,0.0,-0.8417,-0.8365,-0.7543,-0.6953,-0.6953,-0.7173,-0.7251,-0.699,0.0,0.0,-0.681,-0.7099,-0.7258,-0.6831,-0.7014,-0.7122,-0.6966,-0.677,-0.6637,-0.6519,-0.6593,-0.6709,-0.6742,-0.6912,-0.7112,-1.354,0.0,0.0,0.0,0.0,-1.2298,-1.303,-1.4062,-1.3761,-1.3561,-1.3427,-1.2966,0.0,0.0,0.0,0.0,0.0,0.0,-1.2726,-1.316,-1.3794,-1.4376,-1.489,-1.477,-1.4776,-1.4883,-1.4643,-1.4302,-1.3848,-1.2786,-1.1216,-0.9218,0.0,0.0,0.0,0.0,-1.1216,-1.2031,-1.2645,-1.3039,-1.32,-1.3206,-1.3066,-1.2829,-1.2661,-1.2258,-1.1764,-1.1657,-1.1276,-1.0521,-0.9933,0.0,0.0,0.0,0.0,0.0,0.0,0.0,0.0,0.0,0.0,0.0,0.0,0.0,0.0,0.0,0.0,0.0,0.0,0.0,-0.6391,-0.7096,-0.7544,0.0,0.0,0.0,0.0,0.0,0.0,0.0,0.0,0.0,-1.1917,-1.085,-1.0507,0.0,0.0,-1.0444,-0.9733,-0.93,-0.873,-0.7924,0.0,0.0,0.0,-0.7295,-0.7251,-0.7383,-0.7563,-0.7641,-0.7516,-0.7689,-0.7807,-0.7665,-0.7726,-0.7736,-0.7573,-0.7258,-0.7054,-0.7095,-0.7149,-0.7217,-0.7322,-0.7417,-0.7495,-1.5438,-1.4255,-1.3627,-1.3634,-1.4048,-1.3874,-1.4376,-1.5291,-1.4997,-1.483,-1.4756,-1.4462,-1.3814,-1.2893,-1.2485,0.0,0.0,0.0,-1.3768,-1.4342,-1.4522,-1.495,-1.5538,-1.5391,-1.5398,-1.5545,-1.5211,-1.4977,-1.4856,-1.4516,-1.3293,-1.1309,0.0,0.0,-1.0581,-1.1363,-1.2064,-1.2652,-1.3133,-1.3434,-1.3554,-1.344,-1.324,-1.2939,-1.2889,-1.2593,-1.2064,-1.2044,-1.1824,-1.1356,-1.0782,-1.0067,0.0,0.0,0.0,0.0,0.0,0.0,0.0,0.0,0.0,0.0,0.0,-0.55,0.0,0.0,0.0,0.0,-0.5826,-0.6736,-0.7974,-0.8665,0.0,0.0,0.0,0.0,0.0,0.0,0.0,-1.1664,-1.2469,-1.3335,-1.403,-1.3149,-1.2649,-1.325,-1.2877,-1.1971,-1.0102,0.0,-0.9522,-0.7942,-0.7682,-0.7706,-0.776,-0.7617,-0.7563,-0.774,-0.7841,-0.7899,-0.7906,-0.798,-0.8035,-0.8038,-0.8038,-0.8007,-0.7919,-0.7675,-0.7495,-0.7539,-0.7594,-0.7668,-0.7756,-0.7773,-0.7801,-1.678,-1.6687,-1.5618,-1.5297,-1.5498,-1.5498,-1.5651,-1.5872,-1.5618,-1.5651,-1.5872,-1.5618,-1.519,-1.4629,-1.4068,0.0,-1.4242,-1.4502,-1.491,-1.5431,-1.5431,-1.5578,-1.5825,-1.5825,-1.5825,-1.5825,-1.5825,-1.5691,-1.5438,-1.5424,-1.487,-1.3705,-1.2959,-1.2371,-1.2044,-1.2325,-1.2766,-1.334,-1.3621,-1.3868,-1.4115,-1.3828,-1.3527,-1.322,-1.2933,-1.2625,-1.2285,-1.2265,-1.2131,-1.1837,-1.1296,-1.0615,-0.978,0.0,0.0,0.0,0.0,0.0,0.0,0.0,0.0,0.0,0.0,0.0,0.0,0.0,0.0,0.0,-0.8319,0.0,-1.02,-1.0962,0.0,0.0,0.0,-1.0959,-1.0953,-1.2039,-1.2877,-1.3326,0.0,0.0,-1.503,0.0,-1.5431,-1.5431,-1.5204,-1.428,-1.1963,-1.1538,-1.066,-0.8383,-0.8018,-0.7973,-0.7987,-0.7997,-0.7987,-0.8004,-0.8038,-0.8031,-0.8028,-0.8035,-0.8038,-0.8038,-0.8038,-0.8038,-0.8038,-0.8007,-0.7994,-0.7841,-0.7926,-0.8028,-0.8018,-0.8014,-0.8014,-1.7375,-1.7348,-1.7081,-1.674,-1.6393,-1.6393,-1.6433,-1.6486,-1.6426,-1.6426,-1.6493,-1.642,-1.6199,-1.5838,-1.5471,-1.5351,-1.5418,-1.5484,-1.5591,-1.5718,-1.5725,-1.5765,-1.5825,-1.5825,-1.5825,-1.5825,-1.5825,-1.5792,-1.5732,-1.5725,-1.5471,-1.499,-1.4763,-1.4182,-1.328,-1.3734,-1.4175,-1.4543,-1.4616,-1.4576,-1.4416,-1.4135,-1.3734,-1.322,-1.314,-1.2739,-1.2004,-1.1971,-1.1837,-1.1543,-1.1182,-1.0802,-1.0361,-0.9239,0.0,0.0,0.0,0.0,0.0,0.0,0.0,0.0,0.0,-0.8572,-0.6724,0.0,-0.877,0.0,-0.978,-1.0575,-1.1376,-1.1436,0.0,0.0,-1.2706,-1.2975,-1.386,-1.3972,-1.4276,-1.4836,-1.5124,-1.5378,-1.5598,-1.5678,-1.5732,-1.5725,-1.5665,-1.4703,-1.2199,-1.2669,-1.2374,-1.0011,-0.9339,-0.9166,-0.8226,-0.8038,-0.8038,-0.8038,-0.8038,-0.8038,-0.8038,-0.8038,-0.8038,-0.8038,-0.8038,-0.8038,-0.8038,-0.8038,-0.8028,-0.7994,-0.8014,-0.8038,-0.8038,-0.8038,-0.8038,-1.7983,-1.7976,-1.7842,-1.7602,-1.7281,-1.7014,-1.6907,-1.6894,-1.6767,-1.6707,-1.6707,-1.6707,-1.662,-1.646,-1.6293,-1.6219,-1.6213,-1.6086,-1.6025,-1.6012,-1.5892,-1.5825,-1.5825,-1.5825,-1.5825,-1.5825,-1.5825,-1.5825,-1.5825,-1.5825,-1.5745,-1.5591,-1.5591,-1.5264,-1.4649,-1.4689,-1.4803,-1.4963,-1.506,-1.4883,-1.4716,-1.4429,-1.4001,-1.3434,-1.3407,-1.2979,-1.2098,-1.2264,-1.2064,-1.1643,-1.1349,-1.1056,-1.0755,-0.9893,-0.9319,0.0,0.0,0.0,0.0,0.0,0.0,0.0,0.0,0.0,0.0,0.0,-1.0497,0.0,-1.1583,-1.2184,-1.2799,-1.306,-1.3474,-1.4155,-1.4322,-1.4589,-1.5104,-1.5124,-1.5224,-1.5545,-1.5591,-1.5645,-1.5805,-1.5825,-1.5825,-1.5825,-1.5825,-1.4804,-1.2369,-1.2062,-1.1453,-0.9509,-0.9118,-0.8924,-0.8038,-0.8038,-0.8038,-0.8038,-0.8038,-0.8038,-0.8038,-0.8038,-0.8038,-0.8038,-0.8038,-0.8038,-0.8038,-0.8038,-0.8038,-0.8038,-0.8038,-0.8038,-0.8038,-0.8038,-0.8038,-1.8497,-1.847,-1.821,-1.8103,-1.8063,-1.7542,-1.7281,-1.7181,-1.6934,-1.682,-1.682,-1.678,-1.676,-1.676,-1.6727,-1.6707,-1.6687,-1.644,-1.6333,-1.6306,-1.6025,-1.5885,-1.5885,-1.5845,-1.5825,-1.5825,-1.5825,-1.5825,-1.5825,-1.5825,-1.5825,-1.5825,-1.5825,-1.5825,-1.5805,-1.5331,-1.5077,-1.5077,-1.5037,-1.5023,-1.501,-1.473,-1.4295,-1.3734,-1.3661,-1.322,-1.2358,-1.2552,-1.2513,-1.1904,-1.1663,-1.1403,-1.1116,-1.0615,-1.0307,0.0,-1.002,0.0,0.0,0.0,0.0,0.0,0.0,0.0,0.0,-1.1804,-1.2479,-1.2956,-1.346,-1.3935,-1.4229,-1.4943,-1.5311,-1.5117,-1.5518,-1.5732,-1.5491,-1.5678,-1.5825,-1.5825,-1.5825,-1.5825,-1.5825,-1.5825,-1.5825,-1.5825,-1.5534,-1.4657,-1.2619,-1.1648,-1.0676,-0.8722,-0.8237,-0.8134,-0.8038,-0.8038,-0.8038,-0.8038,-0.8038,-0.8038,-0.8038,-0.8038,-0.8038,-0.8038,-0.8038,-0.8038,-0.8038,-0.8038,-0.8038,-0.8038,-0.8038,-0.8038,-0.8038,-0.8038,-0.8038,-1.8497,-1.8484,-1.843,-1.841,-1.8397,-1.8283,-1.7956,-1.7495,-1.7442,-1.7415,-1.7395,-1.7168,-1.7068,-1.7048,-1.6814,-1.6707,-1.6707,-1.6653,-1.6627,-1.6613,-1.6326,-1.6186,-1.6179,-1.5939,-1.5825,-1.5825,-1.5825,-1.5825,-1.5825,-1.5825,-1.5825,-1.5825,-1.5825,-1.5825,-1.5818,0.0,0.0,0.0,-1.5438,-1.5317,-1.5311,-1.503,-1.4603,-1.4021,-1.3768,0.0,-1.2358,-1.2358,-1.2231,-1.1897,-1.2037,0.0,0.0,0.0,0.0,0.0,0.0,0.0,0.0,0.0,0.0,0.0,-1.2685,-1.2345,-1.2118,-1.3253,-1.3968,-1.3868,-1.4369,-1.4836,-1.5124,-1.5284,-1.5471,-1.5651,-1.5772,-1.5805,-1.5758,-1.5805,-1.5825,-1.5825,-1.5832,-1.5832,-1.5852,-1.5825,-1.5838,-1.5763,-1.4949,-1.4076,-1.3596,-1.3986,-1.3692,-1.1556,-0.941,-0.8038,-0.8038,-0.8038,-0.8038,-0.8038,-0.8038,-0.8038,-0.8038,-0.8038,-0.8038,-0.8038,-0.8038,-0.8038,-0.8041,-0.8038,-0.8052,-0.8041,-0.8045,-0.8038,-0.8038,-0.8041,-0.8038,-1.8925,0.0,-1.8764,-1.8704,0.0,-1.8557,-1.8317,-1.8023,-1.7876,-1.7722,-1.7569,-1.7428,-1.7361,-1.7355,-1.7208,-1.7134,-1.7134,-1.6994,-1.6921,-1.6914,-1.662,-1.6406,-1.6273,-1.6119,-1.5965,-1.5832,-1.5825,-1.5825,-1.5825,-1.5825,-1.5825,-1.5825,-1.5825,-1.5825,-1.5825,-1.5825,-1.5825,-1.5825,-1.5685,-1.5611,-1.5598,-1.5331,-1.4963,-1.4536,0.0,0.0,0.0,0.0,0.0,0.0,0.0,0.0,0.0,0.0,0.0,-1.2732,-1.2872,-1.2953,-1.2959,-1.3227,-1.3594,-1.4035,-1.4208,-1.4102,-1.3647,-1.4436,-1.4957,-1.4957,-1.5224,-1.5451,-1.5591,-1.5745,-1.5892,-1.6039,-1.6179,-1.6259,-1.6266,-1.6259,-1.6259,-1.6266,-1.6259,-1.6266,-1.6259,-1.6259,-1.6259,-1.6253,-1.5635,-1.5055,-1.4939,-1.4352,-1.3307,-1.2042,-1.0293,-0.9023,-0.892,-0.8333,-0.8038,-0.8038,-0.8038,-0.8038,-0.8038,-0.8038,-0.8038,-0.8038,-0.8038,-0.8058,-0.8136,-0.8153,-0.8174,-0.8238,-0.8258,-0.8258,-0.8255,-0.8204,-0.8153,-1.9366,-1.9345,-1.9105,-1.9005,-1.8985,-1.8744,-1.8617,-1.8551,0.0,0.0,0.0,-1.7682,-1.7662,-1.7662,-1.7609,-1.7589,-1.7569,-1.7335,-1.7228,-1.7318,-1.6921,-1.6653,-1.6433,-1.6373,-1.6192,-1.5919,-1.5905,-1.5879,-1.5825,-1.5825,-1.5825,-1.5825,-1.5825,-1.5825,-1.5825,-1.5825,-1.5825,-1.5825,-1.5825,-1.5825,-1.5825,-1.5598,-1.5337,-1.505,-1.4756,-1.4342,-1.3821,-1.3712,-1.3574,-1.3093,-1.3192,-1.3227,-1.3427,-1.3494,-1.3814,-1.4456,-1.4569,-1.4623,-1.4676,-1.4903,-1.4963,-1.4763,-1.519,-1.5371,-1.5137,-1.5331,-1.5571,-1.5812,-1.5872,-1.5905,-1.5905,-1.6172,-1.6353,-1.6353,-1.656,-1.67,-1.67,-1.6707,-1.6673,-1.6707,-1.6673,-1.67,-1.668,-1.6673,-1.6707,-1.6667,-1.6381,-1.6353,-1.6006,-1.4175,-1.2624,-1.2328,-1.1263,-1.0391,-1.0194,-0.9217,-0.8439,-0.8478,-0.8285,-0.8085,-0.8109,-0.8119,-0.8119,-0.8143,-0.8119,-0.8177,-0.8279,-0.8306,-0.8347,-0.8462,-0.8482,-0.8482,-0.8476,-0.8414,-0.8347,-1.9366,-1.9366,-1.9325,-1.9305,-1.9299,-1.9259,-1.9098,-1.8844,-1.8557,-1.8404,-1.835,-1.809,-1.7983,-1.7963,-1.7702,-1.7589,-1.7582,-1.7542,-1.7522,0.0,-1.7221,-1.7068,-1.7014,-1.6767,-1.6493,-1.6226,-1.6206,-1.6079,-1.5852,-1.5832,-1.5825,-1.5825,-1.5825,-1.5825,-1.5825,-1.5825,-1.5825,-1.5825,-1.5825,-1.5825,-1.5825,-1.5792,-1.5631,-1.5344,-1.5057,-1.475,-1.4409,-1.4396,-1.4362,-1.4282,-1.4516,-1.4556,-1.4362,-1.4563,-1.4656,-1.4543,-1.4763,-1.501,-1.5257,-1.5317,-1.5431,-1.5625,-1.5725,-1.5752,-1.5712,-1.5745,-1.5785,-1.5838,-1.6066,-1.6213,-1.6226,-1.6473,-1.6647,-1.6647,-1.6687,-1.6707,-1.674,-1.674,-1.6747,-1.6747,-1.6707,-1.6734,-1.676,-1.6747,-1.676,-1.672,-1.6707,-1.6647,-1.6341,-1.4875,-1.3715,-1.3488,-1.2528,-1.1755,-1.1409,-1.0587,-0.9784,-0.9903,-0.8936,-0.8272,-0.8367,-0.8384,-0.8384,-0.8408,-0.8391,-0.8411,-0.8448,-0.8452,-0.8476,-0.8509,-0.852,-0.8513,-0.852,-0.8574,-0.8598,-1.9366,-1.9366,-1.9366,-1.9366,-1.9366,-1.9366,-1.9292,-1.9158,-1.9025,-1.8778,-1.8484,-1.835,-1.8283,-1.8263,-1.7969,-1.7836,-1.7829,-1.7662,-1.7589,-1.7575,-1.7448,-1.7301,-1.7244,-1.7007,-1.6794,-1.6513,-1.6346,-1.6199,-1.6066,-1.5912,-1.5825,-1.5825,-1.5825,-1.5825,-1.5825,-1.5825,-1.5825,-1.5825,-1.5825,-1.5825,-1.5825,-1.5825,-1.5765,-1.5631,-1.5351,-1.5137,-1.4997,-1.4843,-1.4763,-1.4756,-1.4883,-1.497,-1.4997,-1.5124,-1.5204,-1.5231,-1.5357,-1.5491,-1.5618,-1.5631,-1.5691,-1.5818,-1.5979,-1.6066,-1.6072,-1.6066,-1.6066,-1.6079,-1.6333,-1.6506,-1.6513,-1.6774,-1.6947,-1.6947,-1.7081,-1.7174,-1.7181,-1.7181,-1.7181,-1.7181,-1.7181,-1.7181,-1.7181,-1.7181,-1.7181,-1.7168,-1.7068,-1.6901,-1.6747,-1.5985,-1.5398,-1.53,-1.4301,-1.3198,-1.2394,-1.1194,-1.023,-0.9496,-0.8791,-0.8515,-0.8476,-0.8486,-0.8486,-0.8482,-0.8486,-0.852,-0.8581,-0.8604,-0.8635,-0.8723,-0.873,-0.873,-0.8743,-0.8791,-0.8798,-1.9366,-1.9366,-1.9366,-1.9366,-1.9366,-1.9366,-1.9366,-1.9366,-1.9366,-1.9112,-1.8718,-1.8617,-1.8591,-1.8564,-1.8283,-1.811,-1.8016,-1.7796,-1.7649,-1.7589,-1.7589,-1.7462,-1.7268,-1.7248,-1.7094,-1.6814,-1.658,-1.644,-1.6346,-1.6072,-1.5892,-1.5838,-1.5825,-1.5825,-1.5825,-1.5825,-1.5825,-1.5825,-1.5825,-1.5825,-1.5825,-1.5825,-1.5825,-1.5812,-1.5618,-1.5498,-1.5484,-1.5277,-1.5157,-1.5157,-1.5157,-1.5264,-1.5471,-1.5491,-1.5598,-1.5798,-1.5825,-1.5825,-1.5832,-1.5892,-1.5932,-1.5932,-1.6206,-1.6373,-1.6373,-1.644,-1.6433,-1.642,-1.6633,-1.6807,-1.684,-1.7068,-1.7248,-1.7255,-1.7435,-1.7549,-1.7582,-1.7589,-1.7589,-1.7589,-1.7589,-1.7569,-1.7589,-1.7589,-1.7562,-1.7515,-1.7382,-1.7154,-1.6954,-1.6907,-1.6901,-1.6665,-1.5967,-1.4725,-1.3308,-1.1961,-1.075,-0.9245,-0.8744,-0.8666,-0.8587,-0.8598,-0.8591,-0.8608,-0.8598,-0.8648,-0.874,-0.8764,-0.8804,-0.8886,-0.8899,-0.8916,-0.891,-0.8916,-0.893,-1.9366,-1.9366,-1.9366,-1.9366,-1.9366,-1.9366,-1.9366,-1.9366,-1.9366,-1.9345,-1.9232,-1.9005,-1.8885,-1.8844,-1.8577,-1.8317,-1.8083,-1.8016,-1.7849,-1.7615,-1.7589,-1.7569,-1.7528,-1.7535,-1.7388,-1.7134,-1.7061,-1.6894,-1.666,-1.6373,-1.6092,-1.5858,-1.5825,-1.5832,-1.5825,-1.5825,-1.5825,-1.5825,-1.5825,-1.5825,-1.5825,-1.5825,-1.5825,-1.5825,-1.5805,-1.5792,-1.5765,-1.5765,-1.5745,-1.5752,-1.5732,-1.5752,-1.5778,-1.5785,-1.5798,-1.5825,-1.5832,-1.5825,-1.5852,-1.6079,-1.6233,-1.6253,-1.65,-1.6667,-1.6673,-1.6914,-1.6947,-1.6794,-1.6947,-1.7101,-1.7121,-1.7361,-1.7508,-1.7502,-1.7555,-1.7589,-1.7589,-1.7589,-1.7589,-1.7589,-1.7589,-1.7589,-1.7589,-1.7589,-1.7589,-1.7589,-1.7535,-1.7475,-1.7428,-1.7408,-1.7415,-1.7368,-1.6869,-1.5948,-1.4599,-1.3319,-1.1893,-1.0669,-0.943,-0.8838,-0.8804,-0.8855,-0.8889,-0.8808,-0.8859,-0.8866,-0.8886,-0.8916,-0.891,-0.8923,-0.8937,-0.8937,-0.8937,-0.8937,-0.8937,-1.9366,-1.9366,-1.9366,-1.9366,-1.9366,-1.9366,-1.9366,-1.9366,-1.9366,-1.9366,-1.9352,-1.9232,-1.9185,-1.9165,-1.8878,-1.8677,-1.8544,-1.8203,-1.7983,-1.7836,-1.7675,-1.7589,-1.7589,-1.7589,-1.7508,-1.7388,-1.7235,-1.7088,-1.6941,-1.6673,-1.638,-1.6119,-1.6092,-1.6005,-1.5845,-1.5825,-1.5825,-1.5825,-1.5825,-1.5825,-1.5825,-1.5825,-1.5825,-1.5825,-1.5825,-1.5825,-1.5825,-1.5825,-1.5825,-1.5825,-1.5825,-1.5825,-1.5825,-1.5825,-1.5825,-1.5838,-1.5992,-1.6172,-1.6333,-1.6466,-1.6533,-1.6526,-1.68,-1.6967,-1.6981,-1.7235,-1.7348,-1.7268,-1.7341,-1.7402,-1.7415,-1.7515,-1.7589,-1.7589,-1.7589,-1.7589,-1.7589,-1.7589,-1.7589,-1.7589,-1.7589,-1.7589,-1.7589,-1.7589,-1.7589,-1.7589,-1.7589,-1.7589,-1.7589,-1.7589,-1.7589,-1.7555,-1.7355,-1.6613,-1.5303,-1.3946,-1.2505,-1.1181,-0.9708,-0.8886,-0.891,-0.8937,-0.8937,-0.8937,-0.8937,-0.8937,-0.8927,-0.8937,-0.8937,-0.8937,-0.8937,-0.8937,-0.8937,-0.8937,-0.8937,-1.9486,-1.9479,-1.9406,-1.9366,-1.9366,-1.9366,-1.9366,-1.9366,-1.9366,-1.9366,-1.9366,-1.9366,-1.9366,-1.9332,-1.9138,-1.9011,-1.8871,-1.8484,-1.819,-1.8036,-1.7802,-1.7669,-1.7595,-1.7589,-1.7589,-1.7555,-1.7375,-1.7228,-1.7244,-1.6947,-1.668,-1.6433,-1.6393,-1.6279,-1.6092,-1.6072,-1.6025,-1.5959,-1.5952,-1.5919,-1.5845,-1.5825,-1.5825,-1.5825,-1.5825,-1.5825,-1.5825,-1.5825,-1.5825,-1.5825,-1.5825,-1.5872,-1.5945,-1.5952,-1.5985,-1.6079,-1.6266,-1.648,-1.6693,-1.678,-1.6827,-1.6854,-1.7101,-1.7268,-1.7301,-1.7462,-1.7615,-1.7695,-1.7702,-1.7689,-1.7589,-1.7589,-1.7589,-1.7589,-1.7589,-1.7589,-1.7589,-1.7589,-1.7589,-1.7589,-1.7589,-1.7589,-1.7589,-1.7589,-1.7589,-1.7589,-1.7589,-1.7589,-1.7589,-1.7589,-1.7589,-1.7589,-1.7575,-1.6916,-1.563,-1.4624,-1.3156,-1.1538,-1.012,-0.9467,-0.9047,-0.8937,-0.8937,-0.8937,-0.8937,-0.8937,-0.8937,-0.8937,-0.8937,-0.8937,-0.8937,-0.8937,-0.8937,-0.8937,-0.8937,-1.978,-1.974,-1.9492,-1.9406,-1.9379,-1.9379,-1.9379,-1.9399,-1.9372,-1.9366,-1.9366,-1.9366,-1.9366,-1.9366,-1.9325,-1.9192,-1.8951,-1.8871,-1.8571,-1.813,-1.805,-1.7869,-1.7595,-1.7589,-1.7589,-1.7589,-1.7549,-1.7415,-1.7284,-1.7134,-1.6974,-1.6707,-1.6687,-1.6673,-1.662,-1.6607,-1.652,-1.6279,-1.6246,-1.6126,-1.5899,-1.5852,-1.5872,-1.5879,-1.5832,-1.5832,-1.5845,-1.5832,-1.5838,-1.5838,-1.5865,-1.5979,-1.6219,-1.6253,-1.6366,-1.6613,-1.6673,-1.67,-1.6767,-1.6987,-1.7128,-1.7161,-1.7368,-1.7555,-1.7562,-1.7602,-1.7742,-1.8003,-1.8023,-1.7923,-1.7702,-1.7695,-1.7662,-1.7649,-1.7622,-1.7635,-1.7622,-1.7682,-1.7602,-1.7622,-1.7669,-1.7695,-1.7635,-1.7589,-1.7615,-1.7615,-1.7595,-1.7589,-1.7589,-1.7589,-1.7589,-1.7589,-1.7477,-1.7041,-1.5737,-1.5091,-1.3911,-1.2507,-1.1538,-1.0676,-0.9588,-0.8937,-0.9047,-0.8937,-0.8937,-0.8937,-0.8937,-0.8937,-0.8937,-0.8937,-0.8937,-0.8937,-0.8937,-0.8937,-0.8937,-2.0074,-2.0067,-1.996,-1.992,-1.99,-1.9726,-1.9639,-1.9633,-1.9446,-1.9366,-1.9366,-1.9366,-1.9366,-1.9366,-1.9366,-1.9312,-1.9199,-1.9018,-1.8804,-1.8591,-1.8417,-1.817,-1.7903,-1.7876,-1.7762,-1.7609,-1.7589,-1.7535,-1.7442,-1.7422,-1.7281,-1.7034,-1.6987,-1.6901,-1.674,-1.6707,-1.6647,-1.656,-1.6553,-1.6493,-1.6393,-1.6386,-1.6386,-1.6366,-1.6019,-1.5919,-1.6106,-1.6112,-1.6192,-1.638,-1.6386,-1.644,-1.6533,-1.6553,-1.668,-1.6947,-1.6987,-1.7074,-1.7241,-1.7368,-1.7428,-1.7428,-1.7515,-1.7682,-1.7836,-1.7889,-1.8003,-1.825,-1.833,-1.8263,-1.821,-1.8163,-1.8163,-1.8163,-1.8156,-1.8136,-1.817,-1.817,-1.8163,-1.8163,-1.8163,-1.817,-1.809,-1.7996,-1.7883,-1.7862,-1.7716,-1.7622,-1.7589,-1.7589,-1.7622,-1.7595,-1.7582,-1.747,-1.7041,-1.5956,-1.4877,-1.4121,-1.3259,-1.262,-1.1647,-1.0562,-1.0457,-1.0351,-0.9915,-0.9375,-0.9372,-0.8937,-0.8937,-0.8937,-0.8937,-0.8937,-0.8937,-0.8937,-0.8937,-2.0321,-2.0241,-2.0234,-2.0234,-2.0207,-2.0027,-1.9933,-1.9913,-1.9726,-1.9593,-1.9519,-1.9506,-1.9459,-1.9379,-1.9366,-1.9366,-1.9345,-1.9158,-1.9018,-1.8911,-1.8724,-1.8477,-1.8217,-1.809,-1.7943,-1.7742,-1.7622,-1.7589,-1.7589,-1.7589,-1.7482,-1.7295,-1.7288,-1.7188,-1.7014,-1.6987,-1.6954,-1.6881,-1.6847,-1.6807,-1.6727,-1.6707,-1.6707,-1.6653,-1.6313,-1.6199,-1.64,-1.6413,-1.6493,-1.6673,-1.6707,-1.6747,-1.684,-1.6934,-1.7074,-1.7261,-1.7288,-1.7368,-1.7549,-1.7589,-1.7622,-1.7722,-1.7742,-1.7862,-1.8143,-1.819,-1.8337,-1.8551,-1.8637,-1.8651,-1.8751,-1.8771,-1.8698,-1.8551,-1.8497,-1.8497,-1.8497,-1.8484,-1.8477,-1.8457,-1.845,-1.8477,-1.8477,-1.831,-1.821,-1.819,-1.7996,-1.7883,-1.7876,-1.7876,-1.7876,-1.7876,-1.7916,-1.7936,-1.7741,-1.7105,-1.5994,-1.5183,-1.473,-1.4175,-1.3527,-1.2432,-1.1878,-1.1655,-1.1109,-1.0351,-0.9699,-0.9265,-0.9047,-0.9051,-0.8937,-0.8937,-0.8937,-0.8937,-0.896,-2.0514,-2.0301,-2.0247,-2.0301,-2.0314,-2.0254,-2.0234,-2.0227,-2.0194,-2.0013,-1.9813,-1.9786,-1.9626,-1.9432,-1.9386,-1.9366,-1.9359,-1.9332,-1.9192,-1.8978,-1.8938,-1.8771,-1.849,-1.8257,-1.7975,-1.7996,-1.7736,-1.7595,-1.7589,-1.7589,-1.7569,-1.7569,-1.7549,-1.7515,-1.7555,-1.7488,-1.7402,-1.7215,-1.7154,-1.7021,-1.676,-1.678,-1.6794,-1.6774,-1.6727,-1.672,-1.6727,-1.672,-1.6734,-1.676,-1.6767,-1.6867,-1.7148,-1.7368,-1.7555,-1.7542,-1.7575,-1.7589,-1.7609,-1.7649,-1.7809,-1.7989,-1.805,-1.8176,-1.843,-1.8497,-1.8617,-1.8865,-1.8938,-1.9025,-1.9245,-1.9285,-1.9092,-1.8631,-1.8604,-1.8604,-1.8571,-1.8531,-1.8517,-1.8557,-1.8591,-1.8524,-1.8517,-1.851,-1.849,-1.8484,-1.8424,-1.837,-1.8343,-1.8343,-1.8437,-1.8437,-1.8343,-1.8263,-1.8377,-1.8333,-1.7194,-1.6168,-1.5923,-1.5468,-1.4842,-1.3967,-1.3593,-1.3252,-1.2635,-1.1873,-1.1214,-1.0676,-0.9839,-0.9735,-0.9393,-0.9102,-0.9042,-0.9069,-0.9028,-2.0915,-2.0835,-2.0835,-2.0835,-2.0808,-2.0621,-2.0535,-2.0514,-2.0334,-2.018,-2.0067,-1.9887,-1.9746,-1.9633,-1.9466,-1.9372,-1.9366,-1.9366,-1.9312,-1.9232,-1.9219,-1.9072,-1.8818,-1.8691,-1.843,-1.809,-1.7949,-1.7782,-1.7622,-1.7595,-1.7589,-1.7589,-1.7589,-1.7589,-1.7589,-1.7582,-1.7522,-1.7462,-1.7448,-1.7395,-1.7315,-1.7308,-1.7301,-1.7308,-1.7308,-1.7308,-1.7301,-1.7121,-1.7114,-1.7281,-1.7315,-1.7355,-1.7448,-1.7528,-1.7582,-1.7609,-1.7789,-1.7896,-1.7929,-1.809,-1.8223,-1.833,-1.835,-1.8497,-1.8738,-1.8791,-1.8911,-1.9172,-1.9232,-1.9292,-1.9345,-1.9366,-1.9259,-1.9112,-1.9098,-1.9058,-1.9038,-1.9065,-1.9092,-1.9098,-1.9092,-1.9092,-1.9045,-1.8945,-1.8791,-1.8771,-1.8644,-1.8531,-1.8517,-1.8557,-1.849,-1.849,-1.8497,-1.8577,-1.8631,-1.8671,-1.8033,-1.734,-1.7136,-1.6798,-1.6138,-1.5666,-1.5275,-1.4778,-1.4142,-1.3444,-1.2772,-1.2028,-1.133,-1.0715,-1.0528,-1.0152,-0.9446,-0.9215,-0.9171,-2.1102,-2.1102,-2.1102,-2.1102,-2.1089,-2.0909,-2.0842,-2.0815,-2.0635,-2.0501,-2.0374,-2.0207,-1.9993,-1.98,-1.9606,-1.9466,-1.9379,-1.9366,-1.9366,-1.9366,-1.9366,-1.9259,-1.9072,-1.8958,-1.8691,-1.8297,-1.8217,-1.805,-1.7769,-1.7749,-1.7702,-1.7609,-1.7589,-1.7589,-1.7589,-1.7589,-1.7589,-1.7589,-1.7582,-1.7589,-1.7582,-1.7589,-1.7589,-1.7582,-1.7582,-1.7589,-1.7569,-1.7402,-1.7395,-1.7549,-1.7589,-1.7589,-1.7595,-1.7689,-1.7756,-1.7809,-1.8023,-1.821,-1.8237,-1.837,-1.8551,-1.8624,-1.8651,-1.8784,-1.9018,-1.9092,-1.9192,-1.9325,-1.9359,-1.9366,-1.9366,-1.9366,-1.9366,-1.9366,-1.9345,-1.9366,-1.9366,-1.9366,-1.9352,-1.9332,-1.9339,-1.9366,-1.9312,-1.9245,-1.9092,-1.9058,-1.8931,-1.8811,-1.8818,-1.8838,-1.8811,-1.8804,-1.8885,-1.8911,-1.8858,-1.8858,-1.8851,-1.8592,-1.8348,-1.8085,-1.7656,-1.7256,-1.6857,-1.6392,-1.5869,-1.5187,-1.4393,-1.3593,-1.285,-1.2441,-1.1703,-1.0736,-0.9885,-0.9449,-0.931,-2.1102,-2.1102,-2.1102,-2.1102,-2.1102,-2.1082,-2.1069,-2.1089,-2.1069,-2.0915,-2.0728,-2.0615,-2.0334,-1.992,-1.9793,-1.9613,-1.9406,-1.9366,-1.9366,-1.9366,-1.9366,-1.9339,-1.9285,-1.9098,-1.8831,-1.8557,-1.8517,-1.8357,-1.8076,-1.8016,-1.7903,-1.7669,-1.7615,-1.7589,-1.7589,-1.7589,-1.7589,-1.7589,-1.7589,-1.7589,-1.7589,-1.7589,-1.7589,-1.7589,-1.7589,-1.7589,-1.7582,-1.7595,-1.7595,-1.7589,-1.7615,-1.7655,-1.7675,-1.7903,-1.807,-1.8083,-1.8343,-1.8484,-1.851,-1.8604,-1.8718,-1.8918,-1.8958,-1.9052,-1.9279,-1.9312,-1.9319,-1.9359,-1.9366,-1.9366,-1.9366,-1.9366,-1.9366,-1.9366,-1.9366,-1.9366,-1.9366,-1.9366,-1.9366,-1.9366,-1.9366,-1.9366,-1.9366,-1.9345,-1.9332,-1.9325,-1.9292,-1.9252,-1.9252,-1.9212,-1.9319,-1.9292,-1.9192,-1.9172,-1.9098,-1.9092,-1.9092,-1.9032,-1.8925,-1.8818,-1.8671,-1.8354,-1.8092,-1.7734,-1.7414,-1.6733,-1.6128,-1.5495,-1.4516,-1.3576,-1.2584,-1.122,-1.0465,-1.0058,-0.949,-2.1102,-2.1102,-2.1102,-2.1102,-2.1102,-2.1102,-2.1102,-2.1102,-2.1102,-2.1056,-2.0962,-2.0762,-2.0481,-2.012,-1.9893,-1.9639,-1.9439,-1.9372,-1.9366,-1.9366,-1.9366,-1.9366,-1.9366,-1.9292,-1.9092,-1.8838,-1.8798,-1.8657,-1.837,-1.819,-1.8029,-1.7923,-1.7709,-1.7602,-1.7589,-1.7595,-1.7589,-1.7589,-1.7589,-1.7589,-1.7589,-1.7589,-1.7589,-1.7589,-1.7595,-1.7602,-1.7615,-1.7802,-1.7802,-1.7622,-1.7816,-1.7923,-1.7949,-1.8203,-1.837,-1.8417,-1.8637,-1.8811,-1.8851,-1.8998,-1.9158,-1.9232,-1.9225,-1.9285,-1.9352,-1.9366,-1.9366,-1.9366,-1.9366,-1.9366,-1.9366,-1.9366,-1.9366,-1.9366,-1.9366,-1.9366,-1.9366,-1.9366,-1.9366,-1.9366,-1.9366,-1.9366,-1.9366,-1.9366,-1.9366,-1.9366,-1.9366,-1.9366,-1.9366,-1.9366,-1.9366,-1.9366,-1.9319,-1.9339,-1.9339,-1.9339,-1.9325,-1.9299,-1.9245,-1.9205,-1.9065,-1.8831,-1.8605,-1.8308,-1.8157,-1.7715,-1.7744,-1.7537,-1.6304,-1.4745,-1.3828,-1.2687,-1.1537,-1.0789,-0.994,-2.1102,-2.1102,-2.1102,-2.1102,-2.1102,-2.1102,-2.1102,-2.1102,-2.1102,-2.1102,-2.1062,-2.0949,-2.0695,-2.0401,-2.0114,-1.9826,-1.9559,-1.9419,-1.9366,-1.9366,-1.9366,-1.9366,-1.9366,-1.9366,-1.9272,-1.9132,-1.9105,-1.8945,-1.8698,-1.849,-1.8364,-1.8196,-1.7929,-1.7782,-1.7782,-1.7635,-1.7589,-1.7589,-1.7589,-1.7589,-1.7589,-1.7589,-1.7589,-1.7622,-1.7695,-1.7822,-1.7969,-1.8143,-1.809,-1.7916,-1.8056,-1.8237,-1.8257,-1.851,-1.8671,-1.8684,-1.8945,-1.9112,-1.9138,-1.9279,-1.9359,-1.9366,-1.9366,-1.9366,-1.9366,-1.9366,-1.9366,-1.9366,-1.9366,-1.9366,-1.9366,-1.9366,-1.9366,-1.9366,-1.9366,-1.9366,-1.9366,-1.9366,-1.9366,-1.9366,-1.9366,-1.9366,-1.9366,-1.9366,-1.9366,-1.9366,-1.9366,-1.9366,-1.9366,-1.9366,-1.9366,-1.9366,-1.9366,-1.9366,-1.9366,-1.9366,-1.9366,-1.9359,-1.9359,-1.9366,-1.9305,-1.9192,-1.9072,-1.8878,-1.8865,-1.8838,-1.8791,-1.8446,-1.7201,-1.5915,-1.5099,-1.3721,-1.2051,-1.1615,-1.0778,-2.1102,-2.1102,-2.1102,-2.1102,-2.1102,-2.1102,-2.1102,-2.1102,-2.1102,-2.1102,-2.1096,-2.1102,-2.0895,-2.0661,-2.0307,-2.0054,-1.9766,-1.9486,-1.9386,-1.9366,-1.9366,-1.9366,-1.9366,-1.9366,-1.9345,-1.9319,-1.9359,-1.9205,-1.8991,-1.8918,-1.8771,-1.8517,-1.8237,-1.8103,-1.8056,-1.7849,-1.7689,-1.7669,-1.7682,-1.7642,-1.7622,-1.7642,-1.7695,-1.7722,-1.7963,-1.8183,-1.837,-1.849,-1.8417,-1.8156,-1.8397,-1.8517,-1.8571,-1.8811,-1.8951,-1.8998,-1.9178,-1.9325,-1.9352,-1.9345,-1.9366,-1.9366,-1.9366,-1.9366,-1.9366,-1.9366,-1.9366,-1.9366,-1.9366,-1.9366,-1.9366,-1.9366,-1.9366,-1.9366,-1.9366,-1.9366,-1.9366,-1.9366,-1.9366,-1.9366,-1.9366,-1.9366,-1.9366,-1.9366,-1.9366,-1.9366,-1.9366,-1.9366,-1.9366,-1.9366,-1.9366,-1.9366,-1.9366,-1.9366,-1.9366,-1.9366,-1.9366,-1.9366,-1.9366,-1.9366,-1.9366,-1.9312,-1.9339,-1.9279,-1.9138,-1.9132,-1.9199,-1.8545,-1.775,-1.7032,-1.616,-1.3827,-1.1615,-1.2097,-1.1615,-2.1102,-2.1102,-2.1102,-2.1102,-2.1102,-2.1102,-2.1102,-2.1102,-2.1102,-2.1102,-2.1102,-2.1102,-2.0949,-2.0675,-2.0388,-2.0074,-1.98,-1.9526,-1.9366,-1.9366,-1.9366,-1.9366,-1.9366,-1.9366,-1.9366,-1.9366,-1.9366,-1.9325,-1.9232,-1.9052,-1.8898,-1.8804,-1.8557,-1.8397,-1.8364,-1.8283,-1.8163,-1.7996,-1.7949,-1.7829,-1.7716,-1.7842,-1.7949,-1.7976,-1.8237,-1.841,-1.8517,-1.8711,-1.8791,-1.8764,-1.8784,-1.8831,-1.8885,-1.9098,-1.9225,-1.9252,-1.9299,-1.9366,-1.9366,-1.9366,-1.9366,-1.9366,-1.9366,-1.9366,-1.9366,-1.9366,-1.9366,-1.9366,-1.9366,-1.9366,-1.9366,-1.9366,-1.9366,-1.9366,-1.9366,-1.9366,-1.9366,-1.9366,-1.9366,-1.9366,-1.9366,-1.9366,-1.9366,-1.9366,-1.9366,-1.9366,-1.9366,-1.9366,-1.9366,-1.9366,-1.9366,-1.9366,-1.9366,-1.9366,-1.9366,-1.9366,-1.9366,-1.9366,-1.9366,-1.9366,-1.9366,-1.9366,-1.9366,-1.9366,-1.9345,-1.9366,-1.9366,-1.9366,-1.8622,-1.7923,-1.6973,-1.4831,-1.3283,-1.3168,-1.2093,-2.1102,-2.1102,-2.1102,-2.1102,-2.1102,-2.1102,-2.1102,-2.1102,-2.1102,-2.1102,-2.1102,-2.1102,-2.1022,-2.0855,-2.0575,-2.0287,-1.9953,-1.9559,-1.9366,-1.9366,-1.9366,-1.9366,-1.9366,-1.9366,-1.9366,-1.9366,-1.9366,-1.9366,-1.9319,-1.9225,-1.9138,-1.9105,-1.8838,-1.8704,-1.8651,-1.8577,-1.8404,-1.829,-1.8257,-1.8163,-1.807,-1.8156,-1.835,-1.843,-1.8611,-1.8744,-1.8925,-1.9038,-1.9118,-1.9132,-1.9125,-1.9125,-1.9138,-1.9272,-1.9352,-1.9366,-1.9366,-1.9366,-1.9366,-1.9366,-1.9366,-1.9366,-1.9366,-1.9366,-1.9366,-1.9366,-1.9366,-1.9366,-1.9366,-1.9366,-1.9366,-1.9366,-1.9366,-1.9366,-1.9366,-1.9366,-1.9366,-1.9366,-1.9366,-1.9366,-1.9366,-1.9366,-1.9366,-1.9366,-1.9366,-1.9366,-1.9366,-1.9366,-1.9366,-1.9366,-1.9366,-1.9366,-1.9366,-1.9366,-1.9366,-1.9366,-1.9366,-1.9366,-1.9366,-1.9366,-1.9366,-1.9366,-1.9366,-1.9366,-1.9366,-1.9366,-1.9366,-1.9366,-1.901,-1.7812,-1.6733,-1.566,-1.4475,-1.3287,-1.1856,-2.1102,-2.1102,-2.1102,-2.1102,-2.1102,-2.1102,-2.1102,-2.1102,-2.1102,-2.1102,-2.1102,-2.1102,-2.1089,-2.1029,-2.0782,-2.0494,-2.0074,-1.9646,-1.9366,-1.9366,-1.9366,-1.9366,-1.9366,-1.9366,-1.9366,-1.9366,-1.9366,-1.9366,-1.9366,-1.9366,-1.9305,-1.9312,-1.9132,-1.9005,-1.8931,-1.8778,-1.8637,-1.8571,-1.8551,-1.849,-1.8457,-1.8504,-1.8684,-1.8911,-1.8978,-1.9085,-1.9239,-1.9312,-1.9345,-1.9366,-1.9366,-1.9366,-1.9366,-1.9366,-1.9366,-1.9366,-1.9366,-1.9366,-1.9366,-1.9366,-1.9366,-1.9366,-1.9366,-1.9366,-1.9366,-1.9366,-1.9366,-1.9366,-1.9366,-1.9366,-1.9366,-1.9366,-1.9366,-1.9366,-1.9366,-1.9366,-1.9366,-1.9366,-1.9366,-1.9366,-1.9366,-1.9366,-1.9366,-1.9366,-1.9366,-1.9366,-1.9366,-1.9366,-1.9366,-1.9366,-1.9366,-1.9366,-1.9366,-1.9366,-1.9366,-1.9366,-1.9366,-1.9366,-1.9366,-1.9366,-1.9366,-1.9366,-1.9366,-1.9366,-1.9366,-1.9366,-1.9366,-1.9366,-1.8765,-1.7566,-1.7091,-1.6615,-1.5187,-1.3287,-1.2093,-2.1102,-2.1102,-2.1102,-2.1102,-2.1102,-2.1102,-2.1102,-2.1102,-2.1102,-2.1102,-2.1102,-2.1102,-2.1102,-2.1036,-2.0808,-2.0394,-1.996,-1.9586,-1.9392,-1.9372,-1.9366,-1.9366,-1.9366,-1.9366,-1.9366,-1.9366,-1.9366,-1.9366,-1.9366,-1.9366,-1.9366,-1.9359,-1.9305,-1.9265,-1.9252,-1.9212,-1.9025,-1.8878,-1.8851,-1.8764,-1.8664,-1.8764,-1.8965,-1.9219,-1.9239,-1.9292,-1.9332,-1.9366,-1.9366,-1.9366,-1.9366,-1.9366,-1.9366,-1.9366,-1.9366,-1.9366,-1.9366,-1.9366,-1.9366,-1.9366,-1.9366,-1.9366,-1.9366,-1.9366,-1.9366,-1.9366,-1.9366,-1.9366,-1.9366,-1.9366,-1.9366,-1.9366,-1.9366,-1.9366,-1.9366,-1.9366,-1.9366,-1.9366,-1.9366,-1.9366,-1.9366,-1.9366,-1.9366,-1.9366,-1.9366,-1.9366,-1.9366,-1.9366,-1.9366,-1.9366,-1.9366,-1.9366,-1.9366,-1.9366,-1.9366,-1.9366,-1.9366,-1.9366,-1.9366,-1.9366,-1.9366,-1.9366,-1.9366,-1.9366,-1.9366,-1.9366,-1.9366,-1.9366,-1.9127,-1.8525,-1.8169,-1.7812,-1.6262,-1.4713,-1.4361,-2.1102,-2.1102,-2.1102,-2.1102,-2.1102,-2.1102,-2.1102,-2.1102,-2.1102,-2.1102,-2.1102,-2.1102,-2.1102,-2.1069,-2.0982,-2.0575,-2.0067,-1.9726,-1.9526,-1.9412,-1.9366,-1.9366,-1.9366,-1.9366,-1.9366,-1.9366,-1.9366,-1.9366,-1.9366,-1.9366,-1.9366,-1.9366,-1.9366,-1.9366,-1.9366,-1.9339,-1.9285,-1.9158,-1.9138,-1.9085,-1.8945,-1.9092,-1.9239,-1.9312,-1.9366,-1.9366,-1.9366,-1.9366,-1.9366,-1.9366,-1.9366,-1.9366,-1.9366,-1.9366,-1.9366,-1.9366,-1.9366,-1.9366,-1.9366,-1.9366,-1.9366,-1.9366,-1.9366,-1.9366,-1.9366,-1.9366,-1.9366,-1.9366,-1.9366,-1.9366,-1.9366,-1.9366,-1.9366,-1.9366,-1.9366,-1.9366,-1.9366,-1.9366,-1.9366,-1.9366,-1.9366,-1.9366,-1.9366,-1.9366,-1.9366,-1.9366,-1.9366,-1.9366,-1.9366,-1.9366,-1.9366,-1.9366,-1.9366,-1.9366,-1.9366,-1.9366,-1.9366,-1.9366,-1.9366,-1.9366,-1.9366,-1.9366,-1.9366,-1.9366,-1.9366,-1.9366,-1.9366,-1.9366,-1.9366,-1.9366,-1.9004,-1.8409,-1.7208,-1.6256,-1.5902,-2.1102,-2.1102,-2.1102,-2.1102,-2.1102,-2.1102,-2.1102,-2.1102,-2.1102,-2.1102,-2.1102,-2.1102,-2.1102,-2.1089,-2.0982,-2.0708,-2.0227,-1.992,-1.9639,-1.9412,-1.9366,-1.9366,-1.9366,-1.9366,-1.9366,-1.9366,-1.9366,-1.9366,-1.9366,-1.9366,-1.9366,-1.9366,-1.9366,-1.9366,-1.9366,-1.9366,-1.9366,-1.9366,-1.9366,-1.9366,-1.9366,-1.9366,-1.9366,-1.9366,-1.9366,-1.9366,-1.9366,-1.9366,-1.9366,-1.9366,-1.9366,-1.9366,-1.9366,-1.9366,-1.9366,-1.9366,-1.9366,-1.9366,-1.9366,-1.9366,-1.9366,-1.9366,-1.9366,-1.9366,-1.9366,-1.9366,-1.9366,-1.9366,-1.9366,-1.9366,-1.9366,-1.9366,-1.9366,-1.9366,-1.9366,-1.9366,-1.9366,-1.9366,-1.9366,-1.9366,-1.9366,-1.9366,-1.9366,-1.9366,-1.9366,-1.9366,-1.9366,-1.9366,-1.9366,-1.9366,-1.9366,-1.9366,-1.9366,-1.9366,-1.9366,-1.9366,-1.9366,-1.9366,-1.9366,-1.9366,-1.9366,-1.9366,-1.9366,-1.9366,-1.9366,-1.9366,-1.9366,-1.9366,-1.9366,-1.9366,-1.9366,-1.8765,-1.7325,-1.7091,-1.7091,-2.1102,-2.1102,-2.1102,-2.1102,-2.1102,-2.1102,-2.1102,-2.1102,-2.1102,-2.1102,-2.1102,-2.1102,-2.1102,-2.1062,-2.0862,-2.0568,-2.0234,-1.9973,-1.9679,-1.9412,-1.9366,-1.9366,-1.9366,-1.9366,-1.9366,-1.9366,-1.9366,-1.9366,-1.9366,-1.9366,-1.9366,-1.9366,-1.9366,-1.9366,-1.9366,-1.9366,-1.9366,-1.9366,-1.9366,-1.9366,-1.9366,-1.9366,-1.9366,-1.9366,-1.9366,-1.9366,-1.9366,-1.9366,-1.9366,-1.9366,-1.9366,-1.9366,-1.9366,-1.9366,-1.9366,-1.9366,-1.9366,-1.9366,-1.9366,-1.9366,-1.9366,-1.9366,-1.9366,-1.9366,-1.9366,-1.9366,-1.9366,-1.9366,-1.9366,-1.9366,-1.9366,-1.9366,-1.9366,-1.9366,-1.9366,-1.9366,-1.9366,-1.9366,-1.9366,-1.9366,-1.9366,-1.9366,-1.9366,-1.9366,-1.9366,-1.9366,-1.9366,-1.9366,-1.9366,-1.9366,-1.9366,-1.9366,-1.9366,-1.9366,-1.9366,-1.9366,-1.9366,-1.9366,-1.9366,-1.9366,-1.9366,-1.9366,-1.9366,-1.9366,-1.9366,-1.9366,-1.9366,-1.9366,-1.9366,-1.9366,-1.9366,-1.8525,-1.7319,-1.7566,-1.8169,-2.1102,-2.1102,-2.1102,-2.1102,-2.1102,-2.1102,-2.1102,-2.1102,-2.1102,-2.1102,-2.1102,-2.1102,-2.1102,-2.1069,-2.0955,-2.0668,-2.0287,-2.0087,-1.978,-1.9439,-1.9366,-1.9366,-1.9366,-1.9366,-1.9366,-1.9366,-1.9366,-1.9366,-1.9366,-1.9366,-1.9366,-1.9366,-1.9366,-1.9366,-1.9366,-1.9366,-1.9366,-1.9366,-1.9366,-1.9366,-1.9366,-1.9366,-1.9366,-1.9366,-1.9366,-1.9366,-1.9366,-1.9366,-1.9366,-1.9366,-1.9366,-1.9366,-1.9366,-1.9366,-1.9366,-1.9366,-1.9366,-1.9366,-1.9366,-1.9372,-1.9372,-1.9379,-1.9379,-1.9366,-1.9366,-1.9392,-1.9392,-1.9366,-1.9366,-1.9366,-1.9372,-1.9366,-1.9366,-1.9366,-1.9366,-1.9366,-1.9366,-1.9366,-1.9366,-1.9366,-1.9366,-1.9366,-1.9366,-1.9366,-1.9366,-1.9366,-1.9366,-1.9366,-1.9366,-1.9366,-1.9366,-1.9366,-1.9366,-1.9366,-1.9366,-1.9366,-1.9366,-1.9366,-1.9366,-1.9366,-1.9366,-1.9366,-1.9366,-1.9366,-1.9366,-1.9366,-1.9366,-1.9366,-1.9366,-1.9366,-1.9366,-1.8642,-1.804,-1.8402,-1.8887,-2.1102,-2.1102,-2.1102,-2.1102,-2.1102,-2.1102,-2.1102,-2.1102,-2.1102,-2.1102,-2.1102,-2.1102,-2.1102,-2.1102,-2.1056,-2.0775,-2.0247,-2.0234,-1.9873,-1.9539,-1.9366,-1.9366,-1.9366,-1.9366,-1.9366,-1.9366,-1.9366,-1.9366,-1.9366,-1.9366,-1.9366,-1.9366,-1.9366,-1.9366,-1.9366,-1.9366,-1.9366,-1.9366,-1.9366,-1.9366,-1.9366,-1.9366,-1.9366,-1.9366,-1.9366,-1.9366,-1.9366,-1.9366,-1.9366,-1.9366,-1.9366,-1.9366,-1.9366,-1.9366,-1.9366,-1.9366,-1.9366,-1.9426,-1.9439,-1.9446,-1.9419,-1.9472,-1.9573,-1.9666,-1.9633,-1.9579,-1.9526,-1.9526,-1.9506,-1.9459,-1.9379,-1.9366,-1.9366,-1.9366,-1.9366,-1.9366,-1.9366,-1.9366,-1.9366,-1.9366,-1.9366,-1.9366,-1.9366,-1.9366,-1.9366,-1.9366,-1.9366,-1.9366,-1.9366,-1.9366,-1.9366,-1.9366,-1.9366,-1.9366,-1.9366,-1.9366,-1.9366,-1.9366,-1.9366,-1.9366,-1.9366,-1.9366,-1.9366,-1.9366,-1.9366,-1.9366,-1.9366,-1.9366,-1.9366,-1.9366,-1.9366,-1.9366,-1.9243,-1.9366,-1.9366,-2.1102,-2.1102,-2.1102,-2.1102,-2.1102,-2.1102,-2.1102,-2.1102,-2.1102,-2.1102,-2.1102,-2.1102,-2.1102,-2.1102,-2.1056,-2.0802,-2.0254,-2.0241,-1.9893,-1.9559,-1.9366,-1.9366,-1.9366,-1.9366,-1.9366,-1.9366,-1.9366,-1.9366,-1.9366,-1.9366,-1.9366,-1.9366,-1.9366,-1.9366,-1.9366,-1.9366,-1.9366,-1.9366,-1.9366,-1.9366,-1.9366,-1.9366,-1.9366,-1.9366,-1.9366,-1.9366,-1.9366,-1.9366,-1.9366,-1.9366,-1.9366,-1.9366,-1.9366,-1.9366,-1.9372,-1.9439,-1.9446,-1.9553,-1.9673,-1.9579,-1.9553,-1.9753,-1.994,-2.0047,-2.0013,-2.0114,-2.004,-1.9766,-1.9693,-1.9573,-1.9459,-1.9366,-1.9366,-1.9366,-1.9366,-1.9366,-1.9366,-1.9366,-1.9366,-1.9366,-1.9366,-1.9366,-1.9366,-1.9366,-1.9366,-1.9366,-1.9366,-1.9366,-1.9366,-1.9366,-1.9366,-1.9366,-1.9366,-1.9366,-1.9366,-1.9366,-1.9366,-1.9366,-1.9366,-1.9366,-1.9366,-1.9366,-1.9366,-1.9366,-1.9366,-1.9366,-1.9366,-1.9366,-1.9366,-1.9366,-1.9366,-1.9366,-1.9366,-1.9366,-1.9366,-2.1102,-2.1102,-2.1102,-2.1102,-2.1102,-2.1102,-2.1102,-2.1102,-2.1102,-2.1102,-2.1102,-2.1102,-2.1102,-2.1102,-2.1089,-2.0902,-2.0514,-2.0294,-1.998,-1.9686,-1.9486,-1.9386,-1.9366,-1.9366,-1.9366,-1.9366,-1.9366,-1.9366,-1.9366,-1.9366,-1.9366,-1.9366,-1.9366,-1.9366,-1.9366,-1.9366,-1.9366,-1.9366,-1.9366,-1.9366,-1.9366,-1.9366,-1.9366,-1.9366,-1.9366,-1.9366,-1.9366,-1.9366,-1.9366,-1.9366,-1.9366,-1.9366,-1.9366,-1.9366,-1.9452,-1.9586,-1.9606,-1.9773,-1.996,-1.9833,-1.9773,-2.0,-2.0167,-2.0261,-2.0301,-2.0254,-2.0087,-1.9907,-1.982,-1.9706,-1.9439,-1.9372,-1.9366,-1.9366,-1.9366,-1.9366,-1.9366,-1.9366,-1.9366,-1.9366,-1.9366,-1.9366,-1.9366,-1.9366,-1.9366,-1.9366,-1.9366,-1.9366,-1.9366,-1.9366,-1.9366,-1.9366,-1.9366,-1.9366,-1.9366,-1.9366,-1.9366,-1.9366,-1.9366,-1.9366,-1.9366,-1.9366,-1.9366,-1.9366,-1.9366,-1.9366,-1.9366,-1.9366,-1.9366,-1.9366,-1.9366,-1.9366,-1.9366,-1.9366,-1.9366,-2.1102,-2.1102,-2.1102,-2.1102,-2.1102,-2.1102,-2.1102,-2.1102,-2.1102,-2.1102,-2.1102,-2.1102,-2.1102,-2.1102,-2.1096,-2.0949,-2.0635,-2.0361,-2.0074,-1.978,-1.9519,-1.9392,-1.9366,-1.9366,-1.9366,-1.9366,-1.9366,-1.9366,-1.9366,-1.9366,-1.9366,-1.9366,-1.9366,-1.9366,-1.9366,-1.9366,-1.9366,-1.9366,-1.9366,-1.9366,-1.9366,-1.9366,-1.9366,-1.9366,-1.9366,-1.9366,-1.9366,-1.9366,-1.9366,-1.9366,-1.9366,-1.9366,-1.9366,-1.9406,-1.9526,-1.9693,-1.9846,-1.9973,-2.0187,-2.0227,-2.0154,-2.0341,-2.0501,-2.0528,-2.0494,-2.0481,-2.0448,-2.016,-2.002,-1.9806,-1.9526,-1.9452,-1.9379,-1.9366,-1.9366,-1.9366,-1.9366,-1.9366,-1.9366,-1.9366,-1.9366,-1.9366,-1.9366,-1.9366,-1.9366,-1.9366,-1.9366,-1.9366,-1.9366,-1.9366,-1.9366,-1.9366,-1.9366,-1.9366,-1.9366,-1.9366,-1.9366,-1.9366,-1.9366,-1.9366,-1.9366,-1.9366,-1.9366,-1.9366,-1.9366,-1.9366,-1.9366,-1.9366,-1.9366,-1.9366,-1.9366,-1.9366,-1.9366,-1.9366,-1.9366,-2.1102,-2.1102,-2.1102,-2.1102,-2.1102,-2.1102,-2.1102,-2.1102,-2.1102,-2.1102,-2.1102,-2.1102,-2.1102,-2.1102,-2.1102,-2.0969,-2.0715,-2.0394,-2.01,-1.9846,-1.9526,-1.9399,-1.9366,-1.9366,-1.9366,-1.9366,-1.9366,-1.9366,-1.9366,-1.9366,-1.9366,-1.9366,-1.9366,-1.9366,-1.9366,-1.9366,-1.9366,-1.9366,-1.9366,-1.9366,-1.9366,-1.9366,-1.9366,-1.9366,-1.9366,-1.9366,-1.9366,-1.9366,-1.9366,-1.9366,-1.9366,-1.9366,-1.9366,-1.9366,-1.9526,-1.9813,-1.984,-2.0107,-2.0581,-2.0621,-2.0648,-2.0675,-2.0808,-2.0915,-2.1015,-2.1009,-2.0855,-2.0474,-2.0307,-2.006,-1.98,-1.9546,-1.9426,-1.9366,-1.9366,-1.9366,-1.9366,-1.9366,-1.9366,-1.9366,-1.9366,-1.9366,-1.9366,-1.9366,-1.9366,-1.9366,-1.9366,-1.9366,-1.9366,-1.9366,-1.9366,-1.9366,-1.9366,-1.9366,-1.9366,-1.9366,-1.9366,-1.9366,-1.9366,-1.9366,-1.9366,-1.9366,-1.9366,-1.9366,-1.9366,-1.9366,-1.9366,-1.9366,-1.9366,-1.9366,-1.9366,-1.9366,-1.9366,-1.9366,-1.9366,-2.1102,-2.1102,-2.1102,-2.1102,-2.1102,-2.1102,-2.1102,-2.1102,-2.1102,-2.1102,-2.1102,-2.1102,-2.1102,-2.1102,-2.1102,-2.1036,-2.0895,-2.0421,-2.0127,-2.004,-1.9599,-1.9419,-1.9366,-1.9366,-1.9366,-1.9366,-1.9366,-1.9366,-1.9366,-1.9366,-1.9366,-1.9366,-1.9366,-1.9366,-1.9366,-1.9366,-1.9366,-1.9366,-1.9366,-1.9366,-1.9366,-1.9366,-1.9366,-1.9366,-1.9366,-1.9366,-1.9366,-1.9366,-1.9366,-1.9366,-1.9366,-1.9366,-1.9372,-1.9379,-1.9606,-1.9953,-2.01,-2.0361,-2.0788,-2.0955,-2.0962,-2.0995,-2.1029,-2.1102,-2.1102,-2.1102,-2.0942,-2.0715,-2.0448,-2.0154,-1.9826,-1.9539,-1.9399,-1.9372,-1.9366,-1.9366,-1.9366,-1.9366,-1.9366,-1.9366,-1.9366,-1.9366,-1.9366,-1.9366,-1.9366,-1.9366,-1.9366,-1.9366,-1.9366,-1.9366,-1.9366,-1.9366,-1.9366,-1.9366,-1.9366,-1.9366,-1.9366,-1.9366,-1.9366,-1.9366,-1.9366,-1.9366,-1.9366,-1.9366,-1.9366,-1.9366,-1.9366,-1.9366,-1.9366,-1.9366,-1.9366,-1.9366,-1.9366,-1.9366,-1.9366,-2.1102,-2.1102,-2.1102,-2.1102,-2.1102,-2.1102,-2.1102,-2.1102,-2.1102,-2.1102,-2.1102,-2.1102,-2.1102,-2.1102,-2.1102,-2.1102,-2.1042,-2.0514,-2.0234,-2.0154,-1.9633,-1.9426,-1.9366,-1.9366,-1.9366,-1.9366,-1.9366,-1.9366,-1.9366,-1.9366,-1.9366,-1.9366,-1.9366,-1.9366,-1.9366,-1.9366,-1.9366,-1.9366,-1.9366,-1.9366,-1.9366,-1.9366,-1.9366,-1.9366,-1.9366,-1.9366,-1.9366,-1.9366,-1.9366,-1.9366,-1.9366,-1.9366,-1.9379,-1.9519,-1.9746,-2.0094,-2.0494,-2.0708,-2.0995,-2.1089,-2.1069,-2.1082,-2.1102,-2.1102,-2.1102,-2.1102,-2.1029,-2.0822,-2.0535,-2.0261,-1.9973,-1.9673,-1.9479,-1.9459,-1.9366,-1.9366,-1.9366,-1.9366,-1.9366,-1.9366,-1.9366,-1.9366,-1.9366,-1.9366,-1.9366,-1.9366,-1.9366,-1.9366,-1.9366,-1.9366,-1.9366,-1.9366,-1.9366,-1.9366,-1.9366,-1.9366,-1.9366,-1.9366,-1.9366,-1.9366,-1.9366,-1.9366,-1.9366,-1.9366,-1.9366,-1.9366,-1.9366,-1.9366,-1.9366,-1.9366,-1.9366,-1.9366,-1.9366,-1.9366,-1.9366,-2.1096,-2.1096,-2.1102,-2.1102,-2.1102,-2.1102,-2.1102,-2.1102,-2.1102,-2.1102,-2.1102,-2.1102,-2.1102,-2.1102,-2.1102,-2.1076,-2.0955,-2.0461,-2.0261,-2.004,-1.9599,-1.9446,-1.9366,-1.9366,-1.9366,-1.9366,-1.9366,-1.9366,-1.9366,-1.9366,-1.9366,-1.9366,-1.9366,-1.9366,-1.9366,-1.9366,-1.9366,-1.9366,-1.9366,-1.9366,-1.9366,-1.9366,-1.9366,-1.9366,-1.9366,-1.9366,-1.9366,-1.9366,-1.9366,-1.9366,-1.9366,-1.9366,-1.9452,-1.9646,-1.9927,-2.0301,-2.0782,-2.0989,-2.1089,-2.1102,-2.1102,-2.1102,-2.1102,-2.1102,-2.1102,-2.1102,-2.1062,-2.0962,-2.0748,-2.0494,-2.0227,-1.9927,-1.9633,-1.9526,-1.9386,-1.9366,-1.9366,-1.9366,-1.9366,-1.9366,-1.9366,-1.9366,-1.9366,-1.9366,-1.9366,-1.9366,-1.9366,-1.9366,-1.9366,-1.9366,-1.9366,-1.9366,-1.9366,-1.9366,-1.9366,-1.9366,-1.9366,-1.9366,-1.9366,-1.9366,-1.9366,-1.9366,-1.9366,-1.9366,-1.9366,-1.9366,-1.9366,-1.9366,-1.9366,-1.9366,-1.9366,-1.9366,-1.9366,-1.9366,-1.9366,-2.0802,-2.0822,-2.1022,-2.1102,-2.1102,-2.1102,-2.1102,-2.1102,-2.1102,-2.1102,-2.1102,-2.1102,-2.1102,-2.1102,-2.1102,-2.0989,-2.0728,-2.0421,-2.0127,-1.9846,-1.9566,-1.9426,-1.9366,-1.9366,-1.9366,-1.9366,-1.9366,-1.9366,-1.9366,-1.9366,-1.9366,-1.9366,-1.9366,-1.9366,-1.9366,-1.9366,-1.9366,-1.9366,-1.9366,-1.9366,-1.9366,-1.9366,-1.9366,-1.9366,-1.9366,-1.9366,-1.9366,-1.9366,-1.9366,-1.9366,-1.9366,-1.9366,-1.9386,-1.9653,-1.9973,-2.0521,-2.0875,-2.1102,-2.1102,-2.1096,-2.1069,-2.1042,-2.1069,-2.1102,-2.1102,-2.1089,-2.1089,-2.1015,-2.0882,-2.0628,-2.0314,-2.0013,-1.9706,-1.9486,-1.9379,-1.9366,-1.9366,-1.9366,-1.9366,-1.9366,-1.9366,-1.9366,-1.9366,-1.9366,-1.9366,-1.9366,-1.9366,-1.9366,-1.9366,-1.9366,-1.9366,-1.9366,-1.9366,-1.9366,-1.9366,-1.9366,-1.9366,-1.9366,-1.9366,-1.9366,-1.9366,-1.9366,-1.9366,-1.9366,-1.9366,-1.9366,-1.9366,-1.9366,-1.9366,-1.9366,-1.9366,-1.9366,-1.9366,-1.9366,-1.9366,-2.0501,-2.0541,-2.0815,-2.1002,-2.1096,-2.1102,-2.1102,-2.1102,-2.1102,-2.1102,-2.1102,-2.1102,-2.1102,-2.1102,-2.1089,-2.0962,-2.0668,-2.0381,-2.0094,-1.9806,-1.9506,-1.9412,-1.9366,-1.9366,-1.9366,-1.9366,-1.9366,-1.9366,-1.9366,-1.9366,-1.9366,-1.9366,-1.9366,-1.9366,-1.9366,-1.9366,-1.9366,-1.9366,-1.9366,-1.9366,-1.9366,-1.9366,-1.9366,-1.9366,-1.9366,-1.9366,-1.9366,-1.9366,-1.9366,-1.9366,-1.9366,-1.9366,-1.9412,-1.9653,-2.0067,-2.0555,-2.0788,-2.0808,-2.0755,-2.0862,-2.0842,-2.0835,-2.0875,-2.0922,-2.0982,-2.1002,-2.1062,-2.1062,-2.0909,-2.0708,-2.0381,-2.0047,-1.9733,-1.9419,-1.9392,-1.9366,-1.9366,-1.9366,-1.9366,-1.9366,-1.9366,-1.9366,-1.9366,-1.9366,-1.9366,-1.9366,-1.9366,-1.9366,-1.9366,-1.9366,-1.9366,-1.9366,-1.9366,-1.9366,-1.9366,-1.9366,-1.9366,-1.9366,-1.9366,-1.9366,-1.9366,-1.9366,-1.9366,-1.9366,-1.9366,-1.9366,-1.9366,-1.9366,-1.9366,-1.9366,-1.9366,-1.9366,-1.9366,-1.9366,-1.9366,-2.0194,-2.0227,-2.0514,-2.0775,-2.1022,-2.1029,-2.1049,-2.1082,-2.1089,-2.1102,-2.1102,-2.1102,-2.1102,-2.1102,-2.1096,-2.0895,-2.0615,-2.0321,-2.002,-1.9773,-1.9499,-1.9372,-1.9366,-1.9366,-1.9366,-1.9366,-1.9366,-1.9366,-1.9366,-1.9366,-1.9366,-1.9366,-1.9366,-1.9366,-1.9366,-1.9366,-1.9366,-1.9366,-1.9366,-1.9366,-1.9366,-1.9366,-1.9366,-1.9366,-1.9366,-1.9366,-1.9366,-1.9366,-1.9366,-1.9366,-1.9366,-1.9366,-1.9526,-1.9659,-2.0114,-2.0394,-2.0601,-2.0535,-2.0474,-2.0548,-2.0494,-2.0474,-2.0488,-2.0601,-2.0702,-2.0962,-2.1076,-2.0989,-2.0828,-2.0548,-2.0221,-2.0027,-1.9766,-1.9499,-1.9379,-1.9366,-1.9366,-1.9366,-1.9366,-1.9366,-1.9366,-1.9366,-1.9366,-1.9366,-1.9366,-1.9366,-1.9366,-1.9366,-1.9366,-1.9366,-1.9366,-1.9366,-1.9366,-1.9366,-1.9366,-1.9366,-1.9366,-1.9366,-1.9366,-1.9366,-1.9366,-1.9366,-1.9366,-1.9366,-1.9366,-1.9366,-1.9366,-1.9366,-1.9366,-1.9366,-1.9366,-1.9366,-1.9359,-1.9312,-1.9259,-1.99,-1.9933,-2.0221,-2.0381,-2.0468,-2.0688,-2.0782,-2.0802,-2.1022,-2.1082,-2.1102,-2.1096,-2.1102,-2.1102,-2.1076,-2.0835,-2.0408,-2.0227,-1.9913,-1.9633,-1.9386,-1.9372,-1.9366,-1.9366,-1.9366,-1.9366,-1.9366,-1.9366,-1.9366,-1.9366,-1.9366,-1.9366,-1.9366,-1.9366,-1.9366,-1.9366,-1.9366,-1.9366,-1.9366,-1.9366,-1.9366,-1.9366,-1.9366,-1.9366,-1.9366,-1.9366,-1.9366,-1.9366,-1.9366,-1.9366,-1.9366,-1.9479,-1.9693,-1.976,-1.9973,-2.0254,-2.0334,-2.0254,-2.0221,-2.0241,-2.0234,-2.0247,-2.0281,-2.0314,-2.0494,-2.0875,-2.1009,-2.0862,-2.0668,-2.0368,-2.0114,-1.9967,-1.98,-1.9566,-1.9366,-1.9366,-1.9366,-1.9366,-1.9366,-1.9366,-1.9366,-1.9366,-1.9366,-1.9366,-1.9366,-1.9366,-1.9366,-1.9366,-1.9366,-1.9366,-1.9366,-1.9366,-1.9366,-1.9366,-1.9366,-1.9366,-1.9366,-1.9366,-1.9366,-1.9366,-1.9366,-1.9366,-1.9366,-1.9366,-1.9366,-1.9366,-1.9366,-1.9366,-1.9366,-1.9366,-1.9292,-1.9265,-1.9178,-1.9125,-1.9065,-1.9613,-1.9646,-1.992,-2.012,-2.0247,-2.0414,-2.0474,-2.0508,-2.0655,-2.0722,-2.0782,-2.0969,-2.1096,-2.1056,-2.0982,-2.0702,-2.0247,-2.0094,-1.978,-1.9479,-1.9366,-1.9366,-1.9366,-1.9366,-1.9366,-1.9366,-1.9366,-1.9366,-1.9366,-1.9366,-1.9366,-1.9366,-1.9366,-1.9366,-1.9366,-1.9366,-1.9366,-1.9366,-1.9366,-1.9366,-1.9366,-1.9366,-1.9366,-1.9366,-1.9366,-1.9366,-1.9366,-1.9366,-1.9366,-1.9366,-1.9366,-1.9533,-1.9653,-1.9646,-1.9753,-1.9947,-2.0027,-1.998,-1.994,-1.9953,-1.9973,-1.9947,-2.0013,-2.0027,-2.0094,-2.0428,-2.0595,-2.0488,-2.0481,-2.0221,-2.0007,-1.984,-1.9679,-1.9479,-1.9392,-1.9366,-1.9366,-1.9366,-1.9366,-1.9366,-1.9366,-1.9366,-1.9366,-1.9366,-1.9366,-1.9366,-1.9366,-1.9366,-1.9366,-1.9366,-1.9366,-1.9366,-1.9366,-1.9366,-1.9366,-1.9366,-1.9366,-1.9366,-1.9366,-1.9366,-1.9366,-1.9366,-1.9366,-1.9366,-1.9366,-1.9366,-1.9366,-1.9366,-1.9366,-1.9366,-1.9252,-1.9138,-1.9032,-1.8885,-1.8704,-1.9379,-1.9406,-1.9639,-1.9887,-2.0107,-2.0167,-2.018,-2.0187,-2.0227,-2.0254,-2.0334,-2.0775,-2.0969,-2.0902,-2.0748,-2.0454,-2.0194,-1.9973,-1.9653,-1.9446,-1.9372,-1.9366,-1.9366,-1.9366,-1.9366,-1.9366,-1.9366,-1.9366,-1.9366,-1.9366,-1.9366,-1.9366,-1.9366,-1.9366,-1.9366,-1.9366,-1.9366,-1.9366,-1.9366,-1.9366,-1.9366,-1.9366,-1.9366,-1.9366,-1.9366,-1.9366,-1.9366,-1.9366,-1.9366,-1.9366,-1.9372,-1.9492,-1.9559,-1.9533,-1.9573,-1.97,-1.9746,-1.9633,-1.9546,-1.9639,-1.9573,-1.9539,-1.9666,-1.976,-1.982,-1.992,-2.0087,-2.014,-2.0134,-2.008,-1.986,-1.9706,-1.9546,-1.9446,-1.9399,-1.9366,-1.9366,-1.9366,-1.9366,-1.9366,-1.9366,-1.9366,-1.9366,-1.9366,-1.9366,-1.9366,-1.9366,-1.9366,-1.9366,-1.9366,-1.9366,-1.9366,-1.9366,-1.9366,-1.9366,-1.9366,-1.9366,-1.9366,-1.9366,-1.9366,-1.9366,-1.9366,-1.9366,-1.9366,-1.9366,-1.9366,-1.9366,-1.9366,-1.9366,-1.9319,-1.9178,-1.9005,-1.8764,-1.8591,-1.8277,-1.9366,-1.9372,-1.9432,-1.9609,-1.9573,-1.9773,-1.9887,-1.9927,-2.0127,-2.0234,-2.0221,-2.0281,-2.0401,-2.0394,-2.0361,-2.0174,-1.9973,-1.98,-1.9619,-1.9406,-1.9372,-1.9366,-1.9366,-1.9366,-1.9366,-1.9366,-1.9366,-1.9366,-1.9366,-1.9366,-1.9366,-1.9366,-1.9366,-1.9366,-1.9366,-1.9366,-1.9366,-1.9366,-1.9366,-1.9366,-1.9366,-1.9366,-1.9366,-1.9366,-1.9366,-1.9366,-1.9366,-1.9366,-1.9366,-1.9366,-1.9372,-1.9419,-1.9432,-1.9426,-1.9452,-1.9479,-1.9519,-1.9472,-1.9439,-1.9466,-1.9406,-1.9406,-1.9512,-1.9506,-1.9539,-1.9539,-1.9653,-1.9679,-1.9693,-1.9733,-1.9593,-1.9519,-1.9399,-1.9399,-1.9372,-1.9366,-1.9366,-1.9366,-1.9366,-1.9366,-1.9366,-1.9366,-1.9366,-1.9366,-1.9366,-1.9366,-1.9366,-1.9366,-1.9366,-1.9366,-1.9366,-1.9366,-1.9366,-1.9366,-1.9366,-1.9366,-1.9366,-1.9366,-1.9366,-1.9366,-1.9366,-1.9366,-1.9366,-1.9366,-1.9366,-1.9366,-1.9366,-1.9366,-1.9225,-1.9152,-1.9038,-1.8871,-1.8597,-1.8323,-1.8036]},{"header":{"parameterUnit":"m.s-1","parameterCategory":1,"la1":31.0,"la2":29.5877,"lo1":-88.7671,"lo2":-86.6584,"dy":0.0162,"dx":0.0185,"nx":115,"ny":88,"refTime":"2025-07-08T12:00:00:Z","depth":0,"parameterNumber":3,"parameterNumberName":"V-component_of_WINDS"},"data":[0.0,0.0,0.0,0.0,0.0,0.0,0.0,0.0,0.0,0.0,0.0,0.0,0.0,0.0,0.0,0.0,0.0,0.0,0.0,0.0,0.0,0.0,0.0,0.0,0.0,0.0,0.0,0.0,0.0,0.0,0.0,0.0,0.0,0.0,0.0,0.0,0.0,0.0,0.0,0.0,0.0,0.0,0.0,0.0,0.0,0.0,0.0,0.0,0.0,0.0,0.0,0.0,0.0,0.0,0.0,0.0,0.0,0.0,0.0,0.0,0.0,0.0,0.0,0.0,0.0,0.0,0.0,0.0,0.0,0.0,0.0,0.0,0.0,0.0,0.0,0.0,0.0,0.0,0.0,0.0,0.0,0.0,0.0,0.0,0.0,0.0,0.0,0.0,0.0,0.0,0.0,0.0,0.0,0.0,0.0,0.0,0.0,0.0,0.0,0.0,0.0,0.0,0.0,0.0,0.0,0.0,0.0,0.0,0.0,0.0,0.0,0.0,0.0,0.0,0.0,0.0,0.0,0.0,0.0,0.0,0.0,0.0,0.0,0.0,0.0,0.0,0.0,0.0,0.0,0.0,0.0,0.0,0.0,0.0,0.0,0.0,0.0,0.0,0.0,0.0,0.0,0.0,0.0,0.0,0.0,0.0,0.0,0.0,0.0,0.0,0.0,0.0,0.0,0.0,0.0,0.0,0.0,0.0,0.0,0.0,0.0,0.0,0.0,0.0,0.0,0.0,0.0,0.0,0.0,0.0,0.0,0.0,0.0,0.0,0.0,0.0,0.0,0.0,0.0,0.0,0.0,0.0,0.0,0.0,0.0,0.0,0.0,0.0,0.0,0.0,0.0,0.0,0.0,0.0,0.0,0.0,0.0,0.0,0.0,0.0,0.0,0.0,0.0,0.0,0.0,0.0,0.0,0.0,0.0,0.0,0.0,0.0,0.0,0.0,0.0,0.0,0.0,0.0,0.0,0.0,0.0,0.0,0.0,0.0,0.0,0.0,0.0,0.0,0.0,0.0,0.0,0.0,0.0,0.0,0.0,0.0,0.0,0.0,0.0,0.0,0.0,0.0,0.0,0.0,0.0,0.0,0.0,0.0,0.0,0.0,0.0,0.0,0.0,0.0,0.0,0.0,0.0,0.0,0.0,0.0,0.0,0.0,0.0,0.0,0.0,0.0,0.0,0.0,0.0,0.0,0.0,0.0,0.0,0.0,0.0,0.0,0.0,0.0,0.0,0.0,0.0,0.0,0.0,0.0,0.0,0.0,0.0,0.0,0.0,0.0,0.0,0.0,0.0,0.0,0.0,0.0,0.0,0.0,0.0,0.0,0.0,0.0,0.0,0.0,0.0,0.0,0.0,0.0,0.0,0.0,0.0,0.0,0.0,0.0,0.0,0.0,0.0,0.0,0.0,0.0,0.0,0.0,0.0,0.0,0.0,0.0,0.0,0.0,0.0,0.0,0.0,0.0,0.0,0.0,0.0,0.0,0.0,0.0,0.0,0.0,0.0,0.0,0.0,0.0,0.0,0.0,0.0,0.0,0.0,0.0,0.0,0.0,0.0,0.0,0.0,0.0,0.0,0.0,0.0,0.0,0.0,0.0,0.0,0.0,0.0,0.0,0.0,0.0,0.0,0.0,0.0,0.0,0.0,0.0,0.0,0.0,0.0,0.0,0.0,0.0,0.0,0.0,0.0,0.0,0.0,0.0,0.0,0.0,0.0,0.0,0.0,0.0,0.0,0.0,0.0,0.0,0.0,0.0,0.0,0.0,0.0,0.0,0.0,0.0,0.0,0.0,0.0,0.0,0.0,0.0,0.0,0.0,0.0,0.0,0.0,0.0,0.0,0.0,0.0,0.0,0.0,0.0,0.0,0.0,0.0,0.0,0.0,0.0,0.0,0.0,0.0,0.0,0.0,0.0,0.0,0.0,0.0,0.0,0.0,0.0,0.0,0.0,0.0,0.0,0.0,0.0,0.0,0.0,0.0,0.0,0.0,0.0,0.0,0.0,0.0,0.0,0.0,0.0,0.0,0.0,0.0,0.0,0.0,0.0,0.0,0.0,0.0,0.0,0.0,0.0,0.0,0.0,0.0,0.0,0.0,0.0,0.0,0.0,0.0,0.0,0.0,0.0,0.0,0.0,0.0,0.0,0.0,0.0,0.0,0.0,0.0,0.0,0.0,0.0,0.0,0.0,0.0,0.0,0.0,0.0,0.0,0.0,0.0,0.0,0.0,0.0,0.0,0.0,0.0,0.0,0.0,0.0,0.0,0.0,0.0,0.0,0.0,0.0,0.0,0.0,0.0,0.0,0.0,0.0,0.0,0.0,0.0,0.0,0.0,0.0,0.0,0.0,0.0,0.0,0.0,0.0,0.0,0.0,0.0,0.0,0.0,0.0,0.0,0.0,0.0,0.0,0.0,0.0,0.0,0.0,0.0,0.0,0.0,0.0,0.0,0.0,0.0,0.0,0.0,0.0,0.0,0.0,0.0,0.0,0.0,0.0,0.0,0.0,0.0,0.0,0.0,0.0,0.0,0.0,0.0,0.0,0.0,0.0,0.0,0.0,0.0,0.0,0.0,0.0,0.0,0.0,0.0,0.0,0.0,0.0,0.0,0.0,0.0,0.0,0.0,0.0,0.0,0.0,0.0,0.0,0.0,0.0,0.0,0.0,0.0,0.0,0.0,0.0,0.0,0.0,0.0,0.0,0.0,0.0,0.0,0.0,0.0,0.0,0.0,0.0,0.0,0.0,0.0,0.0,0.0,0.0,0.0,0.0,0.0,0.0,0.0,0.0,0.0,0.0,0.0,0.0,0.0,0.0,0.0,0.0,0.0,0.0,0.0,0.0,0.0,0.0,0.0,0.0,0.0,0.0,0.0,0.0,0.0,0.0,0.0,0.0,0.0,0.0,0.0,0.0,0.0,0.0,0.0,0.0,0.0,0.0,0.0,0.0,0.0,0.0,0.0,0.0,0.0,0.0,0.0,0.0,0.0,0.0,0.0,0.0,0.0,0.0,0.0,0.0,0.0,0.0,0.0,0.0,0.0,0.0,0.0,0.0,0.0,0.0,0.0,0.0,0.0,0.0,0.0,0.0,0.0,0.0,0.0,0.0,0.0,0.0,0.0,0.0,0.0,0.0,0.0,0.0,0.0,0.0,0.0,0.0,0.0,0.0,0.0,0.0,0.0,0.0,0.0,0.0,0.0,0.0,0.0,0.0,0.0,0.0,0.0,0.0,0.0,0.0,0.0,0.0,0.0,0.0,0.0,0.0,0.0,0.0,0.0,0.0,0.0,0.0,0.0,0.0,0.0,0.0,0.0,0.0,0.0,0.0,0.0,0.0,0.0,0.0,0.0,0.0,0.0,0.0,0.0,0.0,0.0,0.0,0.0,0.0,0.0,0.0,0.0,0.0,0.0,0.0,0.0,0.0,0.0,0.0,0.0,0.0,0.0,0.0,0.0,0.0,0.0,0.0,0.0,0.0,0.0,0.0,0.0,0.0,0.0,0.0,0.0,0.0,0.0,0.0,0.0,0.0,0.0,0.0,0.0,0.0,0.0,0.0,0.0,0.0,0.0,0.0,0.0,0.0,0.0,0.0,0.0,0.0,0.0,0.0,0.0,0.0,0.0,0.0,0.0,0.0,0.0,0.0,0.0,0.0,0.0,0.0,0.0,0.0,0.0,0.0,0.0,0.0,0.0,0.0,0.0,0.0,0.0,0.0,0.0,0.0,0.0,0.0,0.0,0.0,0.0,0.0,0.0,0.0,0.0,0.0,0.0,0.0,0.0,0.0,0.0,0.0,0.0,0.0,0.0,0.0,0.0,0.0,0.0,0.0,0.0,0.0,0.0,0.0,0.0,0.0,0.0,0.0,0.0,0.0,0.0,0.0,0.0,0.0,0.0,0.0,0.0,0.0,0.0,0.0,0.0,0.0,0.0,0.0,0.0,0.0,0.0,0.0,0.0,0.0,0.0,0.0,0.0,0.0,0.0,0.0,0.0,0.0,0.0,0.0,0.0,0.0,0.0,0.0,0.0,0.0,0.0,0.0,0.0,0.0,0.0,0.0,0.0,0.0,0.0,0.0,0.0,0.0,0.0,0.0,0.0,0.0,0.0,0.0,0.0,0.0,0.0,0.0,0.0,0.0,0.0,0.0,0.0,0.0,0.0,0.0,0.0,0.0,0.0,0.0,0.0,0.0,0.0,0.0,0.0,0.0,0.0,0.0,0.0,0.0,0.0,0.0,0.0,0.0,0.0,0.0,0.0,0.0,-0.8652,0.0,0.0,0.0,0.0,0.0,0.0,0.0,0.0,0.0,0.0,0.0,0.0,0.0,0.0,0.0,0.0,0.0,0.0,0.0,0.0,0.0,0.0,0.0,0.0,0.0,0.0,0.0,0.0,0.0,0.0,0.0,0.0,0.0,0.0,0.0,0.0,0.0,0.0,0.0,0.0,0.0,0.0,0.0,0.0,0.0,0.0,0.0,0.0,0.0,0.0,0.0,0.0,0.0,0.0,0.0,0.0,0.0,0.0,0.0,0.0,0.0,0.0,0.0,0.0,0.0,0.0,0.0,0.0,0.0,0.0,0.0,0.0,0.0,0.0,0.0,0.0,0.0,0.0,0.0,0.0,0.0,0.0,0.0,0.0,0.0,0.0,0.0,0.0,0.0,0.0,0.0,0.0,0.0,0.0,0.0,0.0,0.0,0.0,0.0,0.0,0.0,0.0,0.0,0.0,0.0,0.0,0.0,0.0,0.0,0.0,-0.8936,-0.8818,-0.8806,-0.8806,-0.8806,0.0,0.0,0.0,0.0,0.0,0.0,0.0,0.0,0.0,0.0,0.0,0.0,0.0,0.0,0.0,0.0,0.0,0.0,0.0,0.0,0.0,0.0,0.0,0.0,0.0,0.0,0.0,0.0,0.0,0.0,0.0,0.0,0.0,0.0,0.0,0.0,0.0,0.0,0.0,0.0,0.0,0.0,0.0,0.0,0.0,0.0,0.0,0.0,0.0,0.0,0.0,0.0,0.0,0.0,0.0,0.0,0.0,0.0,0.0,0.0,0.0,0.0,0.0,0.0,0.0,0.0,0.0,0.0,0.0,0.0,0.0,0.0,0.0,0.0,0.0,0.0,0.0,0.0,0.0,0.0,0.0,0.0,0.0,0.0,0.0,0.0,0.0,0.0,0.0,0.0,0.0,0.0,0.0,0.0,0.0,0.0,0.0,0.0,0.0,0.0,0.0,0.0,0.0,0.0,0.0,0.0,0.0,0.0,0.0,0.0,0.0,0.0,-0.967,-0.967,-0.967,0.0,0.0,0.0,0.0,0.0,0.0,0.0,0.0,0.0,0.0,0.0,0.0,0.0,0.0,0.0,0.0,0.0,0.0,0.0,0.0,0.0,0.0,0.0,0.0,0.0,0.0,0.0,0.0,0.0,0.0,0.0,0.0,0.0,0.0,0.0,0.0,0.0,0.0,0.0,0.0,0.0,0.0,0.0,0.0,0.0,0.0,0.0,0.0,0.0,0.0,0.0,0.0,0.0,0.0,0.0,0.0,0.0,0.0,0.0,0.0,0.0,0.0,0.0,0.0,0.0,0.0,0.0,0.0,0.0,0.0,0.0,0.0,0.0,0.0,0.0,0.0,0.0,0.0,0.0,0.0,0.0,0.0,0.0,0.0,0.0,0.0,0.0,0.0,0.0,0.0,0.0,0.0,0.0,0.0,0.0,0.0,0.0,0.0,0.0,0.0,0.0,0.0,0.0,0.0,0.0,0.0,0.0,0.0,0.0,0.0,-1.0007,-1.1908,-1.1975,0.0,-1.1992,0.0,0.0,0.0,0.0,0.0,0.0,0.0,0.0,0.0,0.0,0.0,0.0,0.0,0.0,0.0,0.0,0.0,0.0,0.0,0.0,0.0,0.0,0.0,0.0,0.0,0.0,0.0,0.0,0.0,0.0,0.0,0.0,0.0,0.0,0.0,0.0,0.0,0.0,0.0,0.0,0.0,0.0,0.0,0.0,0.0,0.0,0.0,0.0,0.0,0.0,0.0,0.0,0.0,0.0,0.0,0.0,0.0,0.0,0.0,0.0,0.0,0.0,0.0,0.0,0.0,0.0,0.0,0.0,0.0,0.0,0.0,0.0,0.0,0.0,0.0,0.0,0.0,0.0,0.0,0.0,0.0,0.0,0.0,0.0,0.0,0.0,0.0,0.0,0.0,0.0,0.0,0.0,0.0,0.0,0.0,0.0,0.0,0.0,0.0,0.0,0.0,0.0,0.0,0.0,0.0,0.0,0.0,0.0,0.0,0.0,0.0,-1.228,-1.2297,-1.2297,0.0,0.0,0.0,0.0,0.0,0.0,0.0,0.0,0.0,0.0,0.0,0.0,0.0,0.0,0.0,0.0,0.0,0.0,0.0,0.0,0.0,0.0,0.0,0.0,0.0,0.0,0.0,0.0,0.0,0.0,0.0,0.0,0.0,0.0,0.0,0.0,0.0,0.0,0.0,0.0,0.0,0.0,0.0,0.0,0.0,0.0,0.0,0.0,0.0,0.0,0.0,0.0,0.0,0.0,0.0,0.0,0.0,0.0,0.0,0.0,0.0,0.0,0.0,0.0,0.0,0.0,0.0,0.0,0.0,0.0,0.0,0.0,0.0,0.0,0.0,0.0,0.0,0.0,0.0,0.0,0.0,0.0,0.0,0.0,0.0,0.0,0.0,0.0,0.0,0.0,0.0,0.0,0.0,0.0,0.0,0.0,0.0,0.0,0.0,0.0,0.0,0.0,0.0,0.0,0.0,0.0,0.0,0.0,0.0,0.0,-1.1843,0.0,-1.3176,-1.3193,-1.2923,-1.2331,0.0,0.0,0.0,0.0,0.0,0.0,0.0,0.0,0.0,0.0,0.0,0.0,0.0,0.0,0.0,0.0,0.0,0.0,0.0,0.0,0.0,0.0,0.0,0.0,0.0,0.0,0.0,0.0,0.0,0.0,0.0,0.0,0.0,0.0,0.0,0.0,0.0,0.0,0.0,0.0,0.0,0.0,0.0,0.0,0.0,0.0,0.0,0.0,0.0,0.0,0.0,0.0,0.0,0.0,0.0,0.0,0.0,0.0,0.0,0.0,0.0,0.0,0.0,0.0,0.0,0.0,0.0,0.0,0.0,0.0,0.0,0.0,0.0,0.0,0.0,0.0,0.0,0.0,0.0,0.0,0.0,0.0,0.0,0.0,0.0,0.0,0.0,0.0,0.0,0.0,0.0,0.0,0.0,0.0,0.0,0.0,0.0,0.0,0.0,0.0,0.0,0.0,0.0,0.0,0.0,0.0,0.0,0.0,0.0,-1.3378,-1.3312,-1.5375,-1.5443,-1.4462,0.0,0.0,0.0,0.0,0.0,0.0,0.0,0.0,0.0,0.0,0.0,0.0,0.0,0.0,0.0,0.0,0.0,0.0,0.0,0.0,0.0,0.0,0.0,0.0,0.0,0.0,0.0,0.0,0.0,0.0,0.0,0.0,0.0,0.0,0.0,0.0,0.0,0.0,0.0,0.0,0.0,0.0,0.0,0.0,0.0,0.0,0.0,0.0,0.0,0.0,0.0,0.0,0.0,0.0,0.0,0.0,0.0,0.0,0.0,0.0,0.0,0.0,0.0,0.0,0.0,0.0,0.0,0.0,0.0,0.0,0.0,0.0,0.0,0.0,0.0,0.0,0.0,0.0,0.0,0.0,0.0,0.0,0.0,0.0,0.0,0.0,0.0,0.0,0.0,0.0,0.0,0.0,0.0,0.0,0.0,0.0,0.0,0.0,0.0,0.0,0.0,0.0,0.0,0.0,0.0,0.0,0.0,0.0,0.0,-1.1563,-1.2095,-1.4076,-1.7439,-1.4986,-1.3785,0.0,0.0,0.0,0.0,0.0,0.0,0.0,0.0,0.0,0.0,0.0,0.0,0.0,0.0,0.0,0.0,0.0,0.0,0.0,0.0,0.0,0.0,0.0,0.0,0.0,0.0,0.0,0.0,0.0,0.0,0.0,0.0,0.0,0.0,0.0,0.0,0.0,0.0,0.0,0.0,0.0,0.0,0.0,0.0,0.0,0.0,0.0,0.0,0.0,0.0,0.0,0.0,0.0,0.0,0.0,0.0,0.0,0.0,0.0,0.0,0.0,0.0,0.0,0.0,0.0,0.0,0.0,0.0,0.0,0.0,0.0,0.0,0.0,0.0,0.0,0.0,0.0,0.0,0.0,0.0,0.0,0.0,0.0,0.0,0.0,0.0,0.0,0.0,0.0,0.0,0.0,0.0,0.0,0.0,0.0,0.0,0.0,0.0,0.0,0.0,0.0,0.0,0.0,0.0,0.0,0.0,0.0,0.0,0.0,-1.1571,0.0,-1.5852,0.0,-1.5103,-1.3512,0.0,0.0,0.0,0.0,0.0,0.0,0.0,0.0,0.0,0.0,0.0,0.0,0.0,0.0,0.0,0.0,0.0,0.0,0.0,0.0,0.0,0.0,0.0,0.0,0.0,0.0,0.0,0.0,0.0,0.0,0.0,0.0,0.0,0.0,0.0,0.0,0.0,0.0,0.0,0.0,0.0,0.0,0.0,0.0,0.0,0.0,0.0,0.0,0.0,0.0,0.0,0.0,0.0,0.0,0.0,0.0,0.0,0.0,0.0,0.0,0.0,0.0,0.0,0.0,0.0,0.0,0.0,0.0,0.0,0.0,0.0,0.0,0.0,0.0,0.0,0.0,0.0,0.0,0.0,0.0,0.0,0.0,0.0,0.0,0.0,0.0,0.0,0.0,0.0,0.0,0.0,0.0,0.0,0.0,0.0,0.0,0.0,0.0,0.0,0.0,0.0,0.0,0.0,0.0,0.0,0.0,0.0,0.0,0.0,-1.6018,-1.8395,-1.8446,-1.6256,-1.6011,-1.382,0.0,0.0,0.0,0.0,0.0,0.0,0.0,0.0,0.0,0.0,0.0,0.0,0.0,0.0,0.0,0.0,0.0,0.0,0.0,0.0,0.0,0.0,0.0,0.0,0.0,0.0,0.0,0.0,0.0,0.0,0.0,0.0,0.0,0.0,0.0,0.0,0.0,0.0,0.0,0.0,0.0,0.0,0.0,0.0,0.0,0.0,0.0,0.0,0.0,0.0,0.0,0.0,0.0,0.0,0.0,0.0,0.0,0.0,0.0,0.0,0.0,0.0,0.0,0.0,0.0,0.0,0.0,0.0,0.0,0.0,0.0,0.0,0.0,0.0,0.0,0.0,0.0,0.0,0.0,0.0,0.0,0.0,0.0,0.0,0.0,0.0,0.0,0.0,0.0,0.0,0.0,0.0,0.0,0.0,0.0,0.0,0.0,0.0,0.0,0.0,0.0,0.0,0.0,0.0,0.0,0.0,0.0,0.0,0.0,-1.4126,-1.6442,-1.7914,-1.8261,-1.5363,-1.3746,0.0,0.0,0.0,0.0,0.0,0.0,0.0,0.0,0.0,0.0,0.0,0.0,0.0,0.0,0.0,0.0,0.0,0.0,0.0,0.0,0.0,0.0,0.0,0.0,0.0,0.0,0.0,0.0,0.0,0.0,0.0,0.0,0.0,0.0,0.0,0.0,0.0,0.0,0.0,0.0,0.0,0.0,0.0,0.0,0.0,0.0,0.0,0.0,0.0,0.0,0.0,0.0,0.0,0.0,0.0,0.0,0.0,0.0,0.0,0.0,0.0,0.0,0.0,0.0,0.0,0.0,0.0,0.0,0.0,0.0,0.0,0.0,0.0,0.0,0.0,0.0,0.0,0.0,0.0,0.0,0.0,0.0,0.0,0.0,0.0,0.0,0.0,0.0,0.0,0.0,0.0,0.0,0.0,0.0,0.0,0.0,0.0,0.0,0.0,0.0,0.0,0.0,0.0,0.0,0.0,0.0,0.0,0.0,0.0,-1.5986,-1.812,-1.9381,-1.9594,-1.6271,-1.4642,-1.4882,0.0,0.0,0.0,0.0,0.0,0.0,0.0,0.0,0.0,0.0,0.0,0.0,0.0,0.0,0.0,0.0,0.0,0.0,0.0,0.0,0.0,0.0,0.0,0.0,0.0,0.0,0.0,0.0,0.0,0.0,0.0,0.0,0.0,0.0,0.0,0.0,0.0,0.0,0.0,0.0,0.0,0.0,0.0,0.0,0.0,0.0,0.0,0.0,0.0,0.0,0.0,0.0,0.0,0.0,0.0,0.0,0.0,0.0,0.0,0.0,0.0,0.0,0.0,0.0,0.0,0.0,0.0,0.0,0.0,0.0,0.0,0.0,0.0,0.0,0.0,0.0,0.0,0.0,0.0,0.0,0.0,0.0,0.0,0.0,0.0,0.0,0.0,0.0,0.0,0.0,0.0,0.0,0.0,0.0,0.0,0.0,0.0,0.0,0.0,0.0,0.0,0.0,0.0,0.0,0.0,0.0,0.0,0.0,-2.0539,-2.2658,-2.2602,-2.0287,-1.8556,-1.6445,0.0,0.0,0.0,0.0,0.0,0.0,0.0,0.0,0.0,0.0,0.0,0.0,0.0,0.0,0.0,0.0,0.0,0.0,0.0,0.0,0.0,0.0,0.0,0.0,0.0,0.0,0.0,0.0,0.0,0.0,0.0,0.0,0.0,0.0,0.0,0.0,0.0,0.0,0.0,0.0,0.0,0.0,0.0,0.0,0.0,0.0,0.0,0.0,0.0,0.0,0.0,0.0,0.0,0.0,0.0,0.0,0.0,0.0,0.0,0.0,0.0,0.0,0.0,0.0,0.0,0.0,0.0,0.0,0.0,0.0,0.0,0.0,0.0,0.0,0.0,0.0,0.0,0.0,0.0,0.0,0.0,0.0,0.0,0.0,0.0,0.0,0.0,0.0,0.0,0.0,0.0,0.0,0.0,0.0,0.0,0.0,0.0,0.0,0.0,0.0,0.0,0.0,0.0,0.0,0.0,0.0,0.0,0.0,0.0,-2.1418,-2.3513,-2.4266,-2.3556,-2.1023,-1.8677,0.0,0.0,0.0,0.0,0.0,0.0,0.0,0.0,0.0,0.0,0.0,0.0,0.0,0.0,0.0,0.0,0.0,0.0,0.0,0.0,0.0,0.0,0.0,0.0,0.0,0.0,0.0,0.0,0.0,0.0,0.0,0.0,0.0,0.0,0.0,0.0,0.0,0.0,0.0,0.0,0.0,0.0,0.0,0.0,0.0,0.0,0.0,0.0,0.0,0.0,0.0,0.0,0.0,0.0,0.0,0.0,0.0,0.0,0.0,0.0,0.0,0.0,0.0,0.0,0.0,0.0,0.0,0.0,0.0,0.0,0.0,0.0,0.0,0.0,0.0,0.0,0.0,0.0,0.0,0.0,0.0,0.0,0.0,0.0,0.0,0.0,0.0,0.0,0.0,0.0,0.0,0.0,0.0,0.0,0.0,0.0,0.0,0.0,0.0,0.0,0.0,0.0,0.0,0.0,0.0,0.0,0.0,0.0,-2.0482,-2.3272,-2.5147,-2.6118,-2.6118,-2.3331,-2.0662,0.0,0.0,0.0,0.0,0.0,0.0,0.0,0.0,0.0,0.0,0.0,0.0,0.0,0.0,0.0,0.0,0.0,0.0,0.0,0.0,0.0,0.0,0.0,0.0,0.0,0.0,0.0,0.0,0.0,0.0,0.0,0.0,0.0,0.0,0.0,0.0,0.0,0.0,0.0,0.0,0.0,0.0,0.0,0.0,0.0,0.0,0.0,0.0,0.0,0.0,0.0,0.0,0.0,0.0,0.0,0.0,0.0,0.0,0.0,0.0,0.0,0.0,0.0,0.0,0.0,0.0,0.0,0.0,0.0,0.0,0.0,0.0,0.0,0.0,0.0,0.0,0.0,0.0,0.0,0.0,0.0,0.0,0.0,0.0,0.0,0.0,0.0,0.0,0.0,0.0,0.0,0.0,0.0,0.0,0.0,0.0,0.0,0.0,0.0,0.0,0.0,0.0,0.0,0.0,0.0,0.0,0.0,0.0,-2.2281,-2.5329,-2.6982,-2.7787,-2.7732,-2.5245,-2.2413,0.0,0.0,0.0,0.0,0.0,0.0,0.0,0.0,0.0,0.0,0.0,0.0,0.0,0.0,0.0,0.0,0.0,0.0,0.0,0.0,0.0,0.0,0.0,0.0,0.0,0.0,0.0,0.0,0.0,0.0,0.0,0.0,0.0,0.0,0.0,0.0,0.0,0.0,0.0,0.0,0.0,0.0,0.0,0.0,0.0,0.0,0.0,0.0,0.0,0.0,0.0,0.0,0.0,0.0,0.0,0.0,0.0,0.0,0.0,0.0,0.0,0.0,0.0,0.0,0.0,0.0,0.0,0.0,0.0,0.0,0.0,0.0,0.0,0.0,0.0,0.0,0.0,0.0,0.0,0.0,0.0,0.0,0.0,0.0,0.0,0.0,0.0,0.0,0.0,0.0,0.0,0.0,0.0,0.0,0.0,0.0,0.0,0.0,0.0,0.0,0.0,0.0,0.0,0.0,0.0,0.0,0.0,0.0,-2.3419,-2.5366,-2.6961,-2.7805,-2.7805,-2.6002,-2.3819,0.0,0.0,0.0,0.0,0.0,0.0,0.0,0.0,0.0,0.0,0.0,0.0,0.0,0.0,0.0,0.0,0.0,0.0,0.0,0.0,0.0,0.0,0.0,0.0,0.0,0.0,0.0,0.0,0.0,0.0,0.0,0.0,0.0,0.0,0.0,0.0,0.0,0.0,0.0,0.0,0.0,0.0,0.0,0.0,0.0,0.0,0.0,0.0,-1.2383,0.0,0.0,0.0,0.0,0.0,0.0,0.0,0.0,0.0,0.0,0.0,0.0,0.0,0.0,0.0,0.0,0.0,0.0,0.0,0.0,0.0,0.0,0.0,0.0,0.0,0.0,0.0,0.0,0.0,0.0,0.0,0.0,0.0,0.0,0.0,0.0,0.0,0.0,0.0,0.0,0.0,0.0,0.0,0.0,0.0,0.0,0.0,0.0,0.0,0.0,0.0,0.0,0.0,0.0,0.0,0.0,0.0,0.0,0.0,-2.4905,-2.6505,-2.7714,-2.8374,-2.8319,-2.6814,-2.4649,0.0,0.0,0.0,0.0,0.0,0.0,0.0,0.0,0.0,0.0,0.0,0.0,0.0,0.0,0.0,0.0,0.0,0.0,0.0,0.0,0.0,0.0,0.0,0.0,0.0,0.0,0.0,0.0,0.0,0.0,0.0,0.0,0.0,0.0,0.0,0.0,0.0,0.0,0.0,0.0,0.0,0.0,0.0,0.0,0.0,0.0,0.0,0.0,0.0,0.0,0.0,0.0,0.0,0.0,0.0,0.0,0.0,0.0,0.0,0.0,0.0,0.0,0.0,0.0,0.0,0.0,0.0,0.0,0.0,0.0,0.0,0.0,0.0,0.0,0.0,0.0,0.0,0.0,0.0,0.0,0.0,0.0,0.0,0.0,0.0,0.0,0.0,0.0,0.0,0.0,0.0,0.0,0.0,0.0,0.0,0.0,0.0,0.0,0.0,0.0,0.0,0.0,0.0,0.0,0.0,0.0,0.0,-2.3473,-2.6043,-2.7732,-2.8594,-2.8975,-2.8975,-2.7457,-2.5217,-2.228,0.0,0.0,0.0,0.0,0.0,0.0,0.0,0.0,0.0,0.0,0.0,0.0,0.0,0.0,0.0,0.0,0.0,0.0,0.0,0.0,0.0,0.0,0.0,0.0,0.0,0.0,0.0,0.0,0.0,0.0,0.0,0.0,0.0,0.0,0.0,0.0,0.0,0.0,-1.2377,-1.4431,0.0,0.0,0.0,0.0,0.0,0.0,0.0,0.0,-1.508,0.0,0.0,0.0,0.0,0.0,0.0,0.0,0.0,0.0,0.0,0.0,0.0,0.0,0.0,0.0,0.0,0.0,0.0,0.0,0.0,0.0,0.0,0.0,0.0,0.0,0.0,0.0,0.0,0.0,0.0,0.0,0.0,0.0,0.0,0.0,0.0,0.0,0.0,0.0,0.0,0.0,0.0,0.0,0.0,0.0,0.0,0.0,0.0,0.0,0.0,0.0,0.0,0.0,0.0,0.0,0.0,-2.2684,-2.384,-2.5511,-2.7732,-2.8594,-2.8975,-2.8938,-2.7438,-2.5713,-2.3768,0.0,0.0,0.0,0.0,0.0,0.0,0.0,0.0,0.0,0.0,0.0,0.0,0.0,0.0,0.0,0.0,0.0,0.0,0.0,0.0,0.0,0.0,0.0,0.0,0.0,0.0,0.0,0.0,0.0,0.0,0.0,0.0,0.0,0.0,0.0,0.0,0.0,0.0,0.0,-1.8082,-1.9413,0.0,0.0,0.0,0.0,0.0,0.0,0.0,0.0,-1.5839,0.0,0.0,0.0,0.0,0.0,0.0,0.0,0.0,0.0,0.0,0.0,0.0,0.0,0.0,0.0,0.0,0.0,0.0,0.0,0.0,0.0,0.0,0.0,0.0,0.0,0.0,0.0,0.0,0.0,0.0,0.0,0.0,0.0,0.0,0.0,0.0,0.0,0.0,0.0,0.0,0.0,0.0,0.0,0.0,0.0,0.0,0.0,0.0,0.0,0.0,0.0,0.0,0.0,0.0,0.0,-2.2543,-2.4506,-2.641,-2.8356,-2.8792,-2.8975,-2.8938,-2.7034,-2.5419,0.0,0.0,0.0,0.0,0.0,0.0,0.0,0.0,0.0,0.0,0.0,0.0,0.0,0.0,0.0,0.0,0.0,0.0,0.0,0.0,0.0,0.0,0.0,0.0,0.0,0.0,0.0,0.0,0.0,0.0,0.0,0.0,0.0,0.0,0.0,0.0,0.0,0.0,0.0,0.0,-1.8886,-2.0042,-2.0519,0.0,0.0,0.0,0.0,0.0,0.0,-1.8243,-1.7069,0.0,0.0,0.0,0.0,0.0,0.0,0.0,0.0,0.0,0.0,0.0,0.0,0.0,0.0,0.0,0.0,0.0,0.0,0.0,0.0,0.0,0.0,0.0,0.0,0.0,0.0,0.0,0.0,0.0,0.0,0.0,0.0,0.0,0.0,0.0,0.0,0.0,0.0,0.0,0.0,0.0,0.0,0.0,0.0,0.0,0.0,0.0,0.0,0.0,0.0,0.0,0.0,0.0,0.0,0.0,-2.2006,-2.4727,-2.7145,-2.9145,-2.9067,-2.9085,-2.9177,-2.6906,-2.5201,0.0,0.0,0.0,0.0,0.0,0.0,0.0,0.0,0.0,0.0,0.0,0.0,0.0,0.0,0.0,0.0,0.0,0.0,0.0,0.0,0.0,0.0,0.0,0.0,0.0,0.0,0.0,0.0,0.0,0.0,0.0,0.0,0.0,0.0,0.0,0.0,0.0,0.0,0.0,0.0,0.0,-2.0694,-2.1637,-2.0678,0.0,0.0,0.0,0.0,-2.0813,-2.0044,0.0,0.0,0.0,0.0,0.0,0.0,0.0,0.0,0.0,0.0,0.0,0.0,0.0,0.0,0.0,0.0,0.0,0.0,0.0,0.0,0.0,0.0,0.0,0.0,0.0,0.0,0.0,0.0,0.0,0.0,0.0,0.0,0.0,0.0,0.0,0.0,0.0,0.0,0.0,0.0,0.0,0.0,0.0,0.0,0.0,0.0,0.0,0.0,0.0,0.0,0.0,0.0,0.0,0.0,0.0,0.0,-2.1776,-2.3621,-2.6282,-2.9824,-2.9384,-2.9324,-3.0008,-2.7714,-2.575,0.0,0.0,0.0,0.0,0.0,0.0,0.0,0.0,0.0,0.0,0.0,0.0,0.0,0.0,0.0,0.0,0.0,0.0,0.0,0.0,0.0,0.0,0.0,0.0,0.0,0.0,0.0,0.0,0.0,0.0,0.0,0.0,0.0,0.0,0.0,0.0,0.0,0.0,0.0,0.0,0.0,-2.339,-2.1985,-2.1745,-2.1677,0.0,0.0,0.0,-2.2739,-2.3144,0.0,0.0,0.0,0.0,0.0,0.0,0.0,0.0,0.0,0.0,0.0,0.0,0.0,0.0,0.0,0.0,0.0,0.0,0.0,0.0,0.0,0.0,0.0,0.0,0.0,0.0,0.0,0.0,0.0,0.0,0.0,0.0,0.0,0.0,0.0,0.0,0.0,0.0,0.0,0.0,0.0,0.0,0.0,0.0,0.0,0.0,0.0,0.0,0.0,0.0,0.0,0.0,0.0,0.0,0.0,-1.7962,-2.1943,-2.4801,-2.753,-3.0099,-3.032,-3.032,-3.021,-2.786,-2.5841,0.0,0.0,0.0,0.0,0.0,0.0,0.0,0.0,0.0,0.0,0.0,0.0,0.0,0.0,0.0,0.0,0.0,0.0,0.0,0.0,0.0,0.0,0.0,0.0,0.0,0.0,0.0,0.0,0.0,0.0,0.0,0.0,0.0,0.0,0.0,0.0,0.0,0.0,0.0,0.0,0.0,0.0,-2.3823,-2.3597,0.0,0.0,0.0,-2.4417,-2.5114,0.0,0.0,0.0,0.0,0.0,0.0,0.0,0.0,0.0,0.0,0.0,0.0,0.0,0.0,0.0,0.0,0.0,0.0,0.0,0.0,0.0,0.0,0.0,0.0,0.0,0.0,0.0,0.0,0.0,0.0,0.0,0.0,0.0,0.0,0.0,0.0,0.0,0.0,0.0,0.0,0.0,0.0,0.0,0.0,0.0,0.0,0.0,0.0,0.0,0.0,0.0,0.0,0.0,0.0,0.0,0.0,0.0,-2.2357,-2.5945,-2.8668,-3.043,-3.1091,-3.1109,-3.0467,-2.8154,0.0,0.0,0.0,0.0,0.0,0.0,0.0,0.0,0.0,0.0,0.0,0.0,0.0,0.0,0.0,0.0,0.0,0.0,0.0,0.0,0.0,0.0,0.0,0.0,0.0,0.0,0.0,0.0,0.0,0.0,0.0,0.0,0.0,0.0,0.0,0.0,0.0,0.0,0.0,0.0,0.0,0.0,-2.4202,-2.4982,-2.5097,-2.5519,0.0,0.0,-2.6001,-2.6873,-2.6462,-2.528,0.0,0.0,0.0,0.0,0.0,0.0,0.0,0.0,0.0,0.0,0.0,0.0,0.0,0.0,0.0,0.0,0.0,0.0,0.0,0.0,0.0,0.0,0.0,0.0,0.0,0.0,0.0,0.0,0.0,0.0,0.0,0.0,0.0,0.0,0.0,0.0,0.0,0.0,0.0,0.0,0.0,0.0,0.0,0.0,0.0,0.0,0.0,0.0,0.0,0.0,0.0,0.0,0.0,0.0,0.0,-2.3068,-2.62,-2.8962,-3.1201,-3.1366,-3.1366,-3.1256,-2.898,-2.6612,0.0,0.0,0.0,0.0,0.0,0.0,0.0,0.0,0.0,0.0,0.0,0.0,0.0,0.0,0.0,0.0,0.0,0.0,0.0,0.0,0.0,0.0,0.0,0.0,0.0,0.0,0.0,0.0,0.0,0.0,0.0,0.0,0.0,0.0,0.0,0.0,0.0,0.0,0.0,0.0,0.0,-2.545,-2.4431,-2.569,-2.6767,0.0,0.0,-2.7959,-2.7387,-2.8447,-2.831,-2.5292,0.0,0.0,0.0,0.0,0.0,0.0,0.0,0.0,0.0,0.0,0.0,0.0,0.0,0.0,0.0,0.0,0.0,0.0,0.0,0.0,0.0,0.0,0.0,0.0,0.0,0.0,0.0,0.0,0.0,0.0,0.0,0.0,0.0,0.0,0.0,0.0,0.0,0.0,0.0,0.0,0.0,0.0,0.0,0.0,0.0,0.0,0.0,0.0,0.0,0.0,0.0,0.0,0.0,-1.9763,-2.3854,-2.7432,-3.021,-3.2063,-3.2632,-3.2632,-3.2155,-3.0283,-2.8154,0.0,0.0,0.0,0.0,0.0,0.0,0.0,0.0,0.0,0.0,0.0,0.0,0.0,0.0,0.0,0.0,0.0,0.0,0.0,0.0,0.0,0.0,0.0,0.0,0.0,0.0,0.0,0.0,-1.3545,-1.4316,-1.4316,0.0,0.0,0.0,0.0,0.0,0.0,0.0,0.0,0.0,0.0,-2.6801,-2.7098,-2.8423,0.0,0.0,-3.033,-3.0285,-2.984,-2.9518,-2.851,-2.613,-2.4732,0.0,0.0,0.0,0.0,0.0,0.0,0.0,0.0,0.0,0.0,0.0,0.0,0.0,0.0,0.0,0.0,0.0,0.0,0.0,0.0,0.0,0.0,0.0,0.0,0.0,0.0,0.0,0.0,0.0,0.0,0.0,0.0,0.0,0.0,0.0,0.0,0.0,0.0,0.0,0.0,0.0,0.0,0.0,0.0,0.0,0.0,0.0,0.0,0.0,0.0,0.0,0.0,-2.068,-2.5004,-2.8463,-3.098,-3.2551,-3.3403,-3.3421,-3.2588,-3.1274,-2.942,0.0,0.0,0.0,0.0,0.0,0.0,0.0,0.0,0.0,0.0,0.0,0.0,0.0,0.0,0.0,0.0,0.0,0.0,0.0,0.0,0.0,0.0,0.0,0.0,0.0,0.0,0.0,0.0,-1.506,-1.5673,-1.5434,0.0,0.0,0.0,0.0,0.0,0.0,0.0,0.0,0.0,0.0,-2.8595,-2.9273,-3.0462,-3.1525,-3.2109,-3.2092,-3.1826,-3.1489,-3.0951,-2.9894,-2.7784,0.0,0.0,0.0,0.0,0.0,0.0,0.0,0.0,0.0,0.0,0.0,0.0,0.0,0.0,0.0,0.0,0.0,0.0,0.0,0.0,0.0,0.0,0.0,0.0,0.0,0.0,0.0,0.0,0.0,0.0,-1.5637,0.0,0.0,0.0,0.0,0.0,0.0,0.0,0.0,0.0,0.0,0.0,0.0,0.0,0.0,0.0,0.0,0.0,0.0,0.0,0.0,0.0,0.0,0.0,-2.6673,-2.9052,-3.1017,-3.2596,-3.3403,-3.3421,-3.2669,-3.1806,-3.0246,-2.7824,0.0,0.0,0.0,0.0,0.0,0.0,0.0,0.0,0.0,0.0,0.0,0.0,0.0,0.0,0.0,0.0,0.0,0.0,0.0,0.0,0.0,0.0,0.0,0.0,0.0,0.0,-1.5607,-1.5806,-1.5625,0.0,0.0,0.0,0.0,0.0,0.0,0.0,0.0,0.0,0.0,-2.8969,-3.097,-3.0314,-3.1362,-3.2297,-3.2317,-3.2492,-3.2431,-3.1911,-3.3026,-3.3256,0.0,0.0,0.0,0.0,0.0,0.0,0.0,0.0,0.0,0.0,0.0,0.0,0.0,0.0,0.0,0.0,0.0,0.0,0.0,0.0,0.0,0.0,0.0,0.0,0.0,0.0,0.0,-2.2648,-2.2079,0.0,0.0,0.0,0.0,0.0,0.0,0.0,0.0,0.0,0.0,0.0,-2.9787,-3.0044,0.0,0.0,0.0,0.0,0.0,0.0,0.0,0.0,0.0,0.0,0.0,0.0,-2.3694,-2.7398,-3.0325,-3.232,-3.3348,-3.366,-3.366,-3.3403,-3.2614,-3.0815,-2.7879,0.0,0.0,0.0,0.0,0.0,0.0,0.0,0.0,0.0,0.0,0.0,0.0,0.0,0.0,0.0,0.0,0.0,0.0,0.0,0.0,0.0,0.0,0.0,0.0,0.0,-1.6709,0.0,0.0,0.0,0.0,0.0,0.0,0.0,0.0,0.0,0.0,0.0,-2.7485,-2.8783,-3.0765,-3.2293,-3.2836,-3.405,-3.5132,0.0,0.0,0.0,0.0,0.0,0.0,0.0,0.0,0.0,0.0,0.0,0.0,0.0,0.0,-3.3987,-2.8102,-2.6582,-2.6351,-2.689,0.0,0.0,0.0,0.0,0.0,0.0,0.0,0.0,0.0,0.0,0.0,0.0,0.0,0.0,0.0,0.0,-2.5674,0.0,0.0,0.0,0.0,0.0,0.0,0.0,0.0,-3.1017,-3.3073,-3.4302,-3.4596,-3.4578,0.0,-3.3275,-2.9861,0.0,0.0,0.0,0.0,0.0,0.0,0.0,0.0,-2.5591,-2.898,-3.1659,-3.355,-3.4614,-3.4651,-3.4523,-3.4211,-3.3164,-3.1494,-2.9127,-2.7769,-2.6062,0.0,0.0,0.0,0.0,0.0,0.0,0.0,0.0,0.0,0.0,0.0,0.0,0.0,0.0,0.0,0.0,0.0,0.0,0.0,0.0,0.0,0.0,0.0,-1.8503,0.0,0.0,0.0,0.0,0.0,0.0,0.0,0.0,0.0,-2.6223,-2.826,-3.0487,-3.2393,-3.3463,-3.4452,-3.5413,0.0,0.0,0.0,0.0,0.0,0.0,0.0,-3.5988,-3.5968,-3.5084,-3.4622,-3.5391,-3.7623,-3.9046,-3.8142,0.0,0.0,-3.291,-3.1621,-3.1468,-3.1698,-3.2449,-3.3218,-3.3776,-3.4776,-3.5699,0.0,0.0,0.0,0.0,0.0,0.0,0.0,0.0,-3.2027,-3.2082,0.0,-3.0338,0.0,0.0,0.0,0.0,0.0,0.0,0.0,0.0,-3.6707,-3.8303,-3.7698,-3.8377,-3.8358,-3.7753,-3.9038,-3.7679,-3.3678,-2.7677,0.0,0.0,0.0,0.0,0.0,0.0,-2.7533,-3.1366,-3.3054,-3.4669,-3.6193,-3.6266,-3.5862,-3.4972,-3.3486,-3.2302,-3.1439,-3.0632,-2.8796,-2.5697,-2.4025,0.0,0.0,0.0,0.0,0.0,0.0,0.0,0.0,0.0,0.0,0.0,0.0,0.0,0.0,0.0,0.0,0.0,0.0,0.0,0.0,-1.9656,0.0,0.0,0.0,0.0,0.0,0.0,0.0,0.0,0.0,0.0,-2.9119,-3.1468,-3.4202,-3.631,0.0,0.0,0.0,0.0,-3.7965,-3.8936,-3.9262,-3.9431,-3.9431,-4.0681,-4.1123,-3.9642,0.0,0.0,-3.8623,-4.0258,-4.1162,-3.8738,-3.9777,-4.0392,-3.9508,-3.8392,-3.7642,-3.6969,-3.7392,-3.8046,-3.8238,-3.92,-4.0335,-3.7202,0.0,0.0,0.0,0.0,-3.3788,-3.5559,-3.8634,-3.7808,-3.7257,-3.689,-3.5624,0.0,0.0,0.0,0.0,0.0,0.0,-3.4963,-3.6156,-3.79,-3.9496,-4.091,-4.0579,-4.0598,-4.0891,-4.023,-3.9294,-3.8046,-3.5128,-3.0815,-2.5328,0.0,0.0,0.0,0.0,-3.0815,-3.3054,-3.4743,-3.5826,-3.6266,-3.6285,-3.5899,-3.5009,-3.455,-3.3678,-3.232,-3.2027,-3.098,-2.8906,-2.7291,0.0,0.0,0.0,0.0,0.0,0.0,0.0,0.0,0.0,0.0,0.0,0.0,0.0,0.0,0.0,0.0,0.0,0.0,0.0,-1.9815,-2.032,-2.1156,0.0,0.0,0.0,0.0,0.0,0.0,0.0,0.0,0.0,-3.4855,-3.5488,-3.6344,0.0,0.0,-3.8977,-3.9402,-3.9887,-4.0635,-4.1735,0.0,0.0,0.0,-4.1373,-4.1123,-4.1873,-4.2893,-4.3335,-4.2624,-4.3605,-4.4278,-4.347,-4.3816,-4.3874,-4.2951,-4.1162,-4.0008,-4.0239,-4.0546,-4.0931,-4.1527,-4.2066,-4.2508,-4.2415,-3.9166,-3.7441,-3.7459,-3.8597,-3.812,-3.9496,-4.2011,-4.1203,-4.0744,-4.0543,-3.9735,-3.7955,-3.5422,-3.4302,0.0,0.0,0.0,-3.7826,-3.9405,-3.99,-4.1075,-4.269,-4.2286,-4.2304,-4.2708,-4.1791,-4.1148,-4.0818,-3.9882,-3.6523,-3.1072,0.0,0.0,-2.9072,-3.1219,-3.3146,-3.4761,-3.6083,-3.6909,-3.7239,-3.6927,-3.6376,-3.555,-3.5174,-3.4367,-3.3146,-3.3091,-3.2485,-3.1201,-2.9622,-2.7658,0.0,0.0,0.0,0.0,0.0,0.0,0.0,0.0,0.0,0.0,0.0,-1.6201,0.0,0.0,0.0,0.0,-1.9357,-2.1365,-2.3323,-2.4302,0.0,0.0,0.0,0.0,0.0,0.0,0.0,-3.4116,-3.6214,-3.7919,-3.8811,-3.9016,-3.9222,-3.96,-3.9928,-4.0413,-4.1282,0.0,-4.2081,-4.338,-4.3566,-4.3701,-4.4008,-4.3201,-4.2893,-4.3893,-4.447,-4.4797,-4.4836,-4.5259,-4.5566,-4.5586,-4.5586,-4.5413,-4.4913,-4.3528,-4.2508,-4.2758,-4.3066,-4.3489,-4.3989,-4.4085,-4.4239,-4.6104,-4.5847,-4.291,-4.2029,-4.258,-4.258,-4.3002,-4.3608,-4.291,-4.3002,-4.3608,-4.291,-4.1735,-4.0194,-3.8652,0.0,-3.9129,-3.9845,-4.0965,-4.2396,-4.2396,-4.28,-4.3479,-4.3479,-4.3479,-4.3479,-4.3479,-4.3112,-4.2415,-4.2378,-4.0855,-3.7911,-3.5605,-3.399,-3.3091,-3.3862,-3.5073,-3.6652,-3.7422,-3.8102,-3.8781,-3.7991,-3.7165,-3.6321,-3.5532,-3.4688,-3.3752,-3.3697,-3.333,-3.2522,-3.1035,-2.9163,-2.6869,0.0,0.0,0.0,0.0,0.0,0.0,0.0,0.0,0.0,0.0,0.0,0.0,0.0,0.0,0.0,-2.3492,0.0,-2.8026,-3.0118,0.0,0.0,0.0,-3.2993,-3.2501,-3.5721,-3.7664,-3.6864,0.0,0.0,-4.1295,0.0,-4.2396,-4.2396,-4.1772,-4.1767,-4.3137,-4.2687,-4.2754,-4.4153,-4.4339,-4.4645,-4.5297,-4.5355,-4.5297,-4.5393,-4.5586,-4.5547,-4.5528,-4.5566,-4.5586,-4.5586,-4.5586,-4.5586,-4.5586,-4.5413,-4.5336,-4.447,-4.4951,-4.5528,-4.547,-4.5451,-4.5451,-4.7737,-4.7664,-4.6929,-4.5993,-4.5039,-4.5039,-4.5149,-4.5296,-4.5131,-4.5131,-4.5314,-4.5112,-4.4507,-4.3516,-4.2506,-4.2176,-4.2359,-4.2543,-4.2837,-4.3185,-4.3204,-4.3314,-4.3479,-4.3479,-4.3479,-4.3479,-4.3479,-4.3387,-4.3222,-4.3204,-4.2506,-4.1185,-4.0561,-3.8964,-3.6486,-3.7734,-3.8946,-3.9955,-4.0157,-4.0047,-3.9606,-3.8836,-3.7734,-3.6321,-3.6101,-3.5,-3.2981,-3.2889,-3.2522,-3.1715,-3.0723,-2.9677,-2.8466,-2.5383,0.0,0.0,0.0,0.0,0.0,0.0,0.0,0.0,0.0,-2.3713,-1.8857,0.0,-2.5652,0.0,-2.6869,-2.9053,-3.1256,-3.1421,0.0,0.0,-3.5634,-3.6389,-3.8603,-3.9185,-3.9761,-4.0763,-4.1552,-4.2249,-4.2855,-4.3075,-4.3222,-4.3204,-4.3039,-4.3005,-4.3254,-4.3465,-4.3874,-4.4693,-4.4898,-4.5053,-4.5493,-4.5586,-4.5586,-4.5586,-4.5586,-4.5586,-4.5586,-4.5586,-4.5586,-4.5586,-4.5586,-4.5586,-4.5586,-4.5586,-4.5528,-4.5336,-4.5451,-4.5586,-4.5586,-4.5586,-4.5586,-4.9407,-4.9389,-4.9022,-4.8361,-4.748,-4.6746,-4.6452,-4.6416,-4.6067,-4.5902,-4.5902,-4.5902,-4.5663,-4.5223,-4.4764,-4.4562,-4.4544,-4.4195,-4.403,-4.3993,-4.3663,-4.3479,-4.3479,-4.3479,-4.3479,-4.3479,-4.3479,-4.3479,-4.3479,-4.3479,-4.3259,-4.2837,-4.2837,-4.1937,-4.0249,-4.0359,-4.0671,-4.1111,-4.1097,-4.0891,-4.0432,-3.9643,-3.8469,-3.6909,-3.6835,-3.5661,-3.3238,-3.3468,-3.3146,-3.199,-3.1182,-3.0375,-2.9549,-2.7181,-2.5603,0.0,0.0,0.0,0.0,0.0,0.0,0.0,0.0,0.0,0.0,0.0,-2.9642,0.0,-3.1825,-3.3476,-3.5165,-3.5881,-3.7019,-3.8891,-3.935,-4.0084,-4.1497,-4.1552,-4.1827,-4.2708,-4.2837,-4.2983,-4.3424,-4.3479,-4.3479,-4.3479,-4.3479,-4.361,-4.3856,-4.4244,-4.4688,-4.5222,-4.5322,-4.5381,-4.5586,-4.5586,-4.5586,-4.5586,-4.5586,-4.5586,-4.5586,-4.5586,-4.5586,-4.5586,-4.5586,-4.5586,-4.5586,-4.5586,-4.5586,-4.5586,-4.5586,-4.5586,-4.5586,-4.5586,-4.5586,-5.082,-5.0747,-5.0031,-4.9738,-4.9627,-4.8196,-4.748,-4.7205,-4.6526,-4.6214,-4.6214,-4.6104,-4.6049,-4.6049,-4.5957,-4.5902,-4.5847,-4.5168,-4.4874,-4.48,-4.403,-4.3644,-4.3644,-4.3534,-4.3479,-4.3479,-4.3479,-4.3479,-4.3479,-4.3479,-4.3479,-4.3479,-4.3479,-4.3479,-4.3424,-4.2121,-4.1423,-4.1423,-4.1313,-4.1277,-4.124,-4.0469,-3.9276,-3.7734,-3.7533,-3.6321,-3.3954,-3.4486,-3.4147,-3.2706,-3.2045,-3.1329,-3.054,-2.9163,-2.8319,0.0,-2.753,0.0,0.0,0.0,0.0,0.0,0.0,0.0,0.0,-3.243,-3.4055,-3.5357,-3.6982,-3.8285,-3.9093,-4.1056,-4.2066,-4.1534,-4.2635,-4.3222,-4.2561,-4.3075,-4.3479,-4.3479,-4.3479,-4.3479,-4.3479,-4.3479,-4.3479,-4.3479,-4.3563,-4.3804,-4.4373,-4.4638,-4.49,-4.54,-4.555,-4.5549,-4.5586,-4.5586,-4.5586,-4.5586,-4.5586,-4.5586,-4.5586,-4.5586,-4.5586,-4.5586,-4.5586,-4.5586,-4.5586,-4.5586,-4.5586,-4.5586,-4.5586,-4.5586,-4.5586,-4.5586,-4.5586,-5.082,-5.0784,-5.0637,-5.0582,-5.0545,-5.0233,-4.9334,-4.8067,-4.7921,-4.7847,-4.7792,-4.7168,-4.6893,-4.6838,-4.6195,-4.5902,-4.5902,-4.5755,-4.5681,-4.5645,-4.4856,-4.447,-4.4452,-4.3791,-4.3479,-4.3479,-4.3479,-4.3479,-4.3479,-4.3479,-4.3479,-4.3479,-4.3479,-4.3479,-4.3461,0.0,0.0,0.0,-4.2415,-4.2084,-4.2066,-4.1295,-4.012,-3.8524,-3.7826,0.0,-3.3954,-3.3954,-3.3605,-3.2687,-3.3073,0.0,0.0,0.0,0.0,0.0,0.0,0.0,0.0,0.0,0.0,0.0,-3.4853,-3.3917,-3.3293,-3.6413,-3.8377,-3.8102,-3.9478,-4.0763,-4.1552,-4.1992,-4.2506,-4.3002,-4.3332,-4.3424,-4.3296,-4.3424,-4.3479,-4.3479,-4.3497,-4.3497,-4.3552,-4.3479,-4.3516,-4.3605,-4.3726,-4.3974,-4.4125,-4.4023,-4.4095,-4.4682,-4.5243,-4.5586,-4.5586,-4.5586,-4.5586,-4.5586,-4.5586,-4.5586,-4.5586,-4.5586,-4.5586,-4.5586,-4.5586,-4.5586,-4.5605,-4.5586,-4.5663,-4.5605,-4.5624,-4.5586,-4.5586,-4.5605,-4.5586,-5.1995,0.0,-5.1555,-5.1389,0.0,-5.0986,-5.0325,-4.9517,-4.9114,-4.8691,-4.8269,-4.7884,-4.77,-4.7682,-4.7278,-4.7076,-4.7076,-4.6691,-4.6489,-4.6471,-4.5663,-4.5076,-4.4709,-4.4287,-4.3864,-4.3497,-4.3479,-4.3479,-4.3479,-4.3479,-4.3479,-4.3479,-4.3479,-4.3479,-4.3479,-4.3479,-4.3479,-4.3479,-4.3094,-4.2892,-4.2855,-4.2121,-4.1111,-3.9937,0.0,0.0,0.0,0.0,0.0,0.0,0.0,0.0,0.0,0.0,0.0,-3.4981,-3.5367,-3.5587,-3.5605,-3.634,-3.7349,-3.856,-3.9038,-3.8744,-3.7496,-3.9662,-4.1093,-4.1093,-4.1827,-4.2451,-4.2837,-4.3259,-4.3663,-4.4066,-4.4452,-4.4672,-4.469,-4.4672,-4.4672,-4.469,-4.4672,-4.469,-4.4672,-4.4672,-4.4672,-4.4654,-4.446,-4.435,-4.4327,-4.4172,-4.4213,-4.4553,-4.503,-4.5361,-4.5362,-4.5513,-4.5586,-4.5586,-4.5586,-4.5586,-4.5586,-4.5586,-4.5586,-4.5586,-4.5586,-4.5701,-4.6144,-4.624,-4.6355,-4.6721,-4.6836,-4.6836,-4.6817,-4.6528,-4.624,-5.3206,-5.3151,-5.2491,-5.2215,-5.216,-5.1499,-5.1151,-5.0967,0.0,0.0,0.0,-4.8581,-4.8526,-4.8526,-4.8379,-4.8324,-4.8269,-4.7627,-4.7333,-4.7259,-4.6489,-4.5755,-4.5149,-4.4984,-4.4488,-4.3736,-4.3699,-4.3626,-4.3479,-4.3479,-4.3479,-4.3479,-4.3479,-4.3479,-4.3479,-4.3479,-4.3479,-4.3479,-4.3479,-4.3479,-4.3479,-4.2855,-4.2139,-4.135,-4.0543,-3.9405,-3.7973,-3.793,-3.7294,-3.5973,-3.5999,-3.634,-3.689,-3.7074,-3.7955,-3.9717,-4.0029,-4.0175,-4.0322,-4.0946,-4.1111,-4.0561,-4.1735,-4.2231,-4.1589,-4.2121,-4.2782,-4.3442,-4.3608,-4.3699,-4.3699,-4.4433,-4.4929,-4.4929,-4.5498,-4.5883,-4.5883,-4.5902,-4.581,-4.5902,-4.581,-4.5883,-4.5828,-4.581,-4.5902,-4.5792,-4.5314,-4.4929,-4.4888,-4.4619,-4.4392,-4.4455,-4.4757,-4.5007,-4.5052,-4.5302,-4.5533,-4.5744,-4.5819,-4.5855,-4.599,-4.6047,-4.6047,-4.6182,-4.6047,-4.6374,-4.6951,-4.7105,-4.7336,-4.799,-4.8105,-4.8105,-4.8067,-4.7721,-4.7336,-5.3206,-5.3206,-5.3096,-5.3041,-5.3023,-5.2913,-5.2472,-5.1775,-5.0986,-5.0563,-5.0417,-4.9701,-4.9407,-4.9352,-4.8636,-4.8324,-4.8306,-4.8196,-4.8141,0.0,-4.7315,-4.6893,-4.6746,-4.6067,-4.5314,-4.458,-4.4525,-4.4176,-4.3552,-4.3497,-4.3479,-4.3479,-4.3479,-4.3479,-4.3479,-4.3479,-4.3479,-4.3479,-4.3479,-4.3479,-4.3479,-4.3387,-4.2947,-4.2158,-4.1368,-4.0524,-3.9588,-3.9551,-3.946,-3.9239,-3.9882,-3.9992,-3.946,-4.001,-4.0267,-3.9955,-4.0561,-4.124,-4.1919,-4.2084,-4.2396,-4.2928,-4.3204,-4.3277,-4.3167,-4.3259,-4.3369,-4.3516,-4.414,-4.4544,-4.458,-4.5259,-4.5736,-4.5736,-4.5847,-4.5902,-4.5993,-4.5993,-4.6012,-4.6012,-4.5902,-4.5975,-4.6049,-4.6012,-4.6049,-4.5938,-4.5902,-4.5736,-4.5515,-4.4781,-4.417,-4.4117,-4.4419,-4.465,-4.4921,-4.4962,-4.5543,-4.6097,-4.6513,-4.6913,-4.7451,-4.7548,-4.7548,-4.7682,-4.7586,-4.7702,-4.7913,-4.7932,-4.8067,-4.8259,-4.8317,-4.8279,-4.8317,-4.8625,-4.8759,-5.3206,-5.3206,-5.3206,-5.3206,-5.3206,-5.3206,-5.3004,-5.2637,-5.227,-5.1591,-5.0784,-5.0417,-5.0233,-5.0178,-4.937,-4.9003,-4.8985,-4.8526,-4.8324,-4.8288,-4.7939,-4.7535,-4.7057,-4.6728,-4.614,-4.5369,-4.4911,-4.4507,-4.414,-4.3718,-4.3479,-4.3479,-4.3479,-4.3479,-4.3479,-4.3479,-4.3479,-4.3479,-4.3479,-4.3479,-4.3479,-4.3479,-4.3314,-4.2947,-4.2176,-4.1589,-4.1203,-4.0781,-4.0561,-4.0543,-4.0891,-4.113,-4.1203,-4.1552,-4.1772,-4.1846,-4.2194,-4.2561,-4.291,-4.2947,-4.3112,-4.3461,-4.3901,-4.414,-4.4158,-4.414,-4.414,-4.4176,-4.4874,-4.5351,-4.5369,-4.6085,-4.6562,-4.6562,-4.6929,-4.7186,-4.7205,-4.7205,-4.7205,-4.7205,-4.7205,-4.7205,-4.7205,-4.7205,-4.7205,-4.7168,-4.6893,-4.6434,-4.6012,-4.5455,-4.5038,-4.5072,-4.5357,-4.565,-4.5854,-4.6182,-4.6625,-4.7199,-4.7434,-4.7683,-4.8067,-4.8125,-4.8125,-4.8105,-4.8125,-4.8317,-4.8663,-4.8798,-4.8971,-4.9471,-4.951,-4.951,-4.9586,-4.9856,-4.9894,-5.3206,-5.3206,-5.3206,-5.3206,-5.3206,-5.3206,-5.3206,-5.3206,-5.3206,-5.2509,-5.1426,-5.1151,-5.1077,-5.1004,-5.0233,-4.9756,-4.9499,-4.8893,-4.8489,-4.8324,-4.8324,-4.7976,-4.7443,-4.7388,-4.6966,-4.6195,-4.5553,-4.5168,-4.4911,-4.4158,-4.3663,-4.3516,-4.3479,-4.3479,-4.3479,-4.3479,-4.3479,-4.3479,-4.3479,-4.3479,-4.3479,-4.3479,-4.3479,-4.3442,-4.291,-4.258,-4.2543,-4.1974,-4.1644,-4.1644,-4.1644,-4.1937,-4.2506,-4.2561,-4.2855,-4.3406,-4.3479,-4.3479,-4.3497,-4.3663,-4.3773,-4.3773,-4.4525,-4.4984,-4.4984,-4.5168,-4.5149,-4.5112,-4.57,-4.6177,-4.6269,-4.6893,-4.7388,-4.7407,-4.7902,-4.8214,-4.8306,-4.8324,-4.8324,-4.8324,-4.8324,-4.8269,-4.8324,-4.8324,-4.8251,-4.8122,-4.7755,-4.7131,-4.6581,-4.6452,-4.6434,-4.6415,-4.6371,-4.635,-4.6797,-4.7098,-4.751,-4.8124,-4.8356,-4.8529,-4.8702,-4.8759,-4.8721,-4.8817,-4.8759,-4.9048,-4.9567,-4.9702,-4.9933,-5.0394,-5.0471,-5.0567,-5.0529,-5.0567,-5.0644,-5.3206,-5.3206,-5.3206,-5.3206,-5.3206,-5.3206,-5.3206,-5.3206,-5.3206,-5.3151,-5.2839,-5.2215,-5.1885,-5.1775,-5.1041,-5.0325,-4.9682,-4.9499,-4.904,-4.8398,-4.8324,-4.8269,-4.8159,-4.8177,-4.7774,-4.7076,-4.6874,-4.6416,-4.5773,-4.4984,-4.4213,-4.3571,-4.3479,-4.3497,-4.3479,-4.3479,-4.3479,-4.3479,-4.3479,-4.3479,-4.3479,-4.3479,-4.3479,-4.3479,-4.3424,-4.3387,-4.3314,-4.3314,-4.3259,-4.3277,-4.3222,-4.3277,-4.3351,-4.3369,-4.3406,-4.3479,-4.3497,-4.3479,-4.3552,-4.4176,-4.4599,-4.4654,-4.5333,-4.5792,-4.581,-4.6471,-4.6562,-4.614,-4.6562,-4.6985,-4.704,-4.77,-4.8104,-4.8086,-4.8233,-4.8324,-4.8324,-4.8324,-4.8324,-4.8324,-4.8324,-4.8324,-4.8324,-4.8324,-4.8324,-4.8324,-4.8177,-4.8012,-4.7884,-4.7829,-4.7847,-4.7719,-4.6985,-4.6316,-4.6656,-4.6834,-4.77,-4.8628,-4.9083,-4.949,-4.9933,-5.0221,-5.0414,-4.9952,-5.024,-5.0279,-5.0394,-5.0567,-5.0529,-5.0606,-5.0683,-5.0683,-5.0683,-5.0683,-5.0683,-5.3206,-5.3206,-5.3206,-5.3206,-5.3206,-5.3206,-5.3206,-5.3206,-5.3206,-5.3206,-5.317,-5.2839,-5.2711,-5.2656,-5.1867,-5.1316,-5.0949,-5.0013,-4.9407,-4.9003,-4.8563,-4.8324,-4.8324,-4.8324,-4.8104,-4.7774,-4.7352,-4.6948,-4.6544,-4.581,-4.5002,-4.4287,-4.4213,-4.3975,-4.3534,-4.3479,-4.3479,-4.3479,-4.3479,-4.3479,-4.3479,-4.3479,-4.3479,-4.3479,-4.3479,-4.3479,-4.3479,-4.3479,-4.3479,-4.3479,-4.3479,-4.3479,-4.3479,-4.3479,-4.3479,-4.3516,-4.3938,-4.4433,-4.4874,-4.5241,-4.5424,-4.5406,-4.6159,-4.6617,-4.6654,-4.7352,-4.7664,-4.7443,-4.7645,-4.781,-4.7847,-4.8122,-4.8324,-4.8324,-4.8324,-4.8324,-4.8324,-4.8324,-4.8324,-4.8324,-4.8324,-4.8324,-4.8324,-4.8324,-4.8324,-4.8324,-4.8324,-4.8324,-4.8324,-4.8324,-4.8324,-4.8233,-4.7682,-4.7573,-4.7806,-4.8239,-4.8794,-4.9415,-4.9944,-5.0394,-5.0529,-5.0683,-5.0683,-5.0683,-5.0683,-5.0683,-5.0625,-5.0683,-5.0683,-5.0683,-5.0683,-5.0683,-5.0683,-5.0683,-5.0683,-5.3537,-5.3518,-5.3316,-5.3206,-5.3206,-5.3206,-5.3206,-5.3206,-5.3206,-5.3206,-5.3206,-5.3206,-5.3206,-5.3115,-5.2582,-5.2234,-5.1848,-5.0784,-4.9976,-4.9554,-4.8912,-4.8545,-4.8343,-4.8324,-4.8324,-4.8233,-4.7737,-4.7333,-4.7057,-4.6562,-4.5828,-4.5149,-4.5039,-4.4727,-4.4213,-4.4158,-4.403,-4.3846,-4.3828,-4.3736,-4.3534,-4.3479,-4.3479,-4.3479,-4.3479,-4.3479,-4.3479,-4.3479,-4.3479,-4.3479,-4.3479,-4.3608,-4.3809,-4.3828,-4.392,-4.4176,-4.469,-4.5278,-4.5865,-4.6104,-4.6232,-4.6305,-4.6985,-4.7443,-4.7535,-4.7976,-4.8398,-4.8618,-4.8636,-4.86,-4.8324,-4.8324,-4.8324,-4.8324,-4.8324,-4.8324,-4.8324,-4.8324,-4.8324,-4.8324,-4.8324,-4.8324,-4.8324,-4.8324,-4.8324,-4.8324,-4.8324,-4.8324,-4.8324,-4.8324,-4.8324,-4.8324,-4.8288,-4.844,-4.8829,-4.8977,-4.9532,-4.9974,-5.0301,-5.0467,-5.0663,-5.0683,-5.0683,-5.0683,-5.0683,-5.0683,-5.0683,-5.0683,-5.0683,-5.0683,-5.0683,-5.0683,-5.0683,-5.0683,-5.0683,-5.4344,-5.4234,-5.3555,-5.3316,-5.3243,-5.3243,-5.3243,-5.3298,-5.3225,-5.3206,-5.3206,-5.3206,-5.3206,-5.3206,-5.3096,-5.2729,-5.2068,-5.1848,-5.1022,-4.9811,-4.9591,-4.9095,-4.8343,-4.8324,-4.8324,-4.8324,-4.8214,-4.7847,-4.7167,-4.7076,-4.6636,-4.5902,-4.5847,-4.581,-4.5663,-4.5626,-4.5388,-4.4727,-4.4635,-4.4305,-4.3681,-4.3552,-4.3608,-4.3626,-4.3497,-4.3497,-4.3534,-4.3497,-4.3516,-4.3516,-4.3589,-4.3901,-4.4562,-4.4654,-4.4966,-4.5645,-4.581,-4.5883,-4.6067,-4.6673,-4.7058,-4.715,-4.7719,-4.8233,-4.8251,-4.8361,-4.8746,-4.9462,-4.9517,-4.9242,-4.8636,-4.8618,-4.8526,-4.8489,-4.8416,-4.8453,-4.8416,-4.8581,-4.8361,-4.8416,-4.8545,-4.8618,-4.8453,-4.8324,-4.8398,-4.8398,-4.8343,-4.8324,-4.8324,-4.8324,-4.8324,-4.8324,-4.8344,-4.8458,-4.8795,-4.8978,-4.9326,-4.97,-4.9974,-5.0225,-5.0504,-5.0683,-5.0663,-5.0683,-5.0683,-5.0683,-5.0683,-5.0683,-5.0683,-5.0683,-5.0683,-5.0683,-5.0683,-5.0683,-5.0683,-5.5152,-5.5133,-5.484,-5.473,-5.4675,-5.4197,-5.3959,-5.394,-5.3427,-5.3206,-5.3206,-5.3206,-5.3206,-5.3206,-5.3206,-5.3059,-5.2747,-5.2252,-5.1665,-5.1077,-5.06,-4.9921,-4.9187,-4.9114,-4.8802,-4.8379,-4.8324,-4.8177,-4.7921,-4.7865,-4.748,-4.6801,-4.6673,-4.6434,-4.5993,-4.5902,-4.5736,-4.5498,-4.548,-4.5314,-4.5039,-4.5021,-4.5021,-4.4966,-4.4011,-4.3736,-4.425,-4.4268,-4.4488,-4.5002,-4.5021,-4.5168,-4.5424,-4.548,-4.5828,-4.6562,-4.6673,-4.6911,-4.737,-4.7719,-4.7884,-4.7884,-4.8122,-4.8581,-4.9003,-4.915,-4.9462,-5.0141,-5.0362,-5.0178,-5.0031,-4.9903,-4.9903,-4.9903,-4.9884,-4.9829,-4.9921,-4.9921,-4.9903,-4.9903,-4.9903,-4.9921,-4.9701,-4.9444,-4.9132,-4.9077,-4.8673,-4.8416,-4.8324,-4.8324,-4.8416,-4.8343,-4.8306,-4.8326,-4.8458,-4.8744,-4.9043,-4.9246,-4.9485,-4.9692,-4.9949,-5.023,-5.0272,-5.0313,-5.0421,-5.0584,-5.0565,-5.0683,-5.0683,-5.0683,-5.0683,-5.0683,-5.0683,-5.0683,-5.0683,-5.5831,-5.5611,-5.5592,-5.5592,-5.5519,-5.5023,-5.4766,-5.4711,-5.4197,-5.383,-5.3628,-5.3592,-5.3463,-5.3243,-5.3206,-5.3206,-5.3151,-5.2637,-5.2252,-5.1958,-5.1444,-5.0765,-5.005,-4.9701,-4.9297,-4.8746,-4.8416,-4.8324,-4.8324,-4.8324,-4.8031,-4.7517,-4.7498,-4.7223,-4.6746,-4.6673,-4.6581,-4.6379,-4.6287,-4.6177,-4.5957,-4.5902,-4.5902,-4.5755,-4.4819,-4.4507,-4.5057,-4.5094,-4.5314,-4.581,-4.5902,-4.6012,-4.6269,-4.6526,-4.6911,-4.7425,-4.7498,-4.7719,-4.8214,-4.8324,-4.8416,-4.8691,-4.8746,-4.9077,-4.9848,-4.9976,-5.038,-5.0967,-5.1206,-5.1242,-5.1518,-5.1573,-5.1371,-5.0967,-5.082,-5.082,-5.082,-5.0784,-5.0765,-5.071,-5.0692,-5.0765,-5.0765,-5.0306,-5.0031,-4.9976,-4.9444,-4.9132,-4.9114,-4.9114,-4.9114,-4.9114,-4.9224,-4.9279,-4.9412,-4.9677,-4.9224,-4.9276,-4.9332,-4.9434,-4.9615,-4.986,-4.9955,-4.9987,-5.0111,-5.0313,-5.0483,-5.0604,-5.0663,-5.0682,-5.0683,-5.0683,-5.0683,-5.0683,-5.0818,-5.6363,-5.5776,-5.5629,-5.5776,-5.5812,-5.5647,-5.5592,-5.5574,-5.5482,-5.4987,-5.4436,-5.4363,-5.3922,-5.339,-5.3261,-5.3206,-5.3188,-5.3115,-5.2729,-5.2142,-5.2032,-5.1573,-5.0802,-5.016,-4.9722,-4.9444,-4.8728,-4.8343,-4.8324,-4.8324,-4.8269,-4.8269,-4.8214,-4.8122,-4.8233,-4.8049,-4.781,-4.7297,-4.7131,-4.6764,-4.6049,-4.6104,-4.614,-4.6085,-4.5957,-4.5938,-4.5957,-4.5938,-4.5975,-4.6049,-4.6067,-4.6342,-4.7113,-4.7719,-4.8233,-4.8196,-4.8288,-4.8324,-4.8379,-4.8489,-4.893,-4.9426,-4.9591,-4.9939,-5.0637,-5.082,-5.1151,-5.183,-5.2032,-5.227,-5.2876,-5.2986,-5.2454,-5.1187,-5.1114,-5.1114,-5.1022,-5.0912,-5.0875,-5.0986,-5.1077,-5.0894,-5.0875,-5.0857,-5.0802,-5.0784,-5.0618,-5.0472,-5.0398,-5.0398,-5.0655,-5.0655,-5.0398,-5.0178,-5.049,-5.0714,-4.9935,-4.9394,-4.9371,-4.9433,-4.9706,-4.9939,-4.986,-4.9891,-4.9749,-4.9936,-5.0068,-5.0225,-5.0615,-5.0675,-5.068,-5.0971,-5.1279,-5.1433,-5.1202,-5.7464,-5.7244,-5.7244,-5.7244,-5.7171,-5.6657,-5.6418,-5.6363,-5.5868,-5.5445,-5.5133,-5.4638,-5.4252,-5.394,-5.3482,-5.3225,-5.3206,-5.3206,-5.3059,-5.2839,-5.2803,-5.2399,-5.1701,-5.1353,-5.0637,-4.9701,-4.9315,-4.8857,-4.8416,-4.8343,-4.8324,-4.8324,-4.8324,-4.8324,-4.8324,-4.8306,-4.8141,-4.7976,-4.7939,-4.7792,-4.7572,-4.7553,-4.7535,-4.7553,-4.7553,-4.7553,-4.7535,-4.704,-4.7021,-4.748,-4.7572,-4.7682,-4.7939,-4.8159,-4.8306,-4.8379,-4.8875,-4.9169,-4.926,-4.9701,-5.0068,-5.0362,-5.0417,-5.082,-5.1481,-5.1628,-5.1958,-5.2674,-5.2839,-5.3004,-5.3151,-5.3206,-5.2913,-5.2509,-5.2472,-5.2362,-5.2307,-5.238,-5.2454,-5.2472,-5.2454,-5.2454,-5.2325,-5.205,-5.1628,-5.1573,-5.1224,-5.0912,-5.0875,-5.0986,-5.0802,-5.0802,-5.082,-5.1041,-5.1187,-5.1298,-5.0925,-5.036,-5.012,-4.9843,-5.004,-5.0067,-4.9963,-4.9888,-4.9727,-4.9738,-4.9835,-5.01,-5.0583,-5.0956,-5.1174,-5.1628,-5.2239,-5.226,-5.201,-5.7978,-5.7978,-5.7978,-5.7978,-5.7941,-5.7446,-5.7262,-5.7189,-5.6693,-5.6326,-5.5978,-5.5519,-5.4932,-5.4399,-5.3867,-5.3482,-5.3243,-5.3206,-5.3206,-5.3206,-5.3206,-5.2913,-5.2399,-5.2087,-5.1353,-5.027,-5.005,-4.9591,-4.882,-4.8765,-4.8636,-4.8379,-4.8324,-4.8324,-4.8324,-4.8324,-4.8324,-4.8324,-4.8306,-4.8324,-4.8306,-4.8324,-4.8324,-4.8306,-4.8306,-4.8324,-4.8269,-4.781,-4.7792,-4.8214,-4.8324,-4.8324,-4.8343,-4.86,-4.8783,-4.893,-4.9517,-5.0031,-5.0105,-5.0472,-5.0967,-5.1169,-5.1242,-5.161,-5.2252,-5.2454,-5.2729,-5.3096,-5.3188,-5.3206,-5.3206,-5.3206,-5.3206,-5.3206,-5.3151,-5.3206,-5.3206,-5.3206,-5.317,-5.3115,-5.3133,-5.3206,-5.3059,-5.2876,-5.2454,-5.2362,-5.2013,-5.1683,-5.1701,-5.1756,-5.1683,-5.1665,-5.1885,-5.1958,-5.1811,-5.1811,-5.1793,-5.143,-5.1103,-5.072,-5.056,-5.0471,-5.038,-5.045,-5.0331,-5.0459,-5.061,-5.073,-5.1064,-5.1326,-5.172,-5.2188,-5.2694,-5.2913,-5.2799,-5.7978,-5.7978,-5.7978,-5.7978,-5.7978,-5.7923,-5.7886,-5.7941,-5.7886,-5.7464,-5.695,-5.6638,-5.5868,-5.473,-5.4381,-5.3885,-5.3316,-5.3206,-5.3206,-5.3206,-5.3206,-5.3133,-5.2986,-5.2472,-5.1738,-5.0986,-5.0875,-5.0435,-4.9664,-4.9499,-4.9187,-4.8545,-4.8398,-4.8324,-4.8324,-4.8324,-4.8324,-4.8324,-4.8324,-4.8324,-4.8324,-4.8324,-4.8324,-4.8324,-4.8324,-4.8324,-4.8306,-4.8343,-4.8343,-4.8324,-4.8398,-4.8508,-4.8563,-4.9187,-4.9646,-4.9682,-5.0398,-5.0784,-5.0857,-5.1114,-5.1426,-5.1977,-5.2087,-5.2344,-5.2968,-5.3059,-5.3078,-5.3188,-5.3206,-5.3206,-5.3206,-5.3206,-5.3206,-5.3206,-5.3206,-5.3206,-5.3206,-5.3206,-5.3206,-5.3206,-5.3206,-5.3206,-5.3206,-5.3151,-5.3115,-5.3096,-5.3004,-5.2894,-5.2894,-5.2784,-5.3078,-5.3004,-5.2729,-5.2674,-5.2472,-5.2454,-5.2454,-5.2289,-5.1995,-5.1701,-5.1298,-5.1121,-5.0738,-5.0782,-5.0933,-5.112,-5.115,-5.108,-5.1469,-5.2027,-5.2417,-5.2785,-5.3219,-5.3615,-5.3818,-5.7978,-5.7978,-5.7978,-5.7978,-5.7978,-5.7978,-5.7978,-5.7978,-5.7978,-5.785,-5.7593,-5.7042,-5.6271,-5.528,-5.4656,-5.3959,-5.3408,-5.3225,-5.3206,-5.3206,-5.3206,-5.3206,-5.3206,-5.3004,-5.2454,-5.1756,-5.1646,-5.1261,-5.0472,-4.9976,-4.9536,-4.9242,-4.8655,-4.8361,-4.8324,-4.8343,-4.8324,-4.8324,-4.8324,-4.8324,-4.8324,-4.8324,-4.8324,-4.8324,-4.8343,-4.8361,-4.8398,-4.8912,-4.8912,-4.8416,-4.8948,-4.9242,-4.9315,-5.0013,-5.0472,-5.06,-5.1206,-5.1683,-5.1793,-5.2197,-5.2637,-5.2839,-5.2821,-5.2986,-5.317,-5.3206,-5.3206,-5.3206,-5.3206,-5.3206,-5.3206,-5.3206,-5.3206,-5.3206,-5.3206,-5.3206,-5.3206,-5.3206,-5.3206,-5.3206,-5.3206,-5.3206,-5.3206,-5.3206,-5.3206,-5.3206,-5.3206,-5.3206,-5.3206,-5.3206,-5.3206,-5.3206,-5.3078,-5.3133,-5.3133,-5.3133,-5.3096,-5.3023,-5.2876,-5.2766,-5.238,-5.2091,-5.1467,-5.0993,-5.1274,-5.1449,-5.1171,-5.0932,-5.1709,-5.2723,-5.2991,-5.3356,-5.4276,-5.4867,-5.4968,-5.7978,-5.7978,-5.7978,-5.7978,-5.7978,-5.7978,-5.7978,-5.7978,-5.7978,-5.7978,-5.7868,-5.7556,-5.6859,-5.6051,-5.5262,-5.4473,-5.3739,-5.3353,-5.3206,-5.3206,-5.3206,-5.3206,-5.3206,-5.3206,-5.2949,-5.2564,-5.2491,-5.205,-5.1371,-5.0802,-5.0453,-4.9994,-4.926,-4.8857,-4.8857,-4.8453,-4.8324,-4.8324,-4.8324,-4.8324,-4.8324,-4.8324,-4.8324,-4.8416,-4.8618,-4.8967,-4.937,-4.9848,-4.9701,-4.9224,-4.9609,-5.0105,-5.016,-5.0857,-5.1298,-5.1334,-5.205,-5.2509,-5.2582,-5.2968,-5.3188,-5.3206,-5.3206,-5.3206,-5.3206,-5.3206,-5.3206,-5.3206,-5.3206,-5.3206,-5.3206,-5.3206,-5.3206,-5.3206,-5.3206,-5.3206,-5.3206,-5.3206,-5.3206,-5.3206,-5.3206,-5.3206,-5.3206,-5.3206,-5.3206,-5.3206,-5.3206,-5.3206,-5.3206,-5.3206,-5.3206,-5.3206,-5.3206,-5.3206,-5.3206,-5.3206,-5.3206,-5.3188,-5.3188,-5.3206,-5.3041,-5.2729,-5.2399,-5.1867,-5.183,-5.1756,-5.1628,-5.1731,-5.2549,-5.33,-5.3536,-5.4027,-5.4924,-5.5237,-5.5446,-5.7978,-5.7978,-5.7978,-5.7978,-5.7978,-5.7978,-5.7978,-5.7978,-5.7978,-5.7978,-5.796,-5.7978,-5.7409,-5.6767,-5.5794,-5.5097,-5.4308,-5.3537,-5.3261,-5.3206,-5.3206,-5.3206,-5.3206,-5.3206,-5.3151,-5.3078,-5.3188,-5.2766,-5.2179,-5.1977,-5.1573,-5.0875,-5.0105,-4.9738,-4.9609,-4.904,-4.86,-4.8545,-4.8581,-4.8471,-4.8416,-4.8471,-4.8618,-4.8691,-4.9352,-4.9958,-5.0472,-5.0802,-5.06,-4.9884,-5.0545,-5.0875,-5.1022,-5.1683,-5.2068,-5.2197,-5.2692,-5.3096,-5.317,-5.3151,-5.3206,-5.3206,-5.3206,-5.3206,-5.3206,-5.3206,-5.3206,-5.3206,-5.3206,-5.3206,-5.3206,-5.3206,-5.3206,-5.3206,-5.3206,-5.3206,-5.3206,-5.3206,-5.3206,-5.3206,-5.3206,-5.3206,-5.3206,-5.3206,-5.3206,-5.3206,-5.3206,-5.3206,-5.3206,-5.3206,-5.3206,-5.3206,-5.3206,-5.3206,-5.3206,-5.3206,-5.3206,-5.3206,-5.3206,-5.3206,-5.3206,-5.3059,-5.3133,-5.2968,-5.2582,-5.2564,-5.2747,-5.3105,-5.3438,-5.3609,-5.3695,-5.4443,-5.5237,-5.5134,-5.5237,-5.7978,-5.7978,-5.7978,-5.7978,-5.7978,-5.7978,-5.7978,-5.7978,-5.7978,-5.7978,-5.7978,-5.7978,-5.7556,-5.6804,-5.6014,-5.5152,-5.4399,-5.3647,-5.3206,-5.3206,-5.3206,-5.3206,-5.3206,-5.3206,-5.3206,-5.3206,-5.3206,-5.3096,-5.2839,-5.2344,-5.1922,-5.1665,-5.0986,-5.0545,-5.0453,-5.0233,-4.9903,-4.9444,-4.9315,-4.8985,-4.8673,-4.9022,-4.9315,-4.9389,-5.0105,-5.0582,-5.0875,-5.1408,-5.1628,-5.1555,-5.161,-5.1738,-5.1885,-5.2472,-5.2821,-5.2894,-5.3023,-5.3206,-5.3206,-5.3206,-5.3206,-5.3206,-5.3206,-5.3206,-5.3206,-5.3206,-5.3206,-5.3206,-5.3206,-5.3206,-5.3206,-5.3206,-5.3206,-5.3206,-5.3206,-5.3206,-5.3206,-5.3206,-5.3206,-5.3206,-5.3206,-5.3206,-5.3206,-5.3206,-5.3206,-5.3206,-5.3206,-5.3206,-5.3206,-5.3206,-5.3206,-5.3206,-5.3206,-5.3206,-5.3206,-5.3206,-5.3206,-5.3206,-5.3206,-5.3206,-5.3206,-5.3206,-5.3206,-5.3206,-5.3151,-5.3206,-5.3206,-5.3206,-5.3326,-5.3565,-5.3833,-5.4401,-5.48,-5.4848,-5.5115,-5.7978,-5.7978,-5.7978,-5.7978,-5.7978,-5.7978,-5.7978,-5.7978,-5.7978,-5.7978,-5.7978,-5.7978,-5.7758,-5.7299,-5.6528,-5.5739,-5.4821,-5.3739,-5.3206,-5.3206,-5.3206,-5.3206,-5.3206,-5.3206,-5.3206,-5.3206,-5.3206,-5.3206,-5.3078,-5.2821,-5.2582,-5.2491,-5.1756,-5.1389,-5.1242,-5.1041,-5.0563,-5.0251,-5.016,-4.9903,-4.9646,-4.9884,-5.0417,-5.0637,-5.1132,-5.1499,-5.1995,-5.2307,-5.2527,-5.2564,-5.2546,-5.2546,-5.2582,-5.2949,-5.317,-5.3206,-5.3206,-5.3206,-5.3206,-5.3206,-5.3206,-5.3206,-5.3206,-5.3206,-5.3206,-5.3206,-5.3206,-5.3206,-5.3206,-5.3206,-5.3206,-5.3206,-5.3206,-5.3206,-5.3206,-5.3206,-5.3206,-5.3206,-5.3206,-5.3206,-5.3206,-5.3206,-5.3206,-5.3206,-5.3206,-5.3206,-5.3206,-5.3206,-5.3206,-5.3206,-5.3206,-5.3206,-5.3206,-5.3206,-5.3206,-5.3206,-5.3206,-5.3206,-5.3206,-5.3206,-5.3206,-5.3206,-5.3206,-5.3206,-5.3206,-5.3206,-5.3206,-5.3206,-5.3314,-5.3623,-5.3888,-5.4168,-5.4497,-5.4819,-5.5186,-5.7978,-5.7978,-5.7978,-5.7978,-5.7978,-5.7978,-5.7978,-5.7978,-5.7978,-5.7978,-5.7978,-5.7978,-5.7941,-5.7776,-5.7097,-5.6308,-5.5152,-5.3977,-5.3206,-5.3206,-5.3206,-5.3206,-5.3206,-5.3206,-5.3206,-5.3206,-5.3206,-5.3206,-5.3206,-5.3206,-5.3041,-5.3059,-5.2564,-5.2215,-5.2013,-5.1591,-5.1206,-5.1022,-5.0967,-5.0802,-5.071,-5.0839,-5.1334,-5.1958,-5.2142,-5.2435,-5.2858,-5.3059,-5.3151,-5.3206,-5.3206,-5.3206,-5.3206,-5.3206,-5.3206,-5.3206,-5.3206,-5.3206,-5.3206,-5.3206,-5.3206,-5.3206,-5.3206,-5.3206,-5.3206,-5.3206,-5.3206,-5.3206,-5.3206,-5.3206,-5.3206,-5.3206,-5.3206,-5.3206,-5.3206,-5.3206,-5.3206,-5.3206,-5.3206,-5.3206,-5.3206,-5.3206,-5.3206,-5.3206,-5.3206,-5.3206,-5.3206,-5.3206,-5.3206,-5.3206,-5.3206,-5.3206,-5.3206,-5.3206,-5.3206,-5.3206,-5.3206,-5.3206,-5.3206,-5.3206,-5.3206,-5.3206,-5.3206,-5.3206,-5.3206,-5.3206,-5.3206,-5.3206,-5.3359,-5.3663,-5.3796,-5.3924,-5.4303,-5.4819,-5.5115,-5.7978,-5.7978,-5.7978,-5.7978,-5.7978,-5.7978,-5.7978,-5.7978,-5.7978,-5.7978,-5.7978,-5.7978,-5.7978,-5.7795,-5.7171,-5.6033,-5.484,-5.3812,-5.328,-5.3225,-5.3206,-5.3206,-5.3206,-5.3206,-5.3206,-5.3206,-5.3206,-5.3206,-5.3206,-5.3206,-5.3206,-5.3188,-5.3041,-5.2931,-5.2894,-5.2784,-5.227,-5.1867,-5.1793,-5.1555,-5.1279,-5.1555,-5.2105,-5.2803,-5.2858,-5.3004,-5.3115,-5.3206,-5.3206,-5.3206,-5.3206,-5.3206,-5.3206,-5.3206,-5.3206,-5.3206,-5.3206,-5.3206,-5.3206,-5.3206,-5.3206,-5.3206,-5.3206,-5.3206,-5.3206,-5.3206,-5.3206,-5.3206,-5.3206,-5.3206,-5.3206,-5.3206,-5.3206,-5.3206,-5.3206,-5.3206,-5.3206,-5.3206,-5.3206,-5.3206,-5.3206,-5.3206,-5.3206,-5.3206,-5.3206,-5.3206,-5.3206,-5.3206,-5.3206,-5.3206,-5.3206,-5.3206,-5.3206,-5.3206,-5.3206,-5.3206,-5.3206,-5.3206,-5.3206,-5.3206,-5.3206,-5.3206,-5.3206,-5.3206,-5.3206,-5.3206,-5.3206,-5.3206,-5.3272,-5.3422,-5.3524,-5.3623,-5.4032,-5.4433,-5.4547,-5.7978,-5.7978,-5.7978,-5.7978,-5.7978,-5.7978,-5.7978,-5.7978,-5.7978,-5.7978,-5.7978,-5.7978,-5.7978,-5.7886,-5.7648,-5.6528,-5.5133,-5.4197,-5.3647,-5.3335,-5.3206,-5.3206,-5.3206,-5.3206,-5.3206,-5.3206,-5.3206,-5.3206,-5.3206,-5.3206,-5.3206,-5.3206,-5.3206,-5.3206,-5.3206,-5.3133,-5.2986,-5.2637,-5.2582,-5.2435,-5.205,-5.2454,-5.2858,-5.3059,-5.3206,-5.3206,-5.3206,-5.3206,-5.3206,-5.3206,-5.3206,-5.3206,-5.3206,-5.3206,-5.3206,-5.3206,-5.3206,-5.3206,-5.3206,-5.3206,-5.3206,-5.3206,-5.3206,-5.3206,-5.3206,-5.3206,-5.3206,-5.3206,-5.3206,-5.3206,-5.3206,-5.3206,-5.3206,-5.3206,-5.3206,-5.3206,-5.3206,-5.3206,-5.3206,-5.3206,-5.3206,-5.3206,-5.3206,-5.3206,-5.3206,-5.3206,-5.3206,-5.3206,-5.3206,-5.3206,-5.3206,-5.3206,-5.3206,-5.3206,-5.3206,-5.3206,-5.3206,-5.3206,-5.3206,-5.3206,-5.3206,-5.3206,-5.3206,-5.3206,-5.3206,-5.3206,-5.3206,-5.3206,-5.3206,-5.3206,-5.3295,-5.3462,-5.3758,-5.4013,-5.4118,-5.7978,-5.7978,-5.7978,-5.7978,-5.7978,-5.7978,-5.7978,-5.7978,-5.7978,-5.7978,-5.7978,-5.7978,-5.7978,-5.7941,-5.7648,-5.6895,-5.5574,-5.473,-5.3959,-5.3335,-5.3206,-5.3206,-5.3206,-5.3206,-5.3206,-5.3206,-5.3206,-5.3206,-5.3206,-5.3206,-5.3206,-5.3206,-5.3206,-5.3206,-5.3206,-5.3206,-5.3206,-5.3206,-5.3206,-5.3206,-5.3206,-5.3206,-5.3206,-5.3206,-5.3206,-5.3206,-5.3206,-5.3206,-5.3206,-5.3206,-5.3206,-5.3206,-5.3206,-5.3206,-5.3206,-5.3206,-5.3206,-5.3206,-5.3206,-5.3206,-5.3206,-5.3206,-5.3206,-5.3206,-5.3206,-5.3206,-5.3206,-5.3206,-5.3206,-5.3206,-5.3206,-5.3206,-5.3206,-5.3206,-5.3206,-5.3206,-5.3206,-5.3206,-5.3206,-5.3206,-5.3206,-5.3206,-5.3206,-5.3206,-5.3206,-5.3206,-5.3206,-5.3206,-5.3206,-5.3206,-5.3206,-5.3206,-5.3206,-5.3206,-5.3206,-5.3206,-5.3206,-5.3206,-5.3206,-5.3206,-5.3206,-5.3206,-5.3206,-5.3206,-5.3206,-5.3206,-5.3206,-5.3206,-5.3206,-5.3206,-5.3206,-5.3359,-5.372,-5.3796,-5.3796,-5.7978,-5.7978,-5.7978,-5.7978,-5.7978,-5.7978,-5.7978,-5.7978,-5.7978,-5.7978,-5.7978,-5.7978,-5.7978,-5.7868,-5.7317,-5.651,-5.5592,-5.4876,-5.4069,-5.3335,-5.3206,-5.3206,-5.3206,-5.3206,-5.3206,-5.3206,-5.3206,-5.3206,-5.3206,-5.3206,-5.3206,-5.3206,-5.3206,-5.3206,-5.3206,-5.3206,-5.3206,-5.3206,-5.3206,-5.3206,-5.3206,-5.3206,-5.3206,-5.3206,-5.3206,-5.3206,-5.3206,-5.3206,-5.3206,-5.3206,-5.3206,-5.3206,-5.3206,-5.3206,-5.3206,-5.3206,-5.3206,-5.3206,-5.3206,-5.3206,-5.3206,-5.3206,-5.3206,-5.3206,-5.3206,-5.3206,-5.3206,-5.3206,-5.3206,-5.3206,-5.3206,-5.3206,-5.3206,-5.3206,-5.3206,-5.3206,-5.3206,-5.3206,-5.3206,-5.3206,-5.3206,-5.3206,-5.3206,-5.3206,-5.3206,-5.3206,-5.3206,-5.3206,-5.3206,-5.3206,-5.3206,-5.3206,-5.3206,-5.3206,-5.3206,-5.3206,-5.3206,-5.3206,-5.3206,-5.3206,-5.3206,-5.3206,-5.3206,-5.3206,-5.3206,-5.3206,-5.3206,-5.3206,-5.3206,-5.3206,-5.3206,-5.3422,-5.3702,-5.3663,-5.3524,-5.7978,-5.7978,-5.7978,-5.7978,-5.7978,-5.7978,-5.7978,-5.7978,-5.7978,-5.7978,-5.7978,-5.7978,-5.7978,-5.7886,-5.7574,-5.6785,-5.5739,-5.5188,-5.4344,-5.3408,-5.3206,-5.3206,-5.3206,-5.3206,-5.3206,-5.3206,-5.3206,-5.3206,-5.3206,-5.3206,-5.3206,-5.3206,-5.3206,-5.3206,-5.3206,-5.3206,-5.3206,-5.3206,-5.3206,-5.3206,-5.3206,-5.3206,-5.3206,-5.3206,-5.3206,-5.3206,-5.3206,-5.3206,-5.3206,-5.3206,-5.3206,-5.3206,-5.3206,-5.3206,-5.3206,-5.3206,-5.3206,-5.3206,-5.3206,-5.3225,-5.3225,-5.3243,-5.3243,-5.3206,-5.3206,-5.328,-5.328,-5.3206,-5.3206,-5.3206,-5.3225,-5.3206,-5.3206,-5.3206,-5.3206,-5.3206,-5.3206,-5.3206,-5.3206,-5.3206,-5.3206,-5.3206,-5.3206,-5.3206,-5.3206,-5.3206,-5.3206,-5.3206,-5.3206,-5.3206,-5.3206,-5.3206,-5.3206,-5.3206,-5.3206,-5.3206,-5.3206,-5.3206,-5.3206,-5.3206,-5.3206,-5.3206,-5.3206,-5.3206,-5.3206,-5.3206,-5.3206,-5.3206,-5.3206,-5.3206,-5.3206,-5.3381,-5.3526,-5.3444,-5.3336,-5.7978,-5.7978,-5.7978,-5.7978,-5.7978,-5.7978,-5.7978,-5.7978,-5.7978,-5.7978,-5.7978,-5.7978,-5.7978,-5.7978,-5.785,-5.7079,-5.5629,-5.5592,-5.4601,-5.3683,-5.3206,-5.3206,-5.3206,-5.3206,-5.3206,-5.3206,-5.3206,-5.3206,-5.3206,-5.3206,-5.3206,-5.3206,-5.3206,-5.3206,-5.3206,-5.3206,-5.3206,-5.3206,-5.3206,-5.3206,-5.3206,-5.3206,-5.3206,-5.3206,-5.3206,-5.3206,-5.3206,-5.3206,-5.3206,-5.3206,-5.3206,-5.3206,-5.3206,-5.3206,-5.3206,-5.3206,-5.3206,-5.3371,-5.3408,-5.3427,-5.3353,-5.35,-5.3775,-5.4032,-5.394,-5.3794,-5.3647,-5.3647,-5.3592,-5.3463,-5.3243,-5.3206,-5.3206,-5.3206,-5.3206,-5.3206,-5.3206,-5.3206,-5.3206,-5.3206,-5.3206,-5.3206,-5.3206,-5.3206,-5.3206,-5.3206,-5.3206,-5.3206,-5.3206,-5.3206,-5.3206,-5.3206,-5.3206,-5.3206,-5.3206,-5.3206,-5.3206,-5.3206,-5.3206,-5.3206,-5.3206,-5.3206,-5.3206,-5.3206,-5.3206,-5.3206,-5.3206,-5.3206,-5.3206,-5.3206,-5.3206,-5.3206,-5.323,-5.3206,-5.3206,-5.7978,-5.7978,-5.7978,-5.7978,-5.7978,-5.7978,-5.7978,-5.7978,-5.7978,-5.7978,-5.7978,-5.7978,-5.7978,-5.7978,-5.785,-5.7152,-5.5647,-5.5611,-5.4656,-5.3739,-5.3206,-5.3206,-5.3206,-5.3206,-5.3206,-5.3206,-5.3206,-5.3206,-5.3206,-5.3206,-5.3206,-5.3206,-5.3206,-5.3206,-5.3206,-5.3206,-5.3206,-5.3206,-5.3206,-5.3206,-5.3206,-5.3206,-5.3206,-5.3206,-5.3206,-5.3206,-5.3206,-5.3206,-5.3206,-5.3206,-5.3206,-5.3206,-5.3206,-5.3206,-5.3225,-5.3408,-5.3427,-5.372,-5.4051,-5.3794,-5.372,-5.4271,-5.4785,-5.5078,-5.4987,-5.5262,-5.506,-5.4308,-5.4106,-5.3775,-5.3463,-5.3206,-5.3206,-5.3206,-5.3206,-5.3206,-5.3206,-5.3206,-5.3206,-5.3206,-5.3206,-5.3206,-5.3206,-5.3206,-5.3206,-5.3206,-5.3206,-5.3206,-5.3206,-5.3206,-5.3206,-5.3206,-5.3206,-5.3206,-5.3206,-5.3206,-5.3206,-5.3206,-5.3206,-5.3206,-5.3206,-5.3206,-5.3206,-5.3206,-5.3206,-5.3206,-5.3206,-5.3206,-5.3206,-5.3206,-5.3206,-5.3206,-5.3206,-5.3206,-5.3206,-5.7978,-5.7978,-5.7978,-5.7978,-5.7978,-5.7978,-5.7978,-5.7978,-5.7978,-5.7978,-5.7978,-5.7978,-5.7978,-5.7978,-5.7941,-5.7428,-5.6363,-5.5757,-5.4895,-5.4087,-5.3537,-5.3261,-5.3206,-5.3206,-5.3206,-5.3206,-5.3206,-5.3206,-5.3206,-5.3206,-5.3206,-5.3206,-5.3206,-5.3206,-5.3206,-5.3206,-5.3206,-5.3206,-5.3206,-5.3206,-5.3206,-5.3206,-5.3206,-5.3206,-5.3206,-5.3206,-5.3206,-5.3206,-5.3206,-5.3206,-5.3206,-5.3206,-5.3206,-5.3206,-5.3445,-5.3812,-5.3867,-5.4326,-5.484,-5.4491,-5.4326,-5.495,-5.5409,-5.5666,-5.5776,-5.5647,-5.5188,-5.4693,-5.4454,-5.4142,-5.3408,-5.3225,-5.3206,-5.3206,-5.3206,-5.3206,-5.3206,-5.3206,-5.3206,-5.3206,-5.3206,-5.3206,-5.3206,-5.3206,-5.3206,-5.3206,-5.3206,-5.3206,-5.3206,-5.3206,-5.3206,-5.3206,-5.3206,-5.3206,-5.3206,-5.3206,-5.3206,-5.3206,-5.3206,-5.3206,-5.3206,-5.3206,-5.3206,-5.3206,-5.3206,-5.3206,-5.3206,-5.3206,-5.3206,-5.3206,-5.3206,-5.3206,-5.3206,-5.3206,-5.3206,-5.7978,-5.7978,-5.7978,-5.7978,-5.7978,-5.7978,-5.7978,-5.7978,-5.7978,-5.7978,-5.7978,-5.7978,-5.7978,-5.7978,-5.796,-5.7556,-5.6693,-5.5941,-5.5152,-5.4344,-5.3628,-5.328,-5.3206,-5.3206,-5.3206,-5.3206,-5.3206,-5.3206,-5.3206,-5.3206,-5.3206,-5.3206,-5.3206,-5.3206,-5.3206,-5.3206,-5.3206,-5.3206,-5.3206,-5.3206,-5.3206,-5.3206,-5.3206,-5.3206,-5.3206,-5.3206,-5.3206,-5.3206,-5.3206,-5.3206,-5.3206,-5.3206,-5.3206,-5.3316,-5.3647,-5.4106,-5.4528,-5.4876,-5.5464,-5.5574,-5.5372,-5.5886,-5.6326,-5.64,-5.6308,-5.6271,-5.618,-5.539,-5.5005,-5.4418,-5.3647,-5.3445,-5.3243,-5.3206,-5.3206,-5.3206,-5.3206,-5.3206,-5.3206,-5.3206,-5.3206,-5.3206,-5.3206,-5.3206,-5.3206,-5.3206,-5.3206,-5.3206,-5.3206,-5.3206,-5.3206,-5.3206,-5.3206,-5.3206,-5.3206,-5.3206,-5.3206,-5.3206,-5.3206,-5.3206,-5.3206,-5.3206,-5.3206,-5.3206,-5.3206,-5.3206,-5.3206,-5.3206,-5.3206,-5.3206,-5.3206,-5.3206,-5.3206,-5.3206,-5.3206,-5.7978,-5.7978,-5.7978,-5.7978,-5.7978,-5.7978,-5.7978,-5.7978,-5.7978,-5.7978,-5.7978,-5.7978,-5.7978,-5.7978,-5.7978,-5.7611,-5.6914,-5.6033,-5.5225,-5.4528,-5.3647,-5.3298,-5.3206,-5.3206,-5.3206,-5.3206,-5.3206,-5.3206,-5.3206,-5.3206,-5.3206,-5.3206,-5.3206,-5.3206,-5.3206,-5.3206,-5.3206,-5.3206,-5.3206,-5.3206,-5.3206,-5.3206,-5.3206,-5.3206,-5.3206,-5.3206,-5.3206,-5.3206,-5.3206,-5.3206,-5.3206,-5.3206,-5.3206,-5.3206,-5.3647,-5.4436,-5.4509,-5.5244,-5.6547,-5.6657,-5.673,-5.6804,-5.7171,-5.7464,-5.774,-5.7721,-5.7299,-5.6253,-5.5794,-5.5115,-5.4399,-5.3702,-5.3371,-5.3206,-5.3206,-5.3206,-5.3206,-5.3206,-5.3206,-5.3206,-5.3206,-5.3206,-5.3206,-5.3206,-5.3206,-5.3206,-5.3206,-5.3206,-5.3206,-5.3206,-5.3206,-5.3206,-5.3206,-5.3206,-5.3206,-5.3206,-5.3206,-5.3206,-5.3206,-5.3206,-5.3206,-5.3206,-5.3206,-5.3206,-5.3206,-5.3206,-5.3206,-5.3206,-5.3206,-5.3206,-5.3206,-5.3206,-5.3206,-5.3206,-5.3206,-5.7978,-5.7978,-5.7978,-5.7978,-5.7978,-5.7978,-5.7978,-5.7978,-5.7978,-5.7978,-5.7978,-5.7978,-5.7978,-5.7978,-5.7978,-5.7795,-5.7409,-5.6106,-5.5299,-5.506,-5.3849,-5.3353,-5.3206,-5.3206,-5.3206,-5.3206,-5.3206,-5.3206,-5.3206,-5.3206,-5.3206,-5.3206,-5.3206,-5.3206,-5.3206,-5.3206,-5.3206,-5.3206,-5.3206,-5.3206,-5.3206,-5.3206,-5.3206,-5.3206,-5.3206,-5.3206,-5.3206,-5.3206,-5.3206,-5.3206,-5.3206,-5.3206,-5.3225,-5.3243,-5.3867,-5.4821,-5.5225,-5.5941,-5.7116,-5.7574,-5.7593,-5.7685,-5.7776,-5.7978,-5.7978,-5.7978,-5.7538,-5.6914,-5.618,-5.5372,-5.4473,-5.3683,-5.3298,-5.3225,-5.3206,-5.3206,-5.3206,-5.3206,-5.3206,-5.3206,-5.3206,-5.3206,-5.3206,-5.3206,-5.3206,-5.3206,-5.3206,-5.3206,-5.3206,-5.3206,-5.3206,-5.3206,-5.3206,-5.3206,-5.3206,-5.3206,-5.3206,-5.3206,-5.3206,-5.3206,-5.3206,-5.3206,-5.3206,-5.3206,-5.3206,-5.3206,-5.3206,-5.3206,-5.3206,-5.3206,-5.3206,-5.3206,-5.3206,-5.3206,-5.3206,-5.7978,-5.7978,-5.7978,-5.7978,-5.7978,-5.7978,-5.7978,-5.7978,-5.7978,-5.7978,-5.7978,-5.7978,-5.7978,-5.7978,-5.7978,-5.7978,-5.7813,-5.6363,-5.5592,-5.5372,-5.394,-5.3371,-5.3206,-5.3206,-5.3206,-5.3206,-5.3206,-5.3206,-5.3206,-5.3206,-5.3206,-5.3206,-5.3206,-5.3206,-5.3206,-5.3206,-5.3206,-5.3206,-5.3206,-5.3206,-5.3206,-5.3206,-5.3206,-5.3206,-5.3206,-5.3206,-5.3206,-5.3206,-5.3206,-5.3206,-5.3206,-5.3206,-5.3243,-5.3628,-5.4252,-5.5207,-5.6308,-5.6895,-5.7685,-5.7941,-5.7886,-5.7923,-5.7978,-5.7978,-5.7978,-5.7978,-5.7776,-5.7207,-5.6418,-5.5666,-5.4876,-5.4051,-5.3518,-5.3463,-5.3206,-5.3206,-5.3206,-5.3206,-5.3206,-5.3206,-5.3206,-5.3206,-5.3206,-5.3206,-5.3206,-5.3206,-5.3206,-5.3206,-5.3206,-5.3206,-5.3206,-5.3206,-5.3206,-5.3206,-5.3206,-5.3206,-5.3206,-5.3206,-5.3206,-5.3206,-5.3206,-5.3206,-5.3206,-5.3206,-5.3206,-5.3206,-5.3206,-5.3206,-5.3206,-5.3206,-5.3206,-5.3206,-5.3206,-5.3206,-5.3206,-5.796,-5.796,-5.7978,-5.7978,-5.7978,-5.7978,-5.7978,-5.7978,-5.7978,-5.7978,-5.7978,-5.7978,-5.7978,-5.7978,-5.7978,-5.7905,-5.7574,-5.6216,-5.5666,-5.506,-5.3849,-5.3427,-5.3206,-5.3206,-5.3206,-5.3206,-5.3206,-5.3206,-5.3206,-5.3206,-5.3206,-5.3206,-5.3206,-5.3206,-5.3206,-5.3206,-5.3206,-5.3206,-5.3206,-5.3206,-5.3206,-5.3206,-5.3206,-5.3206,-5.3206,-5.3206,-5.3206,-5.3206,-5.3206,-5.3206,-5.3206,-5.3206,-5.3445,-5.3977,-5.4748,-5.5776,-5.7097,-5.7666,-5.7941,-5.7978,-5.7978,-5.7978,-5.7978,-5.7978,-5.7978,-5.7978,-5.7868,-5.7593,-5.7005,-5.6308,-5.5574,-5.4748,-5.394,-5.3647,-5.3261,-5.3206,-5.3206,-5.3206,-5.3206,-5.3206,-5.3206,-5.3206,-5.3206,-5.3206,-5.3206,-5.3206,-5.3206,-5.3206,-5.3206,-5.3206,-5.3206,-5.3206,-5.3206,-5.3206,-5.3206,-5.3206,-5.3206,-5.3206,-5.3206,-5.3206,-5.3206,-5.3206,-5.3206,-5.3206,-5.3206,-5.3206,-5.3206,-5.3206,-5.3206,-5.3206,-5.3206,-5.3206,-5.3206,-5.3206,-5.3206,-5.7152,-5.7207,-5.7758,-5.7978,-5.7978,-5.7978,-5.7978,-5.7978,-5.7978,-5.7978,-5.7978,-5.7978,-5.7978,-5.7978,-5.7978,-5.7666,-5.695,-5.6106,-5.5299,-5.4528,-5.3757,-5.3371,-5.3206,-5.3206,-5.3206,-5.3206,-5.3206,-5.3206,-5.3206,-5.3206,-5.3206,-5.3206,-5.3206,-5.3206,-5.3206,-5.3206,-5.3206,-5.3206,-5.3206,-5.3206,-5.3206,-5.3206,-5.3206,-5.3206,-5.3206,-5.3206,-5.3206,-5.3206,-5.3206,-5.3206,-5.3206,-5.3206,-5.3261,-5.3995,-5.4876,-5.6381,-5.7354,-5.7978,-5.7978,-5.796,-5.7886,-5.7813,-5.7886,-5.7978,-5.7978,-5.7941,-5.7941,-5.774,-5.7373,-5.6675,-5.5812,-5.4987,-5.4142,-5.3537,-5.3243,-5.3206,-5.3206,-5.3206,-5.3206,-5.3206,-5.3206,-5.3206,-5.3206,-5.3206,-5.3206,-5.3206,-5.3206,-5.3206,-5.3206,-5.3206,-5.3206,-5.3206,-5.3206,-5.3206,-5.3206,-5.3206,-5.3206,-5.3206,-5.3206,-5.3206,-5.3206,-5.3206,-5.3206,-5.3206,-5.3206,-5.3206,-5.3206,-5.3206,-5.3206,-5.3206,-5.3206,-5.3206,-5.3206,-5.3206,-5.3206,-5.6326,-5.6436,-5.7189,-5.7703,-5.796,-5.7978,-5.7978,-5.7978,-5.7978,-5.7978,-5.7978,-5.7978,-5.7978,-5.7978,-5.7941,-5.7593,-5.6785,-5.5996,-5.5207,-5.4418,-5.3592,-5.3335,-5.3206,-5.3206,-5.3206,-5.3206,-5.3206,-5.3206,-5.3206,-5.3206,-5.3206,-5.3206,-5.3206,-5.3206,-5.3206,-5.3206,-5.3206,-5.3206,-5.3206,-5.3206,-5.3206,-5.3206,-5.3206,-5.3206,-5.3206,-5.3206,-5.3206,-5.3206,-5.3206,-5.3206,-5.3206,-5.3206,-5.3335,-5.3995,-5.5133,-5.6473,-5.7116,-5.7171,-5.7024,-5.7317,-5.7262,-5.7244,-5.7354,-5.7483,-5.7648,-5.7703,-5.7868,-5.7868,-5.7446,-5.6895,-5.5996,-5.5078,-5.4216,-5.3353,-5.328,-5.3206,-5.3206,-5.3206,-5.3206,-5.3206,-5.3206,-5.3206,-5.3206,-5.3206,-5.3206,-5.3206,-5.3206,-5.3206,-5.3206,-5.3206,-5.3206,-5.3206,-5.3206,-5.3206,-5.3206,-5.3206,-5.3206,-5.3206,-5.3206,-5.3206,-5.3206,-5.3206,-5.3206,-5.3206,-5.3206,-5.3206,-5.3206,-5.3206,-5.3206,-5.3206,-5.3206,-5.3206,-5.3206,-5.3206,-5.3206,-5.5482,-5.5574,-5.6363,-5.7079,-5.7758,-5.7776,-5.7831,-5.7923,-5.7941,-5.7978,-5.7978,-5.7978,-5.7978,-5.7978,-5.796,-5.7409,-5.6638,-5.5831,-5.5005,-5.4326,-5.3573,-5.3225,-5.3206,-5.3206,-5.3206,-5.3206,-5.3206,-5.3206,-5.3206,-5.3206,-5.3206,-5.3206,-5.3206,-5.3206,-5.3206,-5.3206,-5.3206,-5.3206,-5.3206,-5.3206,-5.3206,-5.3206,-5.3206,-5.3206,-5.3206,-5.3206,-5.3206,-5.3206,-5.3206,-5.3206,-5.3206,-5.3206,-5.3647,-5.4014,-5.5262,-5.6033,-5.6602,-5.6418,-5.6253,-5.6455,-5.6308,-5.6253,-5.629,-5.6602,-5.6877,-5.7593,-5.7905,-5.7666,-5.7226,-5.6455,-5.5556,-5.5023,-5.4308,-5.3573,-5.3243,-5.3206,-5.3206,-5.3206,-5.3206,-5.3206,-5.3206,-5.3206,-5.3206,-5.3206,-5.3206,-5.3206,-5.3206,-5.3206,-5.3206,-5.3206,-5.3206,-5.3206,-5.3206,-5.3206,-5.3206,-5.3206,-5.3206,-5.3206,-5.3206,-5.3206,-5.3206,-5.3206,-5.3206,-5.3206,-5.3206,-5.3206,-5.3206,-5.3206,-5.3206,-5.3206,-5.3206,-5.3206,-5.3188,-5.3059,-5.2913,-5.4675,-5.4766,-5.5556,-5.5996,-5.6235,-5.684,-5.7097,-5.7152,-5.7758,-5.7923,-5.7978,-5.796,-5.7978,-5.7978,-5.7905,-5.7244,-5.6069,-5.5574,-5.4711,-5.394,-5.3261,-5.3225,-5.3206,-5.3206,-5.3206,-5.3206,-5.3206,-5.3206,-5.3206,-5.3206,-5.3206,-5.3206,-5.3206,-5.3206,-5.3206,-5.3206,-5.3206,-5.3206,-5.3206,-5.3206,-5.3206,-5.3206,-5.3206,-5.3206,-5.3206,-5.3206,-5.3206,-5.3206,-5.3206,-5.3206,-5.3206,-5.3518,-5.4106,-5.4289,-5.4876,-5.5647,-5.5868,-5.5647,-5.5556,-5.5611,-5.5592,-5.5629,-5.5721,-5.5812,-5.6308,-5.7354,-5.7721,-5.7317,-5.6785,-5.5959,-5.5262,-5.4858,-5.4399,-5.3757,-5.3206,-5.3206,-5.3206,-5.3206,-5.3206,-5.3206,-5.3206,-5.3206,-5.3206,-5.3206,-5.3206,-5.3206,-5.3206,-5.3206,-5.3206,-5.3206,-5.3206,-5.3206,-5.3206,-5.3206,-5.3206,-5.3206,-5.3206,-5.3206,-5.3206,-5.3206,-5.3206,-5.3206,-5.3206,-5.3206,-5.3206,-5.3206,-5.3206,-5.3206,-5.3206,-5.3206,-5.3004,-5.2931,-5.2692,-5.2546,-5.238,-5.3885,-5.3977,-5.473,-5.528,-5.5629,-5.6088,-5.6253,-5.6345,-5.6748,-5.6932,-5.7097,-5.7611,-5.796,-5.785,-5.7648,-5.6877,-5.5629,-5.5207,-5.4344,-5.3518,-5.3206,-5.3206,-5.3206,-5.3206,-5.3206,-5.3206,-5.3206,-5.3206,-5.3206,-5.3206,-5.3206,-5.3206,-5.3206,-5.3206,-5.3206,-5.3206,-5.3206,-5.3206,-5.3206,-5.3206,-5.3206,-5.3206,-5.3206,-5.3206,-5.3206,-5.3206,-5.3206,-5.3206,-5.3206,-5.3206,-5.3206,-5.3665,-5.3995,-5.3977,-5.4271,-5.4803,-5.5023,-5.4895,-5.4785,-5.4821,-5.4876,-5.4803,-5.4987,-5.5023,-5.5207,-5.6124,-5.6583,-5.629,-5.6271,-5.5556,-5.4968,-5.4509,-5.4069,-5.3518,-5.328,-5.3206,-5.3206,-5.3206,-5.3206,-5.3206,-5.3206,-5.3206,-5.3206,-5.3206,-5.3206,-5.3206,-5.3206,-5.3206,-5.3206,-5.3206,-5.3206,-5.3206,-5.3206,-5.3206,-5.3206,-5.3206,-5.3206,-5.3206,-5.3206,-5.3206,-5.3206,-5.3206,-5.3206,-5.3206,-5.3206,-5.3206,-5.3206,-5.3206,-5.3206,-5.3206,-5.2894,-5.2582,-5.2289,-5.1885,-5.1389,-5.3243,-5.3316,-5.3959,-5.4638,-5.5244,-5.5409,-5.5445,-5.5464,-5.5574,-5.5647,-5.5868,-5.7079,-5.7611,-5.7428,-5.7005,-5.6198,-5.5482,-5.4876,-5.3995,-5.3427,-5.3225,-5.3206,-5.3206,-5.3206,-5.3206,-5.3206,-5.3206,-5.3206,-5.3206,-5.3206,-5.3206,-5.3206,-5.3206,-5.3206,-5.3206,-5.3206,-5.3206,-5.3206,-5.3206,-5.3206,-5.3206,-5.3206,-5.3206,-5.3206,-5.3206,-5.3206,-5.3206,-5.3206,-5.3206,-5.3206,-5.3225,-5.3555,-5.3739,-5.3665,-5.3775,-5.4124,-5.4252,-5.394,-5.3702,-5.3959,-5.3775,-5.3683,-5.4032,-5.4289,-5.4454,-5.473,-5.5188,-5.5335,-5.5317,-5.517,-5.4564,-5.4142,-5.3702,-5.3427,-5.3298,-5.3206,-5.3206,-5.3206,-5.3206,-5.3206,-5.3206,-5.3206,-5.3206,-5.3206,-5.3206,-5.3206,-5.3206,-5.3206,-5.3206,-5.3206,-5.3206,-5.3206,-5.3206,-5.3206,-5.3206,-5.3206,-5.3206,-5.3206,-5.3206,-5.3206,-5.3206,-5.3206,-5.3206,-5.3206,-5.3206,-5.3206,-5.3206,-5.3206,-5.3206,-5.3078,-5.2692,-5.2215,-5.1555,-5.1077,-5.0215,-5.3206,-5.3225,-5.339,-5.3512,-5.3775,-5.4326,-5.4638,-5.4748,-5.5299,-5.5592,-5.5556,-5.5721,-5.6051,-5.6033,-5.5941,-5.5427,-5.4876,-5.4399,-5.3904,-5.3316,-5.3225,-5.3206,-5.3206,-5.3206,-5.3206,-5.3206,-5.3206,-5.3206,-5.3206,-5.3206,-5.3206,-5.3206,-5.3206,-5.3206,-5.3206,-5.3206,-5.3206,-5.3206,-5.3206,-5.3206,-5.3206,-5.3206,-5.3206,-5.3206,-5.3206,-5.3206,-5.3206,-5.3206,-5.3206,-5.3206,-5.3225,-5.3353,-5.339,-5.3371,-5.3445,-5.3518,-5.3628,-5.35,-5.3408,-5.3482,-5.3316,-5.3316,-5.361,-5.3592,-5.3683,-5.3683,-5.3995,-5.4069,-5.4106,-5.4216,-5.383,-5.3628,-5.3298,-5.3298,-5.3225,-5.3206,-5.3206,-5.3206,-5.3206,-5.3206,-5.3206,-5.3206,-5.3206,-5.3206,-5.3206,-5.3206,-5.3206,-5.3206,-5.3206,-5.3206,-5.3206,-5.3206,-5.3206,-5.3206,-5.3206,-5.3206,-5.3206,-5.3206,-5.3206,-5.3206,-5.3206,-5.3206,-5.3206,-5.3206,-5.3206,-5.3206,-5.3206,-5.3206,-5.2821,-5.2619,-5.2307,-5.1848,-5.1096,-5.0343,-4.9554]}]]